GFSGL_prec_radar_000.txt.gz
Reflectivity
-20 -19 8 -20 -20 -20 -20 -20 -20 -20 -20 -20 -20 -20 -20 -20 -20 -20 -20 -20 -20 -20 -20 -13 -14 -11 19 8 10 -20 -15 -7 3 -20 -20 -20 -20 5 4 13 21 15 -19
-20 -20 -20 -20 -20 -20 -20 -20 -20 -20 -20 -20 -20 0 5 7 9 -8 7 10 7 8 13 10 12 -12 7 6 -6 10 7 -20 -7 -20 -20 -20 -20 -20 -20 -3 15 14 -3
-20 -20 -20 -20 -20 -20 -20 -20 -20 -20 -20 -20 -20 -20 -20 -20 -20 -20 -20 -20 -20 -20 -20 -20 -14 1 -16 -20 -20 -20 -20 -20 -20 -20 -20 -20 -20 -20 -20 -20 -4 -10 -20
-8 -10 -20 -20 -20 -20 -20 -20 -20 -20 -20 -20 -20 -20 -20 -20 -20 -20 -20 -20 -20 -20 -20 -20 -20 -20 -12 15 -5 -19 -20 -20 -20 -20 -20 -20 -20 -20 -20 -20 -20 -20 -20
-17 15 -20 -20 -20 -20 -20 -20 -20 -20 -20 -20 -20 -20 -20 -20 -20 -20 -20 -20 -20 -20 -20 -20 -20 -20 -20 -20 -20 -4 -20 -20 -20 -20 -20 -20 -20 -20 -19 -10 1 3 -20
-20 -20 -20 14 19 12 -8 -20 -20 -20 -20 -20 -20 -20 -20 -20 -20 -20 -20 -20 -20 -20 -20 -20 -20 -20 -20 -20 4 -20 -20 -20 -20 -20 -20 -20 -20 -20 -20 -20 -20 -20 -20
-20 -20 -20 22 19 8 -2 -20 -20 -20 -20 -20 -20 -20 -20 -20 -20 -20 -20 -20 -20 -20 -20 -20 -20 -13 -7 -11 10 -10 -20 -20 -20 -20 -20 -20 -20 -20 -20 -20 -20 -20 -20
-20 -3 -2 -13 -18 -8 -20 -20 -19 -20 -20 -20 -20 -20 -20 -20 -20 -20 -20 -20 -20 -20 -20 -20 -20 -20 -20 -20 -20 -20 -20 -20 -20 -20 -10 -20 -20 -20 -20 -13 -6 -20 -20
-20 -20 11 10 24 9 -20 -20 -20 -20 -20 -20 -20 -20 -20 -20 -20 -20 -20 -20 -20 -20 -20 -20 8 0 -20 -15 -11 -20 -20 -20 -20 -1 -17 -1 4 -12 -16 -20 -20 -17 -15
-20 -20 -1 7 10 -18 -20 -20 -20 -20 -20 -20 -20 -20 -20 -20 -18 2 -20 -20 -20 -19 -19 -20 -20 10 -6 -18 -13 7 10 8 -11 -20 -20 -20 -20 -20 -17 4 -9 -20 -20
-20 -20 -14 24 11 -20 -20 -20 -20 -20 -20 -20 -20 -20 -20 -9 -20 -20 -20 -11 -4 4 -20 -18 -15 20 8 -20 -20 -20 -20 -13 -20 -20 -20 -20 -20 -20 -20 -20 3 8 -20
-20 -20 -20 -20 -20 -20 -20 -20 -20 -20 -20 -20 -20 -20 -20 -13 -20 -17 -20 -20 -13 6 2 8 -10 3 -7 -10 -14 -4 9 -20 -20 -20 -20 -20 -5 -20 -20 -20 -15 11 5
-20 -7 2 -20 -20 -20 -20 -20 -20 -20 -20 -20 -20 -20 -20 -20 -20 -19 -20 -20 -18 4 5 3 2 1 0 -2 9 5 -15 -20 12 10 -17 -3 5 -16 -18 -18 -18 -20 -18
-20 -20 -20 -20 -20 -20 -20 -20 -20 -20 -20 -20 -20 -20 -20 -20 -20 -20 -20 -18 -16 -2 -20 -16 8 -1 -19 1 9 8 7 9 -19 -14 1 -17 -1 -20 -2 -12 -10 -13 -20
-20 -20 -20 -20 -20 -20 -20 -20 -20 -20 -20 -20 -20 -20 -20 -20 -20 -4 2 -8 -4 -3 -17 1 -4 -20 -13 6 -9 3 5 -5 3 -20 -19 1 1 -8 -20 -20 -20 -20 -5
-20 -20 -20 -20 -20 -20 -17 -20 -20 -20 -20 -20 -20 -20 -20 -20 -20 -4 0 1 5 2 1 -1 -20 -20 -15 -7 7 1 -20 7 -19 -20 -9 -5 -11 -19 -20 -20 -6 3 -20
-20 -20 -20 -20 -19 -13 -20 -20 -19 -11 -20 -20 -20 -20 -20 -20 -20 -20 -3 -1 11 3 -0 -0 4 -20 -20 -11 -19 -17 -20 7 -2 -20 3 -20 -19 -20 -18 -20 -20 -20 -20
-20 -20 -20 5 5 -6 -20 -20 3 6 1 2 -20 -20 -20 -20 -20 -20 0 -20 -16 -20 -20 -20 -13 -19 -20 -20 -20 -14 -20 -1 -20 -20 -8 -20 -20 -20 1 -16 -20 -20 -20
-20 -20 -20 -20 -10 -17 -16 5 8 -7 2 6 3 -16 -20 -20 -14 -14 3 -20 -20 -20 -20 -20 -20 -20 -20 -20 -20 -20 -20 2 -16 -20 -20 -20 -20 1 -20 -16 -15 -20 -20
-0 -20 -20 -20 0 6 10 5 3 5 6 7 4 -18 -20 -20 -20 -17 -9 -20 -20 -20 -20 -20 -20 -20 -20 -20 -20 -20 -20 -20 -20 -20 -20 -20 -20 -13 -20 2 -14 1 -20
-6 -20 -20 -7 1 9 4 6 -19 8 6 7 3 -20 -20 -20 -20 -1 -19 -20 -20 -20 -20 -20 -20 -20 -20 -20 -20 -20 -20 -20 -20 -20 -20 -20 -20 -20 -20 6 -20 -3 -20
-20 -20 6 -10 -2 7 -10 -4 1 7 -1 1 0 -14 -20 -20 -20 -20 -3 -20 -20 -20 -20 -20 -20 -20 -20 -20 -20 -20 -20 -20 -20 -20 -20 -20 -20 -20 -20 -14 3 -20 -20
-9 -4 5 6 -9 3 1 8 1 -6 8 -10 3 -2 -13 -2 -13 -20 -20 -19 -19 -20 -20 -20 -20 -20 -20 -20 -20 -20 -20 -20 -20 -20 -20 -20 -20 -20 -20 -20 -20 -20 -20
-17 -16 4 6 -6 1 4 -14 6 4 7 9 8 -18 3 1 -20 -20 -20 -6 -20 -20 -20 -20 -20 -20 -20 -20 -20 -20 -20 -20 -20 -20 -20 -20 -20 -20 -20 -20 -20 -20 -20
-20 -20 9 8 -18 10 12 9 7 10 7 6 4 6 6 3 -13 -2 -19 -20 -20 -20 -20 -20 -20 -20 -20 -20 -20 -20 -20 -20 -20 -20 -20 -20 -20 -20 -20 -20 -20 -20 -20
-20 2 1 8 -7 -8 -6 12 -3 6 8 -2 -3 -10 6 2 -20 -5 -20 -20 -20 -20 -20 -20 -20 -20 -20 -20 -20 -20 -20 -20 -20 -20 -20 -20 -20 -20 -20 -20 -20 -20 -20

GFSGL_prec_radar_003.txt.gz
Reflectivity
-20 -20 -18 -16 -18 -20 -20 -20 -20 -20 -20 -20 -20 -20 -20 -20 -20 -20 -20 -20 -20 -20 -20 -11 -15 -14 -13 3 -18 -11 17 11 4 -20 -20 -20 -20 -20 -19 8 10 15 20
-20 -20 -20 -20 -20 -20 -20 -20 -20 -20 -20 -20 -20 -20 -20 -20 -20 -20 -20 -20 -20 -20 -20 -20 -20 -20 -20 -20 -2 9 5 3 2 -20 -20 -20 -20 -20 -20 -20 5 13 24
-20 -20 -20 -20 -18 25 8 -17 -17 0 -20 -20 -20 -20 -20 -20 -20 -20 -20 -20 -20 -20 -20 -20 -20 -20 -20 -20 -20 -20 -20 -20 -20 -20 -20 -20 -20 -20 -20 -20 -12 8 22
-20 -20 -20 -20 -20 -11 -20 -19 9 18 -9 -20 -20 -20 -20 -20 -20 -20 -20 -20 -20 -20 -20 -20 -20 -20 -20 -20 -20 -20 -20 -20 -20 -20 -20 -20 -20 -20 -20 -20 -20 -20 -19
-20 -20 -20 -16 -20 -20 15 14 26 0 -11 -20 -20 -20 -20 -20 -20 -20 -20 -20 -20 -20 -20 -20 -20 -20 -20 -20 -4 -20 -20 -20 -20 -20 -20 -20 -20 -20 -20 -20 -20 -20 -20
-20 -20 -20 -20 19 19 -20 33 13 -20 -20 -20 -20 -20 -20 -20 -20 -20 -20 -20 -20 -20 -20 -20 -20 -20 -3 -20 -20 -20 -16 -20 -20 -20 -20 -20 -20 -20 -20 -20 -20 -20 -20
-20 -20 -20 -20 -20 -20 19 28 8 -11 -20 -20 -20 -20 -20 -20 -20 -20 -20 -20 -20 -20 -20 -20 -20 -20 -20 -20 -20 -20 -20 -20 -20 -20 -20 -20 -20 -20 -20 -20 -20 -20 -20
-20 -20 -20 -20 -20 -20 4 19 -17 -20 -20 -20 -20 -20 -20 -20 -20 -20 -20 -20 -20 -20 -20 -20 -20 -20 -20 -6 -20 -20 -20 -20 -20 -20 -20 -20 -20 -20 -20 -20 -20 -10 -20
-20 -20 -20 -20 -20 -20 11 -5 -20 -20 -20 -20 -20 -20 -20 -20 -20 -20 -20 -20 -20 -20 -20 -20 -20 -18 -20 3 -18 -11 -20 -20 -20 -20 -16 3 -4 0 14 13 -15 -20 -20
-20 -20 -20 -20 -20 -3 20 -20 -20 -20 -20 -20 -20 -20 -20 -20 -20 -20 -18 -20 -20 -19 -20 -20 -20 -20 20 11 -12 -20 -20 -20 -20 -20 -20 -20 -20 -20 -20 -12 -19 5 -17
-20 -20 -20 -20 -20 -20 -20 -20 -20 -20 -20 -20 -20 -20 -20 -20 -20 -20 -20 -20 -20 -6 -15 -12 -14 -2 3 8 9 -8 -20 -11 -1 -20 -20 -20 -20 -20 -20 -20 -20 -20 -13
-20 -20 -20 -20 -20 -20 -19 -19 -20 -20 -20 -20 -20 -20 -20 -20 -20 -20 -20 -20 -17 -15 -1 0 -20 15 -4 -4 -4 15 2 -12 -20 -20 -20 -20 -20 -20 -20 -17 -3 -20 -20
-20 -20 -20 -20 -20 -20 -20 -20 -20 -20 -20 -20 -20 -20 -20 -20 -20 -20 -20 -20 -20 -20 -19 -16 10 -5 -4 -20 10 6 -20 -4 1 -16 -20 -20 -11 -19 -18 -20 -20 -20 -20
-20 -20 -20 -20 -20 -20 -20 -20 -20 -20 -20 -20 -20 -20 -20 -20 -20 -20 -20 -20 -20 -20 -20 -20 -11 -20 -20 4 -20 -18 -14 -20 -20 -8 -20 -20 -20 -20 -20 -20 -20 -20 -17
-20 -20 -20 -20 -20 -20 -20 -20 -20 -20 -20 -20 -20 -20 -20 -20 -20 -14 -12 -13 -5 -8 -20 -20 -20 -20 -20 -16 -14 -20 -20 -20 -20 -20 -20 -20 -20 -20 -20 -20 -17 -20 -19
-20 -20 -20 -20 -20 -20 -20 -20 -20 -20 -20 -20 -20 -20 -20 -20 -20 -3 -7 -1 6 -14 -20 -20 -10 -20 -20 -20 -20 -20 -20 -1 -20 -20 -20 -20 -20 -20 -20 -20 -20 -20 -20
-20 -20 -20 -20 -20 -20 -20 -20 -20 -20 -20 -20 -20 -20 -20 -20 -20 -20 -20 -20 -20 -20 -20 -20 -20 -20 -20 -20 -20 -20 -20 -1 -20 -20 -20 -20 -20 -20 -20 -20 -20 -20 -20
-20 -20 -20 -20 -20 -20 -20 -20 -20 -0 -0 -1 -20 -20 -20 -20 -20 -20 -20 -20 -20 -20 -20 -20 -20 -20 -20 -20 -20 -20 -20 -20 -20 -20 -20 -20 -20 -20 -20 -20 -20 -20 -20
-20 -20 -20 -20 -20 -20 -20 -9 -19 -14 -2 -20 -20 -20 -20 -20 -20 -20 -20 -20 -20 -20 -20 -20 -20 -20 -20 -20 -20 -20 -20 -20 -20 -20 -20 -20 -20 -20 -20 -20 -20 -20 -20
-20 -20 -20 -20 -20 -20 -7 -20 -16 -5 4 4 -20 -20 -20 -20 -20 -20 -20 -20 -20 -20 -20 -20 -20 -20 -20 -20 -20 -20 -20 -20 -20 -20 -20 -20 -20 -20 -19 -19 -20 -20 -20
-20 -20 -20 -20 -20 4 -10 -17 -3 -18 1 3 -20 -20 -20 -20 -20 -20 -20 -20 -20 -20 -20 -20 -20 -20 -20 -20 -20 -20 -20 -20 -20 -20 -20 -20 -20 -20 -20 -20 -20 -20 -20
-20 -20 -20 -20 -17 1 7 -20 -20 -2 10 11 7 -20 -20 -20 -20 -20 -20 -20 -20 -20 -20 -20 -20 -20 -20 -20 -20 -20 -20 -20 -20 -20 -20 -20 -20 -20 -20 -20 -20 -20 -20
-20 -20 -15 -20 -20 -20 -8 -5 -3 2 7 6 -4 -7 -20 -20 -20 -20 -20 -20 -20 -20 -20 -20 -20 -20 -20 -20 -20 -20 -20 -20 -20 -20 -20 -20 -20 -20 -20 -20 -20 -20 -20
-20 -20 -20 -20 -20 -20 -20 9 5 -18 0 6 11 -2 -20 -20 -20 -20 -20 -20 -20 -20 -20 -20 -20 -20 -20 -20 -20 -20 -20 -20 -20 -20 -20 -20 -20 -20 -20 -20 -20 -20 -20
-20 -20 -20 -20 -20 -20 -20 -17 8 -17 -6 -20 -4 -6 3 -20 -20 -20 -20 -20 -20 -20 -20 -20 -20 -20 -20 -20 -20 -20 -20 -20 -20 -20 -20 -20 -20 -20 -20 -20 -20 -20 -20
-20 -20 -20 -20 -20 -20 -17 -20 -15 -0 -20 -20 -4 -20 -10 -20 -20 -20 -20 -20 -20 -20 -20 -20 -20 -20 -20 -20 -20 -20 -20 -20 -20 -20 -20 -20 -20 -20 -20 -20 -20 -20 -20

GFSGL_prec_radar_006.txt.gz
Reflectivity
-20 -20 -20 -20 -20 -20 -20 -20 -20 -16 32 10 -18 -13 -1 -20 -20 -20 -20 -20 -20 -20 -20 -20 -20 -20 -20 -20 -20 -20 -20 16 19 -19 8 -20 -20 -20 -20 -20 -20 -20 -12
-20 -20 -20 -20 -20 -20 -20 -20 -20 -20 -20 -15 -10 9 4 -20 -20 -20 -20 -20 -20 -20 -20 -20 -20 -20 -20 -20 -20 -20 -20 -20 6 -20 -19 -1 -20 -20 -20 -20 -20 -20 -1
-20 -20 -20 -20 -20 -20 3 -20 -19 -20 -15 34 -1 -13 -20 -20 -20 -20 -20 -20 -20 -20 -20 -20 -20 -20 -20 -20 -20 -20 -20 -20 -20 -18 -20 -20 -19 -20 -20 -20 -20 -20 -20
-20 -20 -20 -20 -20 -20 -20 -13 15 29 -3 -20 -14 0 -20 -20 -20 -20 -20 -20 -20 -20 -20 -20 -20 -20 -20 -20 -20 -18 -20 -20 -20 -20 -20 -20 -20 -20 -20 -20 -20 -20 -20
-20 -20 -20 -20 -20 -20 -20 -20 -20 -20 -19 -15 -17 -20 -20 -20 -20 -20 -20 -20 -20 -20 -20 -20 -20 -20 -20 -13 -1 2 -20 -19 -20 -20 -20 -20 -20 -20 -20 -20 -20 -20 -20
-20 -20 -20 -20 -20 -20 -20 -20 -20 -19 -20 -12 1 -20 -20 -20 -20 -20 -20 -20 -20 -20 -20 -20 -20 -20 -20 -20 -20 1 2 -20 -20 -10 -18 -20 -20 -20 -20 -20 -20 -20 -20
-20 -20 -20 -20 -20 -20 -20 -20 -18 -7 -20 -12 -20 -20 -20 -20 -20 -20 -20 -20 -20 -20 -20 -20 -20 -20 -20 -20 -20 -20 -20 -20 7 -8 -20 -20 -20 -20 -20 -20 -20 -20 -20
-20 -20 -20 -20 -20 -20 -20 -20 23 -14 -20 -20 -20 -20 -20 -20 -20 -20 -20 -20 -20 -20 -20 -20 -20 -20 -20 -20 -14 9 -20 -20 -20 -20 -20 -20 -20 -20 -20 -20 -20 -20 -20
-20 -20 -20 -20 -20 -20 -20 -20 -20 -20 -20 -20 -20 -20 -20 -20 -20 -20 -16 -20 -20 -20 -20 -20 -12 -20 -20 14 13 -20 -20 -20 -20 -17 11 1 7 7 -14 5 -12 4 -20
-20 -20 -20 -20 -20 -20 -20 -20 -20 -20 -20 -20 -20 -20 -20 -20 -20 -20 -7 -20 -20 -19 -20 -20 -12 3 -2 12 15 7 -18 -20 -20 -20 -20 -20 -20 -20 -20 -20 -20 -20 -9
-20 -20 -20 -20 -20 -20 -20 -20 -20 -20 -10 -20 -20 -20 -20 -20 -20 -20 -20 -20 -13 -17 -20 -13 -20 -11 4 0 3 -16 1 -7 -9 4 -20 -20 -20 -20 -20 -20 -20 -20 -20
-20 -20 -20 -20 -20 -20 -20 -20 -20 -20 -20 -20 -20 -20 -20 -20 -20 -20 -20 -3 3 -20 -11 -16 -20 4 8 7 2 8 -2 -20 -20 -20 -20 -20 -20 -20 -20 -20 -20 -20 -20
-20 -20 -20 -20 -20 -20 -20 -20 -20 -20 -20 -20 -20 -20 -20 -20 -20 -20 -20 -20 -20 -20 -7 -2 -7 -5 -18 -11 1 5 -20 -20 -20 -20 -20 -19 -17 -20 -20 -20 -20 -20 -20
-20 -20 -20 -20 -20 -20 -20 -20 -20 -20 -20 -20 -20 -20 -20 -20 -20 -20 -20 -20 -13 -20 -20 -20 -20 -20 -20 -15 -20 -20 -20 -20 -20 -20 -20 -20 -20 -20 -20 -20 -20 -20 -20
-20 -20 -20 -20 -20 -20 -20 -20 -20 -20 -20 -20 -20 -20 -20 -20 -20 -20 -18 -20 -9 -20 -20 -20 -20 -20 -20 -20 -20 -20 -20 -20 -20 -20 -20 -20 -20 -20 -20 -19 -20 -20 -20
-20 -15 -14 -20 -20 -20 -20 -20 -20 -20 -20 -20 -20 -20 -20 -20 -20 -11 -19 -20 -20 -20 -20 -20 -20 -20 -20 -20 -20 -20 -20 -20 -20 -20 -20 -20 -20 -20 -20 -20 -20 -20 -20
-19 3 -6 -20 -20 -20 -20 -20 -20 -20 -20 -20 -20 -20 -20 -20 -20 -20 -20 -20 -20 -20 -20 -20 -20 -20 -20 -20 -20 -20 -20 -20 -20 -20 -20 -20 -20 -20 -20 -20 -20 -20 -20
-20 -18 -20 -20 -20 -20 -20 -20 -20 -20 -20 -20 -20 -20 -20 -20 -20 -20 -20 -20 -20 -20 -20 -20 -20 -20 -20 -20 -20 -20 -20 -20 -20 -20 -20 -20 -20 -20 -20 -20 -20 -20 -20
-20 -20 -20 -20 -20 -20 -20 -20 -20 -20 -20 -20 -20 -9 -20 -20 -20 -20 -20 -20 -20 -20 -20 -20 -20 -20 -20 -20 -20 -20 -20 -20 -20 -20 -20 -20 -20 -20 -20 -20 -20 -20 -20
-20 2 -20 -20 -20 -20 -20 -20 -20 -20 -20 -20 -20 -20 -20 -20 -20 -20 -20 -20 -20 -20 -20 -20 -20 -20 -20 -20 -20 -20 -20 -20 -20 -20 -20 -20 -20 -20 -20 -20 -20 -20 -20
-20 -20 -0 -18 -19 -20 -20 -19 -1 -20 -20 -20 -20 -20 -20 -20 -20 -20 -20 -20 -20 -20 -20 -20 -20 -20 -20 -20 -20 -20 -20 -20 -20 -20 -20 -20 -20 -20 -20 -20 -20 -20 -20
-20 -20 -20 -20 -20 -20 -20 -20 -20 -20 -20 -20 -20 -20 -20 -20 -20 -20 -20 -20 -20 -20 -20 -20 -20 -20 -20 -20 -20 -20 -20 -20 -20 -20 -20 -20 -20 -20 -20 -20 -20 -20 -20
-20 -20 -20 -20 -20 -20 -20 -20 9 -14 -20 -20 -20 -20 -20 -20 -20 -20 -20 -20 -20 -20 -20 -20 -20 -20 -20 -20 -20 -20 -20 -20 -20 -20 -20 -20 -20 -20 -20 -20 -20 -20 -20
-20 -20 -20 -20 -20 -20 -20 -20 -7 -16 -20 -20 -20 -20 -20 -19 -20 -20 -20 -20 -20 -20 -20 -20 -20 -20 -20 -20 -20 -20 -20 -20 -20 -20 -20 -20 -20 -20 -20 -20 -20 -20 -20
-20 -20 -20 -20 -20 -20 -20 -20 -16 4 -20 -20 -20 -20 -20 -20 -20 -20 -20 -20 -20 -20 -20 -20 -20 -20 -20 -20 -20 -20 -20 -20 -20 -20 -20 -20 -20 -20 -20 -20 -20 -20 -20
-20 -20 -20 -20 -20 -20 -20 -20 -20 -15 -20 -10 -20 -20 -20 -20 -20 -20 -20 -20 -20 -20 -20 -20 -20 -20 -20 -20 -20 -20 -20 -20 -20 -20 -20 -20 -20 -20 -20 -20 -20 -20 -20

GFSGL_prec_radar_009.txt.gz
Reflectivity
-20 -20 -20 -20 -20 -20 -20 -20 -20 -20 -19 -17 -20 -20 9 -9 -7 -4 -20 -20 -20 -20 -20 -20 -20 -20 -20 -20 -20 -20 -20 -20 -20 -20 -19 -20 -20 -5 12 -4 -20 -20 -20
-20 -20 -20 -20 -20 -20 -20 -20 -20 -20 -18 -19 -20 -20 10 -15 -20 -20 -20 -20 -20 -20 -20 -20 -20 -20 -20 -20 -20 -20 -20 -20 -20 -20 -20 -20 -20 -20 4 12 -17 -20 -20
-20 -20 -20 -20 -20 -20 -20 -20 -20 -20 -20 -20 -20 -20 -20 -20 -20 -20 -20 -20 -20 -20 -20 -20 -20 -20 -20 -20 -20 -20 -20 -20 -20 -20 -20 -20 -20 -20 -20 -20 -16 -20 -20
-20 -20 -20 -20 -20 -20 -20 -20 -20 -20 -20 -20 -20 -20 -20 -17 -20 -20 -20 -20 -20 -20 -20 -20 -20 -20 -20 -20 -20 4 8 8 -11 -19 -20 -20 -20 -20 -20 -20 -20 -20 -20
-20 -20 -20 -20 -20 -20 -20 -20 -20 -20 -16 -20 -20 -20 -20 -20 -20 -20 -20 -20 -20 -20 -20 -20 -20 -20 -20 -20 -6 -6 -4 6 -19 2 1 -19 -20 -20 -20 -20 -20 -20 -20
-20 -20 -20 -20 -20 -20 -20 -20 -20 -18 -17 -20 -20 -20 -20 -20 -20 -20 -20 -20 -20 -20 -20 -20 -20 -20 -20 -20 -13 8 9 11 11 -20 -17 -16 -13 -20 -20 -20 -20 -20 -20
-20 -20 -20 -20 -20 -20 -20 -20 -20 -20 -19 -20 -20 -20 -20 -20 -20 -20 -20 -20 -20 -20 -20 -20 -20 -20 -20 -19 -20 -20 -20 -17 15 12 12 -10 -20 -20 -20 -20 -20 -20 -20
-20 -20 -20 -20 -20 -20 -20 -20 -20 -20 -20 -20 -20 -20 -20 -20 -20 -20 -20 -20 -20 -20 -20 -20 -7 -14 -8 5 7 -7 -12 -20 -20 -20 -9 -12 -20 -20 -20 -20 -20 -20 -20
-20 -20 -20 -20 -20 -20 -20 -20 -20 -20 -20 -20 -20 -20 -20 -20 -20 -20 -20 -20 -20 -20 -20 -20 -5 -4 -11 10 14 5 3 -20 -20 -20 -20 -20 -1 -9 11 -14 -15 1 -20
-20 -20 -20 -20 -20 -20 -20 -20 -20 -20 -20 -20 -20 -20 -20 -20 -20 -20 -20 -20 -20 -20 -20 -20 -20 2 11 6 2 -20 -20 -20 -20 -20 -20 -20 -20 -20 -20 -20 -20 -4 -3
-20 -20 -20 -20 -20 -20 -20 -20 -20 -20 -20 -20 -20 -20 -20 -20 -20 -20 -20 -20 -18 -20 -20 -16 -20 4 8 10 4 -8 11 4 -18 -20 -20 -20 -20 -20 -20 -20 -20 -20 -20
-20 -20 -20 -20 -20 -20 -20 -20 -20 -20 -20 -20 -20 -20 -20 -20 -20 -20 -20 -20 -2 -20 -20 -20 -17 2 4 6 -10 12 7 -20 -20 -20 -20 -20 -20 -20 -20 -20 -20 -20 -20
-20 -20 -20 -20 -20 -20 -20 -20 -20 -20 -20 -20 -20 -20 -20 -20 -20 -20 -20 -20 -20 -20 -20 -2 -7 -20 -19 -20 -12 -4 -20 -20 -20 -20 -20 -20 -20 -20 -20 -20 -20 -20 -20
-20 -20 -20 -19 -20 -20 -20 -20 -20 -20 -20 -20 -20 -20 -20 -20 -20 -20 -20 -20 -20 -20 -20 -20 -20 -20 -20 -20 -20 -20 -20 -20 -20 -20 -20 -20 -20 -20 -20 -13 -20 -20 -20
-20 -20 -20 -20 -20 -20 -20 -20 -20 -20 -20 -20 -20 -20 -20 -20 -20 -20 -12 -20 -20 -20 -20 -20 -20 -20 -20 -20 -20 -20 -20 -20 -20 -20 -20 -20 -20 -17 -5 -1 -4 -16 -20
-20 -20 -19 8 -20 -20 -20 -20 -20 -20 -20 -20 -20 -20 -20 -20 -20 -20 -19 -20 -20 -20 -20 -20 -20 -20 -20 -20 -20 -20 -20 -20 -20 -20 -20 -20 -20 -20 -20 -20 -20 -20 -20
-20 -20 -20 12 -19 -20 -20 -20 -20 -20 -20 -20 -20 -20 -20 -20 -20 -20 -20 -20 -20 -20 -20 -20 -20 -20 -20 -20 -20 -20 -20 -20 -20 -20 -20 -20 -20 -20 -20 -20 -20 -20 -20
-11 -20 -17 -18 -20 -20 -20 -20 -20 -20 -20 -20 -20 -20 -20 -20 -20 -20 -20 -20 -20 -20 -20 -20 -20 -20 -20 -20 -20 -20 -20 -20 -20 -20 -20 -20 -20 -20 -20 -20 -20 -20 -20
-8 -20 -20 -20 -20 -20 -20 -20 -20 -20 -20 -20 -20 -20 -10 -20 -20 -20 -20 -20 -20 -20 -20 -20 -20 -20 -20 -20 -20 -20 -20 -20 -20 -20 -20 -20 -20 -20 -20 -20 -20 -20 -20
-6 8 -1 -19 -20 -20 -20 -20 -20 -20 -20 -20 -20 -20 -20 -20 -20 -20 -20 -20 -20 -20 -20 -20 -20 -20 -20 -20 -20 -20 -20 -20 -20 -20 -20 -20 -20 -20 -20 -20 -20 -20 -20
2 -14 -10 -20 -20 -20 -20 -20 -20 -20 -20 -20 -20 -20 -20 -20 -20 -20 -20 -20 -20 -20 -20 -20 -20 -20 -20 -20 -20 -20 -20 -20 -20 -20 -20 -20 -20 -20 -20 -20 -20 -20 -20
-19 -19 -20 -20 -20 -20 -20 -20 -20 -20 -20 -20 -20 -20 -20 -20 -20 -20 -20 -20 -20 -20 -20 -20 -20 -20 -20 -20 -20 -20 -20 -20 -20 -20 -20 -20 -20 -20 -20 -20 -20 -20 -20
-20 -20 -16 -20 -20 -20 -20 -20 -20 -20 -17 -20 -20 -20 -20 -20 -20 -16 -20 -20 -20 -20 -20 -20 -20 -20 -20 -20 -20 -20 -20 -20 -20 -20 -20 -20 -20 -20 -20 -20 -20 -20 -20
-20 -18 -13 -20 -20 -20 -20 -20 -20 -20 -20 -20 -20 -20 -20 -20 -20 -20 -20 -20 -20 -20 -20 -20 -20 -20 -20 -20 -20 -20 -20 -20 -20 -20 -20 -20 -20 -20 -20 -20 -20 -20 -20
-20 -20 -19 -20 -20 -20 -20 -20 -20 -20 -20 -20 -20 -20 -20 -20 -20 -20 -20 -20 -20 -20 -20 -20 -20 -20 -20 -20 -20 -20 -20 -20 -20 -20 -20 -20 -20 -20 -20 -20 -20 -20 -20
-20 -19 -19 -17 -18 -19 -20 -20 -20 -20 -20 -20 -20 -20 -20 -20 -20 -20 -20 -20 -20 -20 -20 -20 -20 -20 -20 -20 -20 -20 -20 -20 -20 -20 -20 -20 -20 -20 -20 -20 -20 -20 -20

GFSGL_prec_radar_012.txt.gz
Reflectivity
-20 -20 -20 -20 -20 -20 -20 -20 -20 -20 -20 -20 -20 -20 -20 -20 -20 -20 -20 -20 -20 -20 -20 -20 -20 -20 -20 -20 -20 -20 -20 -20 -20 -20 -20 -20 -20 -20 -20 -20 -1 -16 -20
-20 -20 -20 -20 -20 -20 -20 -20 -20 -20 -20 -20 -20 -20 -20 -20 -20 -20 -20 -20 -20 -20 -20 -20 -20 -20 -20 -20 -20 -20 -20 -20 -20 -20 -20 -20 -20 -19 -20 -20 -20 8 -12
-20 -20 -20 -20 -20 -20 -20 -20 -20 -20 -20 -20 -20 -5 -20 -20 -20 -20 -20 -20 -20 -20 -20 -20 -20 -20 -20 -20 -20 -20 -20 -20 -12 13 2 -20 -20 2 -19 -20 -20 -20 7
-20 -20 -20 -20 -20 -20 -20 -20 -20 -20 -20 -20 -19 -20 -20 -20 -20 -20 -20 -20 -20 -20 -20 -20 -20 -20 -20 -20 -20 -20 -9 -11 -20 4 5 -20 -20 -20 -15 -20 -20 -20 -20
-20 -20 -20 -20 -20 -20 -20 -20 -20 -20 -4 -20 -20 -20 -20 -20 -20 -20 -20 -20 -20 -20 -20 -20 -20 -20 7 2 -1 -6 -1 3 -18 13 -3 -17 6 12 -19 -19 -20 -20 -20
-20 -20 -20 -20 -20 -20 -20 -20 -20 -20 -20 -20 -20 -20 -20 -20 -20 -20 -20 -20 -20 -20 -20 -20 -20 -20 -20 -4 -4 3 7 7 5 14 -20 2 -20 -20 2 13 -9 -20 -20
-20 -20 -20 -20 -20 -20 -20 -20 -20 -20 -20 -20 -20 -20 -20 -20 -20 -20 -20 -20 -20 -20 -20 -20 -20 -20 -20 -20 -20 -10 -6 3 7 16 7 0 14 -12 -20 -20 -20 -20 -20
-20 -20 -20 -20 -20 -20 -20 -20 -20 -20 -20 -20 -20 -20 -20 -20 -20 -20 -20 -20 -20 -20 -20 -20 -20 -20 -20 1 -6 10 -11 -20 -20 -20 -20 -20 -17 -20 -20 -20 -20 -20 -20
-20 -20 -20 -20 -20 -20 -20 -20 -20 -20 -20 -20 -20 -20 -20 -20 -20 -20 -20 -20 -20 -20 -20 -20 -13 -19 -20 12 -7 2 -3 -20 -17 -12 4 -3 -17 -18 0 2 -20 -1 -18
-20 -20 -20 -20 -20 -20 -20 -20 -20 -20 -20 -20 -20 -20 -20 -20 -20 -20 -20 -20 -20 -20 -20 -20 -20 -0 7 9 10 -19 -17 5 -1 5 -20 -20 -20 -20 -20 -20 -20 3 11
-20 -20 -20 -20 -20 -20 -20 -20 -20 -20 -20 -20 -20 -20 -20 -20 -20 -20 -20 -20 -20 -20 -20 -20 -20 -6 0 2 8 -12 14 -2 -20 -20 -18 -20 -20 -20 -20 -20 -20 -20 -20
-20 -20 -20 -20 -20 -20 -20 -20 -20 -20 -20 -20 -20 -20 -20 -20 -20 -20 -20 -20 -20 -20 -20 -20 -20 -1 -20 -15 -15 6 0 -20 -20 -20 -20 -20 -20 -20 -20 -20 -20 -20 -20
-20 -20 -20 -20 -20 -20 -20 -20 -20 -20 -20 -20 -20 -20 -20 -20 -20 -20 -20 -20 -20 -20 -20 -20 -20 -20 -20 -20 -20 -19 -20 -20 -20 -20 -20 -20 -20 -20 -20 -10 -20 -20 -20
-20 -20 -20 -20 -20 -20 -20 -20 -20 -20 -20 -20 -20 -20 -20 -20 -20 -20 -20 -20 -20 -20 -20 -20 -20 -20 -20 -20 -20 -20 -20 -20 -20 -20 -20 -20 -20 -19 -14 -19 -20 -20 -20
-20 -20 -20 -20 -20 -20 -20 -20 -20 -20 -20 -20 -20 -20 -20 -20 -20 -20 -20 -20 -20 -20 -20 -20 -20 -20 -20 -20 -20 -20 -20 -20 -20 -20 -20 -20 -20 -20 -6 7 6 2 -12
-20 -20 -16 -19 -20 -19 -20 -20 -20 -20 -20 -20 -20 -20 -20 -20 -20 -20 -20 -20 -20 -20 -20 -20 -20 -20 -20 -20 -20 -20 -20 -20 -20 -20 -20 -20 -20 -20 -20 -20 -16 -5 2
-20 -20 -20 -20 -18 -18 -20 -20 -20 -20 -20 -20 -20 -20 -20 -20 -20 -20 -20 -20 -20 -20 -20 -20 -20 -20 -20 -20 -20 -20 -20 -20 -20 -20 -20 -20 -20 -20 -20 -20 -20 -20 -20
-13 9 -6 -20 -18 -17 -20 -20 -20 -20 -20 -20 -20 -20 -20 -20 -20 -20 -20 -20 -20 -20 -20 -20 -20 -20 -20 -20 -20 -20 -20 -20 -20 -20 -20 -20 -20 -20 -20 -20 -20 -20 -20
-20 -18 -19 -19 -20 -12 -20 -20 -20 -20 -20 -20 -20 -20 -16 -20 -20 -20 -20 -20 -20 -20 -20 -20 -20 -20 -20 -20 -20 -20 -20 -20 -20 -20 -20 -20 -20 -20 -20 -20 -20 -20 -20
-19 -10 -8 -20 -20 -20 -20 -20 -20 -20 -15 -20 -20 -20 -20 -14 -20 -20 -20 -20 -20 -20 -20 -20 -20 -20 -20 -20 -20 -20 -20 -20 -20 -20 -20 -20 -20 -20 -20 -20 -20 -20 -20
-20 -20 -15 -10 -20 -20 -20 -20 -20 -20 -20 -20 -20 -20 -20 -20 -20 -20 -20 -20 -20 -20 -20 -20 -20 -20 -20 -20 -20 -20 -20 -20 -20 -20 -20 -20 -20 -20 -20 -20 -20 -20 -20
-20 -14 -20 -20 -15 -14 -20 -20 -20 -20 -20 -20 -20 -20 -20 -20 -20 -20 -20 -20 -20 -20 -20 -20 -20 -20 -20 -20 -20 -20 -20 -20 -20 -20 -20 -20 -20 -20 -20 -20 -20 -20 -20
-20 -20 -12 -19 -17 -18 -18 -20 -20 -20 -20 -20 -20 -20 -20 -20 -20 -20 -20 -20 -20 -20 -20 -20 -20 -20 -20 -20 -20 -20 -20 -20 -20 -20 -20 -20 -20 -20 -20 -20 -20 -20 -20
-3 -20 -20 -20 -18 -20 -20 -20 -20 -20 -20 -20 -20 -20 -20 -20 -20 -20 -20 -20 -20 -20 -20 -20 -20 -20 -20 -20 -20 -20 -20 -20 -20 -20 -20 -20 -20 -20 -20 -20 -20 -20 -20
4 -4 -20 -19 -20 -20 -20 -20 -20 -20 -20 -20 -20 -20 -20 -20 -20 -20 -20 -20 -20 -20 -20 -20 -20 -20 -20 -20 -20 -20 -20 -20 -20 -20 -20 -20 -20 -20 -20 -20 -20 -20 -20
-18 1 -17 -19 -20 -14 3 -10 -15 -16 -14 -18 -2 4 -19 -20 -20 -20 -20 -20 -20 -20 -20 -20 -20 -20 -20 -20 -20 -20 -20 -20 -20 -20 -20 -20 -20 -20 -20 -20 -20 -20 -20

GFSGL_prec_radar_015.txt.gz
Reflectivity
-19 -16 -20 -20 -20 -20 -20 -20 -20 -20 -20 -20 -20 -20 -20 -20 -20 -9 -20 -20 -20 -20 -20 -20 -20 -20 -20 -20 -20 -20 -20 -20 -20 -20 -20 -20 -20 -20 -20 -20 -20 0 -7
11 -10 -20 -20 -20 -20 -20 -20 -20 -20 -20 -20 -20 -20 -20 -20 -19 -20 -20 -20 -20 -20 -20 -20 -20 -20 -20 -20 -20 -20 -20 -20 2 -18 -19 2 3 6 0 -20 4 -20 -1
-20 -20 -20 -20 -20 -20 -20 -20 -20 -20 -20 -20 -20 -20 -12 -14 -20 -20 -20 -20 -20 -20 -20 -20 -20 -20 -20 -20 -20 -5 1 2 2 7 -2 -16 -20 4 8 -2 -13 17 -20
-20 -20 -20 -20 -20 -20 -20 -20 -20 -20 -20 -12 -20 -6 -11 -20 -20 -20 -20 -20 -20 -20 -20 -20 -20 -20 -20 -17 2 10 0 6 4 -3 4 2 3 -20 9 10 11 14 -20
-20 -20 -20 -20 -20 -20 -20 -20 -20 -20 -20 8 -12 -20 -20 -20 -20 -20 -20 -20 -20 -20 -20 -20 -20 -20 -20 -19 -2 -1 3 5 9 9 5 6 8 2 10 11 11 15 -20
-20 -20 -20 -20 -20 -20 -20 -20 -20 -20 -20 -20 -20 -20 -20 -20 -20 -20 -20 -20 -20 -20 -20 -20 -20 -20 -20 -20 -20 -3 -3 7 12 13 18 9 -19 5 4 15 13 5 11
-20 -20 -20 -20 -20 -20 -20 -20 -20 -20 -20 -20 -20 -20 -20 -20 -20 -20 -20 -20 -20 -20 -20 -20 -20 -20 -20 -3 -10 -17 8 9 8 11 16 11 9 7 9 10 9 4 2
-20 -20 -20 -20 -20 -20 -20 -20 -20 -20 -20 -20 -20 -20 -20 -20 -20 -20 -20 -20 -20 -20 -20 -20 -20 -12 -3 1 11 7 3 2 4 11 16 15 10 10 9 12 11 4 -10
-20 -20 -20 -20 -20 -20 -20 -20 -20 -20 -20 -20 -20 -20 -20 -20 -20 -20 -20 -20 -20 -20 -20 -20 -20 -9 0 8 8 9 2 -4 2 -1 9 13 12 9 8 7 12 14 4
-20 -20 -20 -20 -20 -20 -20 -20 -20 -20 -20 -20 -20 -20 -20 -20 -20 -20 -20 -20 -20 -20 -20 -20 -20 2 3 2 -2 6 3 8 4 5 4 7 4 7 0 6 4 9 17
-20 -20 -20 -20 -20 -20 -20 -20 -20 -20 -20 -20 -20 -20 -20 -20 -20 -20 -20 -20 -20 -20 -20 -20 -20 -1 -7 -20 -17 1 8 5 3 5 5 5 4 4 6 5 5 4 7
-20 -20 -20 -20 -20 -20 -20 -20 -20 -20 -20 -20 -20 -20 -20 -20 -20 -20 -20 -20 -20 -20 -20 -20 -18 -20 -20 -20 -20 -10 -20 -11 4 3 4 4 4 5 3 7 8 6 2
-20 -20 -20 -20 -20 -20 -20 -20 -20 -20 -20 -20 -20 -20 -20 -20 -20 -20 -20 -20 -20 -20 -20 -20 -20 -20 -20 -20 -20 -20 -20 -15 -1 1 -0 -1 -4 -3 -2 3 9 6 5
-20 -20 -20 -20 -20 -20 -20 -20 -20 -20 -20 -20 -20 -20 -20 -20 -20 -20 -20 -20 -20 -20 -20 -20 -20 -20 -20 -20 -20 -20 -20 -20 -20 0 -4 -18 -6 1 8 15 11 11 8
-20 -20 -20 -20 -20 -17 -20 -20 -20 -20 -20 -20 -20 -20 -20 -20 -20 -20 -20 -13 -20 -20 -20 -20 -20 -20 -20 -20 -20 -20 -20 -20 -20 -20 -5 -20 -20 -20 -7 3 8 12 10
-20 -20 -20 -20 -20 1 -13 -20 -20 -20 -20 -20 -20 -20 -20 -20 -20 -20 -20 -20 -20 -20 -20 -20 -20 -20 -20 -20 -20 -20 -20 -20 -20 -20 -20 -20 -20 -9 -6 -8 -7 5 8
-20 -20 -20 -20 -20 -20 -20 -20 -20 -20 -20 -20 -20 -20 -20 -20 -20 -20 -20 -20 -20 -20 -20 -20 -20 -20 -20 -20 -20 -20 -20 -20 -20 -20 -20 -20 -20 -20 0 -1 0 -2 -20
-20 -20 -20 -20 -20 -20 -20 -18 -20 -18 -20 -20 -20 -20 -20 -20 -20 -20 -20 -20 -20 -20 -20 -20 -20 -20 -20 -20 -20 -20 -20 -20 -20 -20 -20 -20 -20 -20 -1 -1 -5 -5 -1
-20 -20 -14 -20 -20 -20 -20 -20 -20 -18 -20 -20 -20 -20 -20 -20 -20 -16 7 -10 -20 -20 -20 -20 -20 -20 -20 -20 -20 -20 -20 -20 -20 -20 -20 -20 -20 -20 -20 -20 -4 -20 -20
-20 -20 -17 -20 -20 -20 -19 -20 -20 -20 -20 -20 5 -11 -20 -20 -20 -20 -20 -20 -20 -20 -20 -20 -20 -20 -20 -20 -20 -20 -20 -20 -20 -20 -20 -20 -20 -20 -20 -20 -20 -20 -20
-19 -8 -20 -4 -3 -20 -20 -20 -20 -20 -20 -20 -20 -20 -20 -20 -20 -20 -20 -20 -20 -20 -20 -20 -20 -20 -20 -20 -20 -20 -20 -20 -20 -20 -20 -20 -20 -20 -20 -20 -20 -20 -20
-20 -20 -20 -5 -3 -16 -19 -13 -20 -20 -20 -20 -20 -20 -20 -20 -20 -20 -20 -20 -20 -20 -20 -20 -20 -20 -20 -20 -20 -20 -20 -20 -20 -20 -20 -20 -20 -20 -20 -20 -20 -20 -20
-20 -15 -16 -11 -10 -20 -16 -5 -20 -20 -20 -20 -20 -20 -20 -20 -20 -20 -20 -20 -20 -20 -20 -20 -20 -20 -20 -20 -20 -20 -20 -20 -20 -20 -20 -20 -20 -12 -20 -20 -20 -20 -20
-20 -19 -11 0 -0 -19 -18 -18 -20 -20 -20 -20 -20 -20 -20 -20 -20 -20 -20 -20 -20 -20 -20 -20 -20 -20 -20 -20 -20 -20 -20 -20 -20 -20 -20 -20 -20 -20 -20 -20 -20 -20 -20
-18 5 9 12 13 -2 -17 -20 -19 -20 -19 -20 -19 -19 -20 -20 -20 -20 -20 -20 -20 -20 -20 -20 -20 -20 -20 -20 -20 -20 -20 -20 -20 -20 -20 -20 -20 -20 -20 -20 -20 -20 -20
-2 5 14 13 13 9 5 4 3 4 5 3 -1 -12 -12 -18 -11 -16 -20 -5 -20 -20 -20 -20 -20 -20 -20 -20 -20 -20 -20 -20 -20 -20 -20 -20 -20 -20 -20 -20 -20 -20 -20

GFSGL_prec_radar_021.txt.gz
Reflectivity
-20 -20 -17 -20 -6 -20 -20 -20 -20 -20 -20 -20 -20 -20 -20 -20 -20 -20 1 16 16 15 8 -17 -20 -17 -18 -8 -20 -20 -20 -10 9 -20 -20 -20 -20 -20 -20 -20 -20 -20 -20
-20 -20 -20 2 -20 -20 -20 -20 -20 -20 -20 -20 -20 -20 -20 -20 -20 -20 6 17 -18 17 -19 -20 14 -19 -19 -20 -20 -20 -20 -20 -20 -20 -20 -20 -20 -20 -20 -20 -20 -20 -20
-20 -16 -4 -20 -20 -20 -20 -20 -20 -20 -20 -20 -20 -20 -20 -20 -20 -20 -20 -19 -20 -20 -20 -19 -20 -20 -20 -20 -20 -20 -20 -20 -20 -20 -15 -11 -20 -20 -19 -20 -20 -20 -20
-17 -4 -20 -20 -20 -20 -20 -20 -20 -20 -20 -20 -20 -20 -20 -20 -4 -20 -20 -20 -19 3 -20 -20 -20 -20 -20 -20 -20 -20 -20 -20 -20 -20 -7 -20 -13 -20 -10 11 14 -5 -7
-18 -20 -20 -20 -20 -20 -20 -20 -20 -20 -20 -20 -20 -20 -20 18 -20 -20 -20 12 2 5 -20 -20 -20 -20 -20 -20 -20 -20 -20 -16 -10 1 -2 6 1 -8 15 7 15 4 -20
-20 -20 -20 -20 -20 -20 -20 -20 -20 -20 -20 -20 -20 -20 -20 -0 -20 -20 -20 -20 -20 -20 -20 -20 -20 -20 -20 -20 -20 -20 -20 -4 5 14 11 -11 -20 7 11 16 16 13 -20
-20 -10 -18 -7 -10 -20 -20 -20 -20 -20 -20 -20 -20 -20 -20 2 -20 -20 -20 -20 -20 -20 -20 -20 -20 -20 -20 -20 -20 -20 -20 -20 -20 -18 8 9 10 12 2 12 12 16 14
-16 -1 10 -20 -20 -20 -20 -20 -20 -20 -20 -20 -20 -20 -20 -20 -20 -20 -20 -20 -20 -20 -20 -20 -20 -20 -20 -20 -20 -20 -20 -20 -20 -19 -17 -16 -9 -19 -12 -4 -6 2 -2
-6 -10 -20 -20 -6 -5 -20 -20 -20 -20 -20 -20 -20 -20 -20 -20 -20 -20 -20 -20 -20 -20 -20 -20 -20 -20 -20 -20 -20 -20 -20 -20 -20 -20 -20 -20 -20 -20 -20 11 -8 8 6
-13 -18 5 6 -8 -7 -18 -20 -20 -20 -20 -20 -20 -20 -20 -19 -20 -20 -20 -20 -20 -20 -20 -20 -20 -20 -20 -20 -20 -20 -20 -20 -20 -20 -20 -20 -3 -15 -18 -15 6 14 13
17 6 9 7 5 -4 -11 -20 -6 -20 -20 -20 -20 -20 -12 -20 -15 -20 -20 -20 -16 -20 -20 -20 -20 -20 -20 -20 -20 -20 -12 -20 -20 -1 8 -2 -6 11 15 16 12 13 17
16 18 12 8 2 -15 -5 8 -6 -20 -2 -20 -12 -13 6 -6 -20 -20 -20 -20 -20 -20 -20 -18 -20 -20 -20 -20 -20 -20 -20 -20 -17 -1 9 8 6 5 5 8 -4 4 13
15 13 12 4 -6 8 4 -4 -20 -20 -20 1 -19 -17 -20 15 17 -20 -20 -20 -20 -20 -19 -19 -20 -20 -20 -20 -20 -20 -20 -20 -20 1 6 6 3 4 5 15 18 17 -14
15 7 1 6 4 1 5 -1 -11 -3 2 -20 -7 -20 7 10 5 9 -19 -20 -19 -20 -16 2 -20 -20 -20 -20 -17 -20 -20 -20 -20 -18 -10 6 6 4 6 4 13 9 18
5 8 6 5 1 -0 -18 -20 -17 -20 2 3 -5 -1 16 -9 -1 -7 1 11 11 1 -20 -20 -1 5 1 1 -1 -3 -5 -20 -20 -20 -3 4 4 3 2 -10 8 7 25
7 4 6 2 -14 -17 -10 -20 -20 -20 -20 -20 -20 -20 -20 -20 -20 -20 -20 -20 -20 -20 -20 -4 3 9 7 5 2 -0 -3 -5 -20 -20 -15 -3 2 4 4 7 5 4 9
-3 -18 -20 -20 -20 -15 -8 3 3 -9 -20 -20 -20 -20 -20 -20 -20 -20 -20 -20 -20 -20 -4 -1 7 7 7 3 -0 -4 -20 -20 -20 -2 -20 -1 -2 -3 -15 8 4 6 -3
-20 -20 -20 -20 -10 -18 4 10 11 10 15 15 -14 -20 -19 -20 -20 -20 -20 -20 7 -6 -1 0 3 5 5 1 -3 -3 -1 2 1 -18 -2 2 1 -3 1 -0 5 5 1
-20 -20 -20 -1 -7 -2 3 3 6 11 9 11 -4 -14 -20 -20 -20 -20 -20 3 6 6 7 9 12 6 -8 1 1 2 4 1 1 -1 -0 0 3 3 -4 -6 0 0 -20
-20 -20 -20 -20 -20 -20 -12 8 11 15 14 10 15 10 -20 -16 -4 2 3 12 8 7 1 4 5 1 2 1 5 6 4 8 3 2 -1 2 0 2 3 -20 -3 -1 -3
-18 -20 -13 -12 6 10 13 -4 12 14 13 10 7 15 -5 -18 10 13 12 12 -0 7 9 -0 7 2 10 -7 2 4 4 2 4 -1 0 -1 -20 -3 2 2 -20 -20 -16
-20 -20 -6 4 8 12 15 14 7 -15 10 11 10 13 14 -19 -16 3 6 9 8 9 -12 9 9 11 9 1 -2 6 -6 -4 4 4 4 -5 -17 -0 5 4 1 -20 -20
-8 7 8 4 12 -11 5 -3 17 16 15 14 15 16 20 19 -4 1 -14 -20 -9 9 -19 -20 -9 -15 10 7 -11 -1 1 3 3 2 -2 -1 -2 3 2 6 1 -2 -20
1 6 5 1 -19 7 13 14 18 12 14 14 13 9 12 13 15 10 6 9 9 2 5 10 -3 -20 -20 3 -20 -8 -3 -3 -11 -6 -20 -9 -17 1 3 2 -3 -3 -9
26 -8 3 -2 11 14 9 19 15 13 15 12 11 14 15 16 14 12 12 13 8 4 2 10 19 -14 3 -2 -20 -20 -6 -20 -20 -20 -17 -10 -11 -6 -16 -0 -3 -19 4
4 25 19 13 15 10 12 11 0 6 7 8 8 9 13 16 13 11 15 14 6 7 12 1 7 -3 4 13 -19 -20 -20 -20 -20 -20 -20 -5 -2 -2 3 1 -4 -20 -1

GFSGL_prec_radar_024.txt.gz
Reflectivity
-20 -20 -20 -20 -18 -18 -20 -20 -20 -20 -20 -20 -20 -20 -20 -20 -20 -20 -20 -20 -20 -20 -20 -7 -3 24 -14 -20 -20 -20 -20 -20 -20 -20 -20 -20 -20 -20 -20 -20 -20 -20 -20
-20 -20 -20 -20 -4 -20 -20 -20 -20 -20 -20 -20 -20 -20 -20 -20 -20 -20 -20 -20 -20 -20 -19 -20 -17 -16 -20 -20 -20 -20 -20 -20 -20 -20 -20 -20 -20 -20 -20 -20 -20 -20 -20
-20 -20 -20 -20 -7 2 -20 -20 -20 -20 -20 -20 -20 -20 -20 -20 -20 -20 -20 -20 -20 -20 -20 -20 -20 -20 -20 -20 -20 -20 -20 -20 -20 -20 -20 -20 -20 -20 -20 -20 -20 -20 -20
-20 -20 -20 -19 -7 -20 -20 -20 -20 -18 -20 -20 -20 -20 -20 -20 -20 -20 -20 -20 -20 -20 -20 -20 -20 -20 -20 -20 -20 -20 -20 -20 -20 -20 -20 -20 -20 -20 -17 -4 -20 -20 -20
-20 -20 -20 -15 -18 10 -20 -20 -17 -20 -20 -20 -20 -20 -20 -20 -20 -15 -20 -20 -20 -20 -20 -20 -20 -20 -20 -20 -20 -20 -20 -20 -20 -20 -20 -20 -20 -20 -20 -20 2 -20 -20
-20 -20 -15 2 13 -19 11 -20 -20 -20 -20 -20 -20 -20 -20 -20 -5 -15 -20 -20 -20 -20 -20 -20 -20 -20 -20 -20 -20 -20 -20 -20 -20 -20 -20 -17 -20 3 -0 -15 -20 -20 -0
-20 -17 -9 11 -19 17 -6 -20 -15 -8 -17 -16 -20 -20 -20 -10 -6 -20 -20 -20 -20 -20 -20 -20 -20 -20 -20 -20 -20 -20 -20 -20 -9 -2 3 6 10 -4 -20 -20 -20 -20 -20
-16 7 2 3 1 13 2 9 10 7 1 -8 -7 -10 -8 -8 -20 -20 -20 -20 -20 -20 -20 -20 -20 -20 -20 -20 -20 -20 -20 -20 -20 -20 -20 -20 -20 -20 -20 -20 -20 -20 -20
5 -16 25 20 13 -2 9 17 15 10 5 -9 -9 2 -10 -13 -20 -20 -20 -20 -20 -20 -20 -20 -20 -20 -20 -20 -20 -20 -20 -20 -20 -20 -20 -20 -20 -20 -20 -20 -20 -20 -20
-16 14 -3 15 19 20 15 17 12 9 8 -1 5 -10 -14 -20 -20 -20 -20 -20 -20 -20 -20 -20 -20 -20 -20 -20 -20 -20 -20 -20 -20 -20 -20 -20 -20 -20 9 9 -1 2 -17
23 19 15 16 21 16 12 12 1 -3 3 1 4 3 -20 -20 -20 -20 -20 -20 -20 -20 -20 -20 -20 -20 -20 -20 -20 -20 -20 -20 -20 -20 -12 -20 -20 -3 -20 -20 -5 12 10
4 21 18 15 16 10 8 5 -4 1 6 -7 -19 -20 -20 -20 -20 -20 -20 -20 -20 -20 -20 -20 -20 -20 -20 -20 -20 -20 -20 -20 -20 -20 -20 -20 -20 -20 -20 -20 -20 -9 24
23 18 11 8 6 7 -1 2 1 -12 -20 -20 -20 -20 -20 -20 -20 -20 -20 -20 -20 -20 -20 -20 -20 -20 -20 -20 -20 -20 -20 -20 -14 -20 -20 -7 -20 -20 -4 -20 -20 -20 -20
-3 -6 2 4 -17 -19 -20 -20 -20 -20 -20 -20 -13 -20 -20 -20 1 -20 -20 -20 -20 -20 -20 -20 -20 -20 -20 -20 -20 -20 -20 -20 -20 -20 -20 -20 -20 -20 -20 -9 -20 -20 -20
10 3 -20 -16 -20 -20 -20 -20 -20 -20 -20 -20 -20 -8 -15 -20 -20 -18 -20 -20 -16 -13 -19 -20 -20 -20 -13 -20 -20 -20 -20 -20 -20 -20 -20 -20 -20 -20 -20 -20 -20 -20 -14
-20 -20 -20 -20 -20 -20 -20 -20 -20 -20 -20 -20 -20 -20 -20 -20 -20 -20 -20 -20 -20 -20 -20 -20 -20 -20 -9 -20 -20 -20 -20 -20 -20 -20 -20 -20 -20 -20 -20 -20 -11 -6 -20
-20 -20 -20 -20 -20 -20 -20 -16 -15 -20 -19 -20 -20 -20 -20 -20 -20 -20 -20 -20 -20 -20 -20 -20 -20 -20 -2 -20 -20 -20 -20 -20 -20 -20 -20 -20 -20 -20 -20 -20 -7 -7 -20
-20 -20 -20 -20 -20 -20 -20 -9 -20 -20 -20 -20 -20 -20 -20 -20 -20 -20 -20 -20 -20 -20 -20 -20 -20 -20 -20 -20 -20 -20 -20 -20 -20 -20 -20 -20 -20 -20 -20 -20 -20 -20 -20
-20 -20 -20 -20 -20 -20 -20 -20 -20 -20 -20 -20 -20 -20 -20 -20 -20 -20 -20 -20 -20 -20 -20 -20 -20 -20 -20 -20 -20 -20 -20 -20 -20 -20 -20 -20 -9 -17 -20 -20 -20 -20 -20
-20 -20 -20 -18 -19 -20 -20 -11 -17 -9 -19 -3 -5 4 2 5 -9 -20 -20 -20 -20 -20 -20 -20 -16 -14 -13 -15 -20 -20 -20 -20 -20 -20 -16 -20 -15 -20 -20 -6 -20 -20 -20
-19 9 -7 -20 -8 11 -18 1 3 9 8 -19 -20 -8 1 12 14 3 -20 -20 -20 -20 -20 -20 -20 -20 -20 -6 -20 -20 -20 -20 -20 -20 -20 -20 -20 -20 -20 0 -19 -20 -20
-4 5 1 -12 5 -14 -20 -20 -20 -20 0 0 -20 -20 -10 8 4 4 6 3 -0 -14 -20 -20 -20 -20 -20 -20 -20 -20 -20 -20 -20 -20 -20 -19 -20 -20 -20 -15 -2 -20 -20
-13 -7 -1 2 3 -10 -20 -20 -20 -20 -2 15 12 12 12 7 3 2 13 20 16 15 2 5 3 -20 -20 -20 -20 -20 -20 -20 -20 -20 -20 -20 -20 -20 -20 -20 -17 -20 -20
-13 14 11 32 31 19 14 -19 4 -14 -3 9 12 15 8 8 7 21 28 26 24 3 -20 -12 -10 1 -7 -6 -13 -20 -20 -20 -20 -20 -20 -20 -20 -20 -20 -20 -20 -20 -20
4 7 -1 10 14 18 21 1 -9 -15 -12 -9 11 10 5 -1 3 6 13 -3 -7 2 12 9 1 -11 -15 -0 9 -12 -18 -20 -20 -20 -20 -20 -20 -20 -20 -20 -20 -20 -20
3 18 14 7 8 21 23 9 -16 -11 -15 -5 -7 6 -0 -8 -15 -16 -20 -20 -20 -6 -2 3 -2 12 10 -15 -13 12 -10 -20 -20 -20 -20 -20 -20 -20 -20 -20 -20 -20 -20

GFSGL_prec_radar_027.txt.gz
Reflectivity
-20 -20 -20 -20 -20 -20 -17 -20 1 -17 23 -11 -20 -20 -20 -20 -20 -20 -20 -20 -20 -20 -20 -20 -20 -20 -19 -20 -15 -18 -20 -20 -20 -20 -20 -20 -20 -20 -20 -20 -20 -20 -20
-20 -20 -20 -20 -20 -9 -16 -18 -18 -19 -20 -20 -20 -20 -20 -20 -20 -20 -20 -20 -20 -20 -20 -20 -20 -20 -20 -20 -20 -20 -20 -20 -20 -20 -20 -20 -20 -20 -20 -20 -20 -20 -20
-20 -20 -20 -20 -9 -13 -20 -16 -16 -9 -20 -7 -20 -20 -19 -20 -20 -19 -20 -20 -20 -20 -20 -20 -20 -20 -20 -20 -20 -20 -20 -20 -20 -20 -20 -20 -20 -20 -20 -20 -20 -20 -20
-20 -20 -20 -20 -19 -19 -10 -20 -11 -20 -16 -20 -20 -12 -16 -20 -20 -5 -20 -20 -20 -9 -15 -20 -20 -20 -20 -20 -20 -20 -20 -20 -20 -20 -20 -20 -20 -20 -20 -20 -18 -20 -20
-20 -20 -20 -20 -20 -20 -5 -7 -12 -20 -15 -20 -1 -20 -19 -20 -20 -16 -20 -20 -16 -16 -19 -20 -20 -20 -20 -20 -20 -20 -20 -20 -20 -20 -20 -20 -20 -20 -20 -2 -20 -20 -20
-20 -20 -20 -18 -20 -20 -20 -20 12 -12 -20 1 3 -1 -1 -11 -20 -20 -20 -17 -9 -20 -20 -20 -20 -20 -20 -20 -20 -20 -20 -20 -20 -20 -20 -20 -20 2 8 -20 -20 -20 -20
-20 -20 -20 -20 -20 -20 -3 15 12 -4 7 9 -6 -18 -20 -20 -20 -19 -6 -14 -20 -20 -20 -20 -20 -20 -20 -20 -20 -20 -20 -20 -20 -20 -20 -20 -20 -20 -20 -20 -20 -20 -20
-20 -20 -20 -18 -20 -16 11 16 18 15 9 5 -13 -17 -9 -20 -19 -10 -20 -20 -20 -20 -20 -20 -20 -20 -20 -20 -20 -20 -20 -20 -20 -20 -20 -20 -20 -20 -20 -20 -20 -20 -20
-20 -20 -19 -20 12 22 19 8 17 17 11 -14 1 -4 -20 -20 -20 -20 -20 -20 -20 -20 -20 -20 -20 -20 -20 -20 -20 -20 -20 -20 -20 -20 -20 -20 -20 -20 -20 8 2 12 -20
-19 -19 -20 12 23 17 12 5 4 -8 -3 -9 -20 -20 -20 -20 -20 -20 -20 -20 -20 -20 -20 -20 -20 -20 -20 -20 -20 -20 -20 -20 -20 -20 -20 -20 -20 -20 -20 -20 -20 -2 -8
-16 6 36 30 18 11 -5 -6 5 -9 -20 -20 -20 -20 -20 -20 -20 -20 -20 -20 -20 -20 -20 -20 -20 -20 -20 -20 -20 -20 -20 -20 -20 -20 -20 -20 -20 -20 -20 -20 -20 -20 -8
32 32 20 16 -8 -11 -14 -19 -20 -20 -20 -20 -20 -20 -20 -20 -20 -20 -20 -20 -20 -20 -20 -20 -20 -20 -20 -20 -20 -20 -20 -20 -20 -20 -20 -20 -20 -20 -20 -20 -20 -20 -20
-18 -20 -20 -20 -20 -20 -20 -20 -20 -20 -20 -20 -20 -20 -20 -20 -20 -20 -20 -20 -20 -20 -20 -20 -20 -20 -20 -20 -20 -20 -20 -20 -20 -20 -20 -20 -20 -20 -20 -20 -20 -20 -20
-20 -20 -20 -20 -20 -20 -20 -20 -20 -20 -20 -20 -20 -20 -20 -17 -17 -20 -20 -20 -20 -20 -20 -20 -20 -20 -20 -20 -20 -20 -20 -20 -20 -20 -20 -20 -20 -20 -20 -20 -20 -20 -20
-20 -20 -20 -20 -20 -20 -20 -20 -20 -20 -20 -20 -20 -20 -20 -20 -6 28 -18 -20 -20 -20 -20 -20 -20 -20 -20 -20 -20 -20 -20 -20 -20 -20 -20 -20 -20 -20 -20 -20 -20 -20 -20
-20 -20 -20 -20 -20 -20 -20 -20 -20 -20 -20 -20 -20 -20 -20 -20 -20 -20 -20 -20 -20 -20 -20 -20 -20 -20 -20 -20 -20 -20 -20 -20 -20 -20 -20 -20 -20 -20 -20 -20 -20 -20 -20
-20 -20 -20 -20 -20 -20 -20 -20 -20 -20 -20 -20 -20 -20 -20 -20 -20 -20 -20 -19 8 -20 -20 -20 -20 -20 -20 -20 -20 -20 -20 -20 -20 -20 -20 -20 -20 -20 -20 -20 -20 -20 -20
-20 -20 -20 -20 -20 -20 -20 -20 -20 -20 -20 -20 -20 -20 -20 -20 2 -17 -19 -8 11 -20 -20 -20 -20 -20 -20 -20 -20 -20 -20 -20 -20 -20 -20 -20 -20 -20 -20 -20 -20 -20 -20
-20 -20 -20 -20 -9 -4 -20 -20 -20 -15 -20 -20 -20 -20 -20 -19 -20 6 -17 15 -20 -20 -20 -20 -20 -20 -20 -20 -20 -20 -20 -20 -20 -20 -20 -20 -20 -20 -20 -20 -20 -20 -20
-20 -20 -20 0 11 13 12 9 9 -12 -20 -20 -20 -20 -16 -4 12 12 -9 -11 -7 -20 -20 -20 -20 -20 -20 -20 -20 -19 -20 -20 -20 -20 -20 -20 -20 -20 -20 -20 -20 -20 -20
3 -20 -20 -20 -20 7 14 12 -15 -20 1 6 -20 -20 -20 -19 -20 -8 -17 -20 2 8 -2 -20 -20 -20 -20 -20 -20 -20 -20 -20 -20 -20 -20 -20 -20 -20 -20 -20 -20 -20 -20
10 6 2 -1 14 5 5 4 -15 14 1 -20 -20 -20 -20 -20 -4 -13 -3 6 -18 -16 11 5 -20 -20 -20 -20 -20 -20 -20 -20 -20 -20 -20 -20 -20 -20 -20 -20 -20 -20 -20
-20 -20 -20 -15 -20 -20 -10 -18 5 25 11 -18 -13 -20 -20 -20 11 -15 -7 0 13 27 26 9 -20 -20 -20 -20 -20 -20 -20 -20 -20 -20 -20 -20 -20 -20 -20 -20 -20 -20 -20
-4 -4 7 -1 9 15 4 3 10 18 24 3 -20 -8 4 -15 6 14 -1 4 12 27 31 28 10 -4 -17 -20 -20 -20 -20 -20 -20 -20 -20 -20 -20 -20 -20 -20 -20 -20 -20
-20 -20 0 -20 -20 -9 -20 -13 19 25 18 12 -8 -20 -18 -20 -20 -20 -20 -20 -20 -20 -2 8 19 7 -12 -16 -6 -15 -20 -18 -16 -20 -20 -20 -20 -20 -20 -20 -20 -20 -20
-20 -1 -20 -20 -20 -20 -20 -18 -1 3 11 14 4 -19 -20 -20 -17 -20 -20 -20 -20 -20 -20 -20 -20 -20 -2 17 11 6 -6 -17 9 -1 -20 -20 -20 -20 -20 -20 -20 -20 -20

GFSGL_prec_radar_030.txt.gz
Reflectivity
8 -20 -20 -20 -9 6 18 17 -14 5 14 -11 -6 -20 -15 -20 -20 -20 -20 -20 -20 -20 -20 -20 -20 -20 -20 -20 -20 -20 -20 -20 -20 -20 -20 -20 -20 -20 -20 -20 -20 -20 -20
-20 -20 -20 -20 -20 -20 -15 -20 -20 -20 -17 -20 -20 -20 -20 -20 -20 -20 -20 -20 -20 -20 -20 -20 -20 -20 -20 -20 -20 -20 -20 -20 -20 -20 -20 -20 -20 -20 -20 -20 -20 -20 -20
-20 -14 -20 -20 -20 -20 -20 -20 -20 -20 -20 -20 -20 -20 -20 -20 -20 -20 -20 -20 -20 -20 -20 -20 -20 -20 -20 -20 -20 -20 -20 -20 -20 -20 -20 -20 -20 -20 -20 -20 -20 -20 -20
-6 -20 -20 -20 -20 -20 -20 -20 -20 -20 -20 -20 -19 -20 -20 -20 -20 -20 -20 -20 -20 -20 -20 -20 -20 -20 -20 -20 -20 -20 -20 -20 -20 -20 -20 -20 -20 -20 -20 -20 -17 -20 -20
6 -20 -17 -19 -20 -20 -20 -20 -20 -20 -20 -17 -20 -20 -20 -20 -20 -20 -20 -20 -20 -20 -20 -20 -20 -20 -20 -20 -20 -20 -20 -20 -20 -20 -20 -20 -20 -20 -20 -20 -17 -20 -20
-20 -20 -20 -10 -17 -20 -20 -20 -20 -19 -14 -3 -1 -20 -20 -20 -20 -20 -20 -20 -20 -20 -20 -20 -20 -20 -20 -20 -20 -20 -20 -20 -20 -20 -20 -20 -20 -20 -20 -20 -20 -20 -20
-12 -20 -20 -20 -20 -19 -17 -18 -19 22 21 -2 -20 -20 -20 -20 -20 -20 -20 -20 -20 -20 -20 -20 -20 -20 -20 -20 -20 -20 -20 -20 -20 -20 -20 -20 -20 -20 -20 -20 -20 -20 -20
-20 -17 -20 -20 -20 -20 -13 17 29 26 25 14 -5 -20 -20 -18 -20 -20 -20 -20 -20 -20 -20 -20 -20 -20 -20 -20 -20 -20 -20 -20 -20 -20 -20 -20 -20 -20 -14 1 1 -11 -20
-20 -20 -20 -3 -13 -16 18 31 31 10 11 -14 -20 -20 -20 -20 -20 -20 -20 -20 -20 -20 -20 -20 -20 -20 -20 -20 -20 -20 -20 -20 -20 -20 -20 -20 -20 -20 -19 2 -20 -20 -20
-20 -19 11 36 31 34 34 10 2 -5 -20 -20 -20 -20 -20 -20 -20 -20 -20 -20 -20 -20 -20 -20 -20 -20 -20 -20 -20 -20 -20 -20 -20 -20 -20 -20 -20 -20 -20 -20 -20 -20 -20
19 27 13 20 29 18 14 0 -20 -20 -20 -20 -20 -20 -20 -20 -20 -20 -20 -20 -20 -20 -20 -20 -20 -20 -20 -20 -20 -20 -20 -20 -20 -20 -20 -20 -20 -20 -20 -20 -20 -20 -20
12 27 27 9 -5 -18 -20 -20 -20 -20 -20 -20 -20 -20 -20 -20 -20 -7 -20 -20 -20 -20 -20 -20 -20 -20 -20 -20 -20 -20 -20 -20 -20 -20 -20 -20 -20 -20 -20 -20 -20 -20 -20
-19 -20 -20 -20 -20 -20 -20 -20 -20 -20 -20 -20 -20 -20 -20 -20 -20 -20 -20 3 -20 -20 -20 -20 -20 -20 -20 -20 -20 -20 -20 -20 -20 -20 -20 -20 -20 -20 -20 -20 -20 -20 -20
-20 -20 -20 -20 -20 -20 -20 -20 -20 -20 -20 -20 -20 -20 -20 -20 -20 -20 -20 -17 -17 -18 -20 -20 -20 -20 -20 -20 -20 -20 -20 -20 -20 -20 -20 -20 -20 -20 -20 -20 -20 -20 -20
-20 -20 -20 -20 -20 -20 -20 -20 -20 -20 -20 -20 -20 -20 -20 -20 -20 -20 -20 -20 0 19 -4 0 -18 -20 -20 -20 -20 -20 -20 -20 -20 -20 -20 -20 -20 -20 -20 -20 -20 -20 -20
-20 -20 -20 -20 -20 -20 -20 -20 -20 -20 -20 -20 -20 -20 -20 -20 -20 -20 -20 -15 -20 -12 12 -19 -20 -20 -20 -20 -20 -20 -20 -20 -20 -20 -20 -20 -20 -20 -20 -20 -20 -20 -20
-20 -20 -20 -20 -20 -20 -20 -20 -20 -20 -20 -20 -20 -20 -20 -20 -20 -20 -20 -20 -6 7 8 -20 -20 -20 -20 -20 -20 -20 -20 -20 -20 -20 -20 -20 -20 -20 -20 -20 -20 -20 -20
-20 -20 -20 -20 -20 -20 -20 -15 4 -3 -20 -20 -20 -20 -20 -20 -20 -20 -20 8 17 1 -3 -20 -20 -20 -20 -20 -20 -20 -20 -20 -20 -20 -20 -20 -20 -20 -20 -20 -20 -20 -20
-20 -20 -20 -20 -20 -20 -20 -20 -13 6 -2 19 -20 -20 -20 -20 -20 -20 -20 4 8 -13 -16 -0 -20 -20 -20 -20 -20 -20 -20 -20 -20 -20 -20 -20 -20 -20 -20 -20 -20 -20 -20
-20 -17 -5 -5 -20 -16 -1 -14 -10 3 0 -20 10 -18 -20 -20 -20 -20 -20 -13 -7 -10 -20 -18 8 -9 -20 -20 -20 -20 -20 -20 -20 -20 -20 -20 -20 -20 -20 -20 -20 -20 -20
-20 -20 -20 -20 -20 -20 -19 9 -14 -20 -4 13 -3 -10 20 -20 -20 -20 -20 -20 -20 -20 -20 -20 -20 11 -20 -15 -20 -20 -20 -20 -20 -20 -20 -20 -20 -20 -20 -20 -20 -20 -20
-20 -20 -20 3 2 -1 -8 -6 -15 -11 -19 -9 -17 7 16 -9 -20 -20 -20 -20 -17 -16 -20 -3 3 1 5 -20 -20 -20 -20 -20 -20 -20 -20 -20 -20 -20 -20 -20 -20 -20 -20
-15 -20 -20 -19 -20 -20 -20 -20 -11 -18 -9 -2 20 26 14 -12 -13 17 11 5 4 -8 -10 1 11 11 14 -20 -20 -20 -20 -20 -20 -20 -20 -20 -20 -20 -20 -20 -20 -20 -20
-20 -20 -20 -20 -20 -20 -20 -20 -20 -20 -20 11 -0 10 15 5 -14 -20 -20 -20 -20 -20 -20 -18 11 26 24 7 -5 -20 -20 -20 -20 -20 -20 -18 -20 -20 -20 -20 -20 -20 -20
-20 -20 -20 -20 -20 -20 -18 -20 -20 -20 -20 -20 -17 -7 2 1 9 3 -20 -20 -20 -20 -20 -20 -20 2 4 2 16 -4 -18 -20 -19 -20 10 -13 -20 -20 -20 -20 -20 -20 -20
-20 -11 -20 -20 -20 -20 -20 -20 -20 -20 -20 -20 -20 -20 -20 -20 -20 -20 -20 -20 -20 -20 -20 -20 -20 -20 -20 -20 -20 -20 -18 -19 -18 -16 -3 11 -20 -20 -20 -20 -20 -20 -20

GFSGL_prec_radar_033.txt.gz
Reflectivity
-20 -20 -20 -20 9 -20 -20 -20 -9 -11 -13 -15 -9 -20 -20 -20 -20 -19 -20 -20 -20 -20 -20 -20 -20 -20 -20 -20 -20 -20 -20 -20 -20 -20 -20 -20 -20 -20 -20 -20 -20 -20 -20
4 -20 17 -15 -20 -20 -20 -17 -20 -20 -20 -20 -20 -20 -20 -20 -20 -20 -20 -20 -20 -20 -20 -20 -20 -20 -20 -20 -20 -20 -20 -20 -20 -20 -20 -20 -20 -20 -20 -20 -20 -20 -20
17 -15 -9 -15 -13 -16 -20 -4 -20 -20 -20 -20 -20 -20 -19 -17 -7 -20 -20 -20 -20 -20 -20 -20 -20 -20 -20 -20 -20 -20 -20 -20 -20 -20 -20 -20 -20 -20 -20 -20 -20 -20 -20
-19 -20 -14 -18 -20 -20 -11 -7 -20 -20 -20 -18 -20 -20 -13 -10 -18 -17 -20 -20 -20 -20 -20 -20 -20 -20 -20 -20 -20 -20 -20 -20 -20 -20 -20 -20 -20 -20 -20 -20 -20 -20 -20
-20 -20 6 -20 -20 -20 -20 -20 -20 -19 -20 -16 -20 5 8 -11 -20 -20 -20 -20 -20 -20 -20 -20 -20 -20 -20 -20 -20 -20 -20 -20 -20 -20 -20 -20 -20 -20 -20 -20 -20 -20 -20
-20 -3 -20 -20 -5 -11 -5 -20 -20 -19 -12 -3 23 20 1 -20 -20 -20 -20 -20 -20 -20 -20 -20 -20 -20 -20 -20 -20 -20 -20 -20 -20 -20 -20 -20 -20 -20 -20 -20 -20 -20 -20
-20 -16 -0 -7 -18 -1 12 -3 -6 -3 26 25 28 18 -5 -20 -20 -20 -20 -20 -20 -20 -20 -20 -20 -20 -20 -20 -20 -20 -20 -20 -20 -20 -20 -20 -20 -20 -20 -20 -20 -20 -20
-20 2 -3 -8 -16 -20 -19 -20 23 29 26 21 4 -10 -20 -20 -20 -20 -20 -20 -20 -20 -20 -20 -20 -20 -20 -20 -20 -20 -20 -20 -20 -20 -20 -20 -20 -20 -20 -6 10 8 -20
-18 5 -20 -14 -20 -13 8 28 24 19 8 -20 -20 -20 -20 -20 -20 -20 -20 -20 -20 -20 -20 -20 -20 -20 -20 -20 -20 -20 -20 -20 -20 -20 -20 -20 -20 -20 -20 -19 -20 -20 -20
-20 -6 7 10 19 38 25 26 30 10 -1 -20 -20 -20 -20 -20 -20 -20 -20 -20 -20 -20 -20 -20 -20 -20 -20 -20 -20 -20 -20 -20 -20 -20 -20 -20 -20 -20 -20 -20 -20 -1 -20
-20 2 11 22 27 26 19 -1 -6 -20 -20 -20 -20 -20 -20 -20 -20 -20 -20 -20 -20 -20 -20 -20 -20 -20 -20 -20 -20 -20 -20 -20 -20 -20 -20 -20 -20 -20 -20 -20 -20 -20 -17
18 23 19 0 -19 -20 -20 -20 -20 -20 -20 -20 -20 -20 -20 -20 -20 -20 -20 -20 -20 -20 -12 -20 -20 -20 -20 -20 -20 -20 -20 -20 -20 -20 -20 -20 -20 -20 -20 -20 -20 -20 -20
-20 -20 -20 -20 -20 -20 -20 -20 -20 -20 -20 -20 -20 -20 -20 -20 -20 -20 -20 -20 -20 -20 -17 -9 -18 -18 -20 -20 -20 -20 -20 -20 -20 -20 -20 -20 -20 -20 -20 -20 -20 -20 -20
-20 -20 -20 -20 -20 -20 -20 -20 -20 -20 -20 -20 -20 -20 -20 -20 -20 -20 -20 -20 -20 -20 -20 -7 -18 -16 10 -20 -20 -20 -20 -20 -20 -20 -20 -20 -20 -20 -20 -20 -20 -20 -20
-20 -20 -20 -20 -20 -20 -20 -20 -20 -20 -20 -20 -20 -20 -20 -20 -20 -20 -20 -20 -20 -20 -17 -20 12 21 -14 -20 -20 -20 -20 -20 -20 -20 -20 -20 -20 -20 -20 -20 -20 -20 -20
-20 -20 -20 -20 -20 -20 -20 -20 -20 -20 -20 -20 -20 -20 -20 -20 -20 -20 -20 -20 -20 -17 13 -14 -20 -20 -11 -20 -20 -20 -20 -20 -20 -20 -20 -20 -20 -20 -20 -20 -20 -20 -20
-20 -20 -20 -20 -20 -20 -20 -20 -20 -20 -20 -20 -20 -20 11 0 15 6 -20 -20 -20 -12 10 -20 -20 -20 -20 7 -13 -20 -20 -20 -20 -20 -20 -20 -20 -20 -20 -20 -20 -20 -20
-20 -20 -20 -20 -20 -20 -8 -20 -1 -9 -17 -20 -20 -20 -20 -1 31 5 -20 -20 -20 -20 -19 -2 5 -20 -20 11 -9 -20 -20 -20 -20 -20 -20 -20 -20 -20 -20 -20 -20 -20 -20
-20 -20 -20 -20 -20 -20 -20 -20 -20 -4 -5 10 8 -11 -6 -20 -6 9 -14 -20 -20 -20 -20 -20 -19 13 -19 9 5 -20 -20 -20 -20 -20 -20 -20 -20 -20 -20 -20 -20 -20 -20
-20 -20 -20 -20 -20 -20 -20 -6 -1 -2 -17 -20 -3 -6 -7 -20 -20 -20 -15 -13 -20 -20 -20 -20 -20 -20 -20 -17 5 -20 -20 -20 -20 -20 -20 -20 -20 -20 -20 -20 -20 -20 -20
-20 -20 -20 -19 -20 -20 -20 -20 -20 -20 -20 -20 2 -6 -8 10 -1 -13 -4 -10 -20 -20 -20 -2 -20 -20 -20 -20 5 -2 -20 -20 -20 -20 -20 -20 -20 -20 -20 -20 -20 -20 -20
-20 -20 -20 -20 -19 -20 -20 -5 -14 -20 -20 -19 -20 -20 -9 1 22 24 8 7 14 12 12 -5 -18 -10 10 7 10 13 -20 -20 -20 -20 -20 -20 -20 -20 -20 -20 -20 -20 -20
-20 -20 -20 -20 -20 -20 -20 -20 -20 -20 -18 -20 -20 -20 -14 8 6 11 8 16 16 -10 -20 -20 -20 -20 11 15 11 15 1 -20 -0 -14 -20 -20 -20 -20 -20 -20 -20 -20 -20
-20 -20 -20 -20 -20 -20 -20 -20 -20 -20 -20 -20 -20 -20 -20 -20 -15 3 12 14 15 10 -20 -20 -20 -20 -18 9 14 19 18 -15 5 -11 -17 -20 -20 -20 -20 -20 -20 -20 -20
-20 -20 -20 -20 -20 -20 -20 -20 -20 -20 -20 -20 -20 -20 -20 -20 -20 -20 -20 -20 -18 -16 -20 -20 -20 -20 -20 5 4 9 -13 10 13 -20 -6 -9 3 -20 -20 -20 -20 -20 -20
-20 -20 -20 -20 -20 -20 -20 -20 -20 -20 -20 -20 -20 -20 -20 -20 -20 -20 -20 -20 -20 -20 -20 -20 -20 -20 -20 -20 3 -2 -10 -1 -20 -16 -18 -10 -14 3 -20 -20 -20 -20 -20

GFSGL_prec_radar_036.txt.gz
Reflectivity
-7 -20 -20 22 13 19 24 19 12 -7 -20 12 0 24 4 -20 -20 -20 -20 -20 -20 -20 -20 -20 -20 -20 -20 -20 -20 -20 -20 -20 -20 -20 -20 -20 -20 -20 -20 -20 -20 -20 -20
24 23 24 22 23 -3 12 -20 -20 -20 8 18 3 -20 -20 -20 -18 -20 -2 -20 -20 -20 -20 -20 -20 -20 -20 -20 -20 -20 -20 -20 -20 -20 -20 -20 -20 -20 -20 -20 -20 -20 -20
22 22 23 -20 -20 -20 -20 -20 -20 -20 1 11 -20 -20 -2 -20 -20 8 -17 -20 -20 -20 -20 -20 -20 -20 -20 -20 -20 -20 -20 -20 -20 -20 -20 -20 -20 -20 -20 -20 -20 -20 -20
20 -13 -20 17 -20 -20 -20 -20 -19 0 -12 -19 -20 -7 -16 -19 29 3 -20 -20 -20 -20 -20 -20 -20 -20 -20 -20 -20 -20 -20 -20 -20 -20 -20 -20 -20 -20 -20 -20 -20 -20 -20
-20 -20 -16 -20 -20 -20 -20 -20 -20 -9 -17 -20 11 -20 -6 34 19 -19 -20 -20 -20 -20 -20 -20 -20 -20 -20 -20 -20 -20 -20 -20 -20 -20 -20 -20 -20 -20 -20 -20 -20 -20 -20
-20 -20 -20 -20 -20 4 4 -20 -12 -20 -20 5 -10 10 26 2 1 -6 -20 -20 -20 -20 -20 -20 -20 -20 -20 -20 -20 -20 -20 -20 -20 -20 -20 -20 -20 -20 -20 -20 -20 -20 -16
-20 -20 -20 -13 -16 -16 -20 -18 -16 14 13 9 23 31 15 10 6 -17 -20 -20 -20 -20 -20 -20 -20 -20 -20 -20 -20 -20 -20 -20 -20 -20 -20 -20 -20 -20 -20 -20 -20 -20 3
-20 -20 -20 -18 -5 13 -7 3 27 24 28 42 8 17 5 -1 -16 -20 -20 -20 -20 -20 -20 -20 -20 -20 -20 -20 -20 -20 -20 -20 -20 -20 -20 -20 -20 -20 -20 -20 -20 -12 -20
-20 -20 -20 -20 -9 -9 13 32 25 28 14 15 14 8 -11 -20 -20 -20 -20 -20 -20 -20 -20 -20 -20 -20 -20 -20 -20 -20 -20 -20 -20 -20 -20 -20 -20 -20 -20 -20 -20 -20 -20
-20 -20 -20 2 -8 -20 4 9 11 15 10 -8 -20 -20 -20 -20 -20 -20 -20 -20 -20 -20 -20 -20 -20 -20 -20 -20 -20 -20 -20 -20 -20 -20 -20 -20 -20 -20 -20 -20 -20 -20 -20
-20 -20 -20 -15 15 20 14 -8 -20 -20 -20 -20 -20 -20 -20 -20 -20 -20 -20 -20 -20 -20 -20 -20 -20 -16 -12 -20 -20 -20 -20 -20 -20 -20 -20 -20 -20 -20 -20 -20 -20 -20 -20
-5 -3 -16 -17 -20 -20 -20 -20 -20 -20 -20 -20 -20 -20 -20 -20 -20 -20 -20 -20 -20 -20 -20 -20 -20 -20 15 -7 -20 -20 -20 -20 -20 -20 -20 -20 -20 -20 -20 -20 -20 -20 -20
-20 -20 -20 -20 -20 -20 -20 -20 -20 -20 -20 -20 -20 -20 -20 -20 -20 -20 -20 -20 -20 -20 -20 -20 -20 -20 -19 18 -9 -20 -20 -20 -20 -20 -20 -20 -20 -20 -20 -20 -20 -20 -20
-20 -20 -20 -20 -20 -20 -20 -20 -20 -20 -20 -20 -20 -20 -20 -20 -20 -20 -20 -20 -20 -20 -20 -20 -20 -20 -19 1 11 1 1 -20 -20 -20 -20 -20 -20 -20 -20 -20 -20 -20 -20
-20 -20 -20 -20 -20 -20 -20 -20 -20 -20 -20 -20 -20 -20 -20 -20 -20 -20 -20 -18 -20 -20 -20 -20 -20 -20 8 -19 -16 22 9 5 -20 -20 -20 -20 -20 -20 -20 -20 -20 -20 -20
-20 -20 -20 -20 -20 -20 -20 -20 -20 -20 -20 -20 -20 -20 -20 -20 -20 -20 -20 17 27 33 6 -20 -20 -20 -20 -20 -20 11 -8 4 -17 -20 -20 -20 -20 -20 -20 -20 -20 -20 -20
-20 -20 -20 -20 -20 -20 -20 -20 -20 -20 -20 -20 -20 -3 6 -20 -20 -20 -14 19 27 19 6 -20 -20 -20 -20 0 -8 8 12 -20 -20 -20 -20 -20 -20 -20 -20 -20 -20 -20 -20
-20 -20 -20 -20 -20 -20 -20 -20 -20 -20 -20 -20 -20 -16 -20 1 -17 -1 -16 -8 10 -4 -6 -12 -18 -19 -19 -20 -11 4 -2 8 -20 -20 -20 -20 -20 -20 -20 -20 -20 -20 -20
-20 -20 -20 -20 -20 -14 -20 -20 -19 -18 -15 -20 -20 -20 -20 -20 -20 -20 -20 6 4 -20 -20 -20 -20 -20 -20 -20 -20 3 2 -8 -20 -20 -20 -20 -20 -20 -20 -20 -20 -20 -20
-20 -20 -20 -20 -20 -20 -20 -20 -20 -20 -20 -20 -20 -20 -20 -20 -20 -20 -6 3 -12 2 -14 -18 -20 -20 -20 -20 -20 -20 -20 -2 -16 -20 -20 -20 -20 -20 -20 -20 -20 -20 -20
-20 -20 -20 -20 -20 -20 -20 -20 -20 -20 -20 -20 -20 -20 -20 -20 -19 -9 2 -1 -5 7 15 21 13 -7 -19 -20 -20 5 11 2 -8 -20 -20 -20 -20 -20 -20 -20 -20 -20 -20
-20 -20 -20 -20 -20 -20 -20 -20 -20 -20 -20 -20 -20 -20 -20 -20 -20 -20 -20 -3 12 18 17 5 -7 5 -20 -20 -12 -17 3 -8 -1 -18 -20 -20 -20 -20 -20 -20 -20 -20 -20
-20 -20 -20 -20 -20 -20 -20 -20 -20 -20 -20 -20 -20 -20 -20 -20 -20 -20 -20 -20 -12 9 10 12 12 -16 -20 -20 -20 -16 14 -0 9 9 -20 -20 -20 -20 -20 -20 -20 -20 -20
-20 -20 -20 -20 -20 -20 -20 -20 -20 -20 -20 -20 -20 -20 -20 -20 -20 -20 -20 -20 -20 -20 -5 6 9 12 -20 -20 -20 -11 10 16 11 18 10 -20 -20 -20 -20 -20 -20 -20 -20
-20 -20 -20 -20 -20 -20 -20 -20 -20 -20 -20 -20 -20 -20 -20 -20 -20 -20 -20 -20 -20 -20 -20 -17 -6 -13 -20 -20 -20 -20 5 13 14 6 12 13 -4 -20 -20 -20 -20 -20 -20
-20 -20 -20 -20 -20 -20 -20 -20 -20 -20 -20 -20 -20 -20 -20 -20 -20 -20 -20 -20 -20 -20 -20 -20 -20 -13 -20 -20 -20 -20 -18 5 9 15 13 12 1 -18 -17 -20 -20 -20 -20

GFSGL_prec_radar_042.txt.gz
Reflectivity
-20 -20 -20 -15 8 11 -20 -20 -18 -7 12 16 22 13 -20 -20 -20 -20 -20 1 18 5 2 -20 -20 -20 -20 -20 -20 -20 -20 -20 -0 -20 -20 -20 -20 -20 -9 -20 -20 -20 -20
-20 -20 -20 -20 -20 -1 -20 -19 -20 -0 -20 19 -20 -20 -20 -20 -20 -20 -20 -1 0 23 6 -20 -20 -20 -20 -20 -20 -20 -20 -20 -20 -20 -20 -20 -20 -20 -20 -20 -20 -20 -20
-20 -20 -20 -20 -20 -20 -20 -20 16 -3 -7 -1 -15 -15 13 19 -19 -20 -13 21 35 10 7 -12 -17 -20 -20 -20 -20 -20 -20 -20 -20 -20 -20 -20 -20 -20 -20 -20 -20 -20 -20
-20 -20 -20 -20 -20 -19 -20 -14 -20 -20 -14 -20 -17 6 8 10 28 -19 25 34 10 -11 -20 -20 -20 -20 -20 -10 -14 -20 -20 -20 -20 -20 -20 -20 -20 -20 -20 -20 -20 -20 -20
13 -20 -8 12 -10 -11 -20 -20 -20 -20 -20 -20 8 15 20 13 -19 23 2 -4 -6 -20 -20 -20 -20 -20 -20 -20 -20 -20 -20 -20 -20 -20 -20 -20 -20 -20 -20 -20 -20 -20 -20
-19 -20 -20 -20 -20 -20 -20 -20 -20 -20 -20 16 6 4 15 -14 -20 -3 -11 13 -12 -17 -20 -20 -20 -20 -20 -20 -20 -20 -20 -20 -20 -0 -20 -20 -20 -20 -20 -20 -20 -20 -20
-20 -20 -20 -20 -20 -20 -20 -20 -20 3 -18 12 6 -20 -20 -18 8 14 16 -2 -18 -20 -20 -20 -20 -20 -20 -20 -17 -20 -20 -20 -20 -20 -20 -20 -20 -20 -20 -20 -20 -20 -20
-20 -20 -20 -20 -20 -20 -20 -20 -20 -20 -20 -17 -17 -19 -11 -19 0 11 -7 -20 -20 -20 -20 -20 -20 -20 -20 -20 -20 -0 -20 -20 -20 -20 -20 -20 -20 -20 -20 -20 -20 -20 -20
-20 -20 -20 -20 -20 -20 -20 -20 -17 -13 -20 -2 -16 -20 -19 -19 -18 -20 -20 -20 -20 -20 -20 -20 -20 -20 -20 -20 -20 -20 -20 -20 6 -20 -20 -20 -20 -20 -20 -20 -20 -20 -20
-20 -20 -20 -20 -20 -20 -9 -19 -20 -20 -20 -20 -20 -20 -20 -20 -20 -20 -20 -20 -20 -20 -20 -20 -20 -20 -20 -20 -20 -4 7 -4 1 14 -19 -20 -20 -20 -20 -20 -20 -19 -19
-20 -20 -16 -20 -20 -20 -20 -20 -20 -20 -20 -20 -20 -20 -20 -20 -20 -20 -20 -20 -20 -20 -20 -20 -20 -20 -20 -20 -20 -5 -13 -1 17 -1 22 13 -20 -20 -20 -20 -20 -20 -3
-20 -20 -20 -20 -20 -20 -20 -20 -20 -20 -20 -20 -20 -20 -20 -20 -20 -15 -20 -20 -20 -4 1 8 12 1 -20 -20 -20 -20 -20 -20 3 15 5 11 -2 -7 -20 -20 -20 -20 -20
-20 -20 -20 -20 -20 -20 -20 -20 -20 -20 -20 -20 -20 -20 -20 -20 -20 -20 -11 -2 -20 10 10 6 -20 -2 20 1 -20 -20 -20 -0 9 11 9 5 10 14 -7 -20 -20 -20 -20
-20 -20 -20 -20 -20 -20 -20 -20 -20 -20 -20 -20 -20 -20 -20 -20 -20 -20 -19 -19 -20 -5 -17 10 -18 8 -19 -1 23 9 29 10 12 8 7 6 27 26 -7 -19 -6 1 2
-20 -20 -20 -20 -20 -20 -20 -20 -20 -20 -20 -20 -20 -20 -20 -0 -1 -20 -20 -20 -15 -14 -12 0 -5 3 16 6 10 9 -1 2 13 13 12 15 10 8 -0 -11 -0 3 3
-20 -20 -20 -20 -20 -20 -20 -20 -20 -20 -20 -20 -20 -20 -4 -14 -20 -20 -20 -20 -20 -20 -1 -1 3 4 12 19 23 24 -19 -8 -7 10 16 11 14 6 3 -10 -3 3 5
-20 -20 -20 -20 -20 -20 -20 -20 -20 -20 -20 -20 -20 -20 -20 -20 -20 -20 -20 -20 -20 -20 -11 -9 15 24 22 22 26 29 4 -7 -11 -10 10 11 14 12 10 -2 2 3 3
-20 -20 -20 -20 -20 -20 -20 -20 -20 -20 -20 -20 -20 -20 -20 -20 -20 -20 -20 -20 -20 -16 -4 -1 0 5 -11 8 21 11 10 13 0 10 11 12 12 10 11 -2 5 3 5
-20 -20 -20 -20 -20 -20 -20 -20 -20 -20 -20 -20 -20 -20 -20 -20 -20 -20 -20 -2 -1 -3 0 -2 0 -1 3 0 17 25 17 12 4 13 7 8 13 11 11 0 5 2 -8
-20 -20 -20 -20 -20 -20 -20 -20 -20 -20 -20 -20 -20 -20 -20 -20 -20 -20 -4 -0 2 0 0 0 -0 1 1 4 10 4 15 20 12 9 12 13 14 11 10 -2 6 8 0
-20 -20 -20 -20 -20 -20 -20 -20 -20 -20 -20 -20 -20 -20 -20 -20 -10 -10 -2 2 3 2 2 -15 2 0 4 2 1 4 13 7 20 9 12 10 15 15 5 4 6 3 2
-20 -20 -20 -20 -20 -20 -20 -20 -20 -20 -20 -20 -20 -20 -20 -19 -20 -6 -2 2 3 3 2 -13 3 -1 1 5 3 -1 7 12 7 -0 15 9 9 17 9 3 6 8 -1
-20 -20 -20 -20 -20 -20 -20 -20 -20 -20 -20 -20 -20 -20 -20 -3 -4 -4 0 2 2 1 3 3 3 1 2 2 3 4 2 3 5 3 0 7 12 16 11 2 6 2 -7
-20 -20 -20 -20 -20 -20 -20 -20 -20 -20 -20 -20 -6 -3 -3 -2 1 1 1 3 -0 0 0 1 -0 5 1 1 2 2 -10 2 2 -2 -2 -0 10 14 15 5 4 -19 -4
-20 -20 -20 -20 -20 -18 -18 -20 -20 -4 -4 -3 -1 -1 -2 -1 -2 1 2 -0 -3 -3 -5 1 0 1 -0 -2 -2 -0 -1 2 -4 -4 -2 3 -3 17 13 3 5 -5 -1
-20 -20 -20 -20 -18 -3 -4 -3 -4 -5 -4 -2 -2 0 2 1 -0 2 -1 -3 -11 -20 -7 -4 -3 -10 -3 -14 -3 -2 -11 -12 -1 -1 -3 -4 7 16 15 11 7 4 -3

GFSGL_prec_radar_045.txt.gz
Reflectivity
-20 -20 -20 -20 -20 -20 -2 26 -10 -12 -10 -16 -20 -20 -20 11 4 9 8 -1 -20 -20 -20 12 15 9 3 -8 -15 -12 -20 -20 -20 -20 -20 -20 -20 -20 -20 -20 -20 -20 -20
-20 -20 -17 -12 -20 -15 2 6 10 -3 -20 -20 -20 -20 3 -2 23 -4 -20 5 -20 26 23 -12 -19 -0 -0 -20 -20 -20 -20 -20 -20 -20 -20 -20 -20 -20 -20 -20 -20 -20 -20
-20 -9 1 -10 -8 3 6 14 18 12 13 -5 -13 3 -16 -12 0 -19 19 29 31 27 -13 2 -20 -20 -20 -20 -20 -20 -20 -20 -20 -20 -20 -20 -20 -20 -20 -20 -20 -20 -20
-20 -20 -18 -20 -8 -13 -20 -0 -3 -5 12 10 -19 -11 10 -12 -9 16 17 28 -11 -20 -20 -1 -14 -20 -20 -18 -8 -7 -20 -20 -20 -20 -20 -20 -20 -20 -20 -20 -20 -20 -20
-20 -20 22 -20 -13 -7 -15 -18 -15 -6 -18 -20 -20 -18 -20 -2 19 -8 -7 -18 -20 -13 -20 -19 -20 -20 -15 -20 -20 -20 -20 -20 -20 -15 -20 -20 -20 -20 -20 -20 -20 -20 -20
-20 -20 -20 -20 -20 -20 -20 -20 -20 -20 -20 -20 -20 -20 -20 -20 -20 -16 -20 -19 -13 -14 -20 -20 -20 -20 -20 -20 -20 -20 -20 -20 -20 -20 -20 -7 -20 -20 -20 -20 -20 -20 -20
11 -20 -20 -20 -20 -20 -20 -20 -20 -20 -20 -20 -20 -20 -20 -20 -20 -20 -18 -9 -20 -20 -20 -20 -20 -20 -20 -20 -20 -20 -20 -20 -20 -20 -20 -20 -9 -20 -20 -20 -20 -20 -20
-20 -20 -20 -20 -20 -20 -20 -20 -20 -20 -20 -20 -20 -20 -20 -20 -20 -20 -16 -20 -20 -20 -20 -20 -20 -20 -20 -20 -20 -13 13 -3 -20 -20 -20 -20 -20 -4 -20 -20 -20 -20 -20
-20 -20 -20 -20 -20 -20 -20 -20 -20 -20 -20 -20 -20 -20 -20 -20 -20 -20 -20 -20 -20 -20 -20 -20 -20 -20 -20 -20 -20 -20 -19 -20 10 16 -20 -20 -20 -20 -20 -20 -20 -20 -20
-20 -20 -20 -20 -20 -20 -20 -20 -20 -20 -20 -20 -20 -20 -20 -20 -20 -20 -20 -20 -20 -20 -20 -20 -20 -20 -20 -20 -20 -20 -20 -20 13 18 22 10 -20 7 1 -14 4 -20 -20
-20 -20 -20 -20 -20 -20 -20 -20 -20 -20 -20 -20 -20 -20 -20 -20 -20 -20 -20 -20 -13 -10 -20 -3 -11 -18 -8 -20 12 18 5 -20 -20 11 -3 20 -19 -20 -20 -20 -3 -0 -20
-20 -20 -20 -20 -20 -20 -20 -20 -20 -20 -20 -20 -20 -20 -20 -20 -20 -20 -20 -20 -20 -17 -20 -4 -1 -12 -20 -20 -20 -10 18 26 -4 -5 5 10 18 5 -20 1 -3 -8 -20
-20 -20 -20 -20 -20 -20 -20 -20 -20 -20 -20 -20 -20 -20 -20 -20 -20 -20 -20 -20 -20 -20 -20 -20 -20 -20 -20 -9 -20 -20 -20 0 21 20 21 18 12 10 12 3 22 15 -20
-20 -20 -20 -20 -20 -20 -20 -20 -20 -20 -20 -20 -20 -20 -20 -20 -20 -20 -20 -20 -20 -20 -20 -20 -20 -20 -20 -20 -19 -5 -19 1 -3 27 16 14 16 8 23 5 22 9 -18
-20 -20 -20 -20 -20 -20 -20 -20 -20 -20 -20 -20 -20 -20 -20 -20 -20 -20 -20 -20 -20 -20 -16 -19 9 14 13 10 -12 -5 9 8 4 12 -0 -5 17 12 7 8 5 3 5
-20 -20 -20 -20 -20 -20 -20 -20 -20 -20 -20 -20 -20 -20 -20 -20 -20 -20 -20 -20 -20 -20 -20 4 10 12 9 2 10 5 17 14 26 9 13 17 16 17 9 6 10 11 4
-20 -20 -20 -20 -20 -20 -20 -20 -20 -20 -20 -20 -20 -20 -20 -20 -20 -20 -20 -20 -20 -20 -20 -8 -19 10 8 5 4 5 18 33 13 2 -16 9 13 18 14 11 11 8 3
-20 -20 -20 -20 -20 -20 -20 -20 -20 -20 -20 -20 -20 -20 -20 -20 -20 -20 -20 -20 -20 -20 -20 -20 -10 0 7 -14 6 9 1 24 16 12 15 17 12 15 16 13 12 12 5
-15 -10 -20 -20 -20 -20 -20 -20 -20 -20 -20 -20 -20 -20 -20 -20 -20 -20 -20 -3 -4 -20 -20 -20 -4 -11 -20 7 8 9 6 14 26 22 14 2 10 10 14 13 11 3 7
19 14 2 -16 -20 -20 -20 -20 -20 -20 -20 -20 -20 -20 -20 -20 -20 -9 -4 -1 1 -1 -1 -3 -2 -16 8 8 9 9 5 4 12 -1 23 8 12 9 14 15 9 11 -1
10 -0 -19 -10 -3 -7 -20 -20 -20 -20 -20 -20 -20 -20 -20 -20 -16 -2 -4 -2 -1 0 0 4 -7 6 5 1 -8 7 2 6 2 16 5 14 17 8 15 18 11 10 5
2 3 -0 -6 -18 -20 -20 -20 -20 -20 -20 -20 -20 -20 -20 -15 -0 -3 -4 -2 -2 2 3 2 -8 0 -4 1 7 6 6 8 4 3 9 2 1 13 -0 18 15 13 -3
-15 -17 -20 -20 -20 -20 -20 -20 -20 -20 -20 -20 -18 -4 -2 0 0 -0 1 1 2 3 2 5 -13 1 4 7 -0 4 8 7 8 8 6 2 -0 2 13 18 16 13 2
-20 -20 -20 -20 -20 -20 -7 -4 -2 -20 -20 -5 0 2 2 0 1 2 1 4 3 -1 0 8 2 3 8 8 8 6 0 6 9 7 3 4 2 -3 -1 16 18 12 6
-20 -20 -20 -20 -17 -3 -3 -1 -1 0 0 1 3 2 0 0 -1 1 1 1 1 -19 2 -1 6 6 3 3 1 -1 -1 7 -12 -9 2 -0 1 -4 1 3 18 13 8
-20 -20 -20 -5 -3 -2 -1 -0 0 1 1 2 0 1 1 1 -1 -0 1 -7 2 -20 -2 4 3 -0 -8 1 3 -9 -15 -13 -6 -20 1 -0 -2 -2 6 11 20 15 6

GFSGL_prec_radar_048.txt.gz
Reflectivity
-20 -20 -20 -20 -13 -20 -20 -20 -10 -20 2 -12 -4 -2 -9 -20 -20 -20 1 -7 -0 10 15 -4 25 33 -4 -20 -20 -20 -20 -20 -20 -20 -20 -20 -20 -20 -20 -20 -20 -20 -20
-8 29 -9 35 31 10 7 -18 32 5 3 -0 10 -2 -18 -20 -20 14 10 -19 23 -14 -0 16 -1 -19 -20 -20 -20 -20 -20 -20 -20 -20 -20 -20 -20 -20 -20 -20 -20 -20 -20
-18 -11 -2 3 -7 -20 31 -10 24 16 10 8 -16 -20 -20 -10 4 10 26 25 -14 8 15 -5 -5 -20 -20 -20 -20 -19 -17 -19 -12 -18 -20 -20 -20 -20 -20 -20 -20 -20 -20
5 -20 -20 -20 7 -3 -14 11 20 9 6 -15 6 14 10 -5 -5 16 -9 16 -8 -4 -19 -20 -20 -20 -20 2 -20 -20 -13 -8 7 9 -18 -20 -20 -20 -20 -20 -20 -20 -20
-13 -18 -20 -17 -0 2 11 4 15 18 1 6 -4 -18 -19 -14 -5 -19 -13 -10 -12 -20 -20 -20 -20 -20 -20 -15 -20 -20 -20 -20 -12 1 -20 -20 -20 -20 -20 -20 0 -20 -20
27 -20 -20 -20 -20 -11 16 17 -20 -20 -20 -20 -20 -20 -20 -20 -2 -3 4 -20 -20 -18 -16 -15 -20 -20 -20 -20 -20 -20 -20 -20 -20 -20 -20 -20 -20 -20 -20 -10 -20 -20 -20
-20 -20 -20 -20 -20 -20 -20 -20 -20 -20 -20 -20 -20 -20 -20 -20 -7 -20 -20 -20 -20 -20 -20 -20 -20 -20 -20 -20 -20 -20 -20 -20 -20 4 -16 -20 -20 -20 15 -11 2 -2 -20
-20 -20 -20 -20 -20 -20 -20 -20 -20 -20 -20 -20 -20 -20 -20 -19 -20 -5 7 -20 -20 -20 -20 -20 -20 -20 -20 -20 -20 -20 -20 -20 -20 5 16 -1 15 13 14 8 -16 7 -9
-20 -20 -20 -20 -20 -20 -20 -20 -20 -20 -20 -20 -20 -20 -20 -20 -15 -20 -20 -20 -20 -20 -20 -20 -20 -20 -20 -20 -20 -20 -20 -20 -20 -20 -20 21 9 10 4 9 -7 -20 -20
-20 -20 -20 -20 -20 -20 -20 -20 -20 -20 -20 -20 -20 -20 -20 -20 -20 -20 -20 -20 -20 -20 -20 -20 -20 -20 -20 -20 -20 -20 -20 -20 -12 16 -4 -17 -20 16 15 19 24 -20 8
-20 -20 -20 -20 -20 -20 -20 -20 -20 -20 -20 -20 -20 -20 -20 -20 -20 -20 -20 -20 -20 -20 -20 -20 -20 -20 -20 -20 -20 -20 -20 -20 -20 -9 -20 20 8 -15 -20 5 8 -15 -20
-20 -20 -20 -20 -20 -20 -20 -20 -20 -20 -20 -20 -20 -20 -20 -20 -20 -20 -20 -20 -20 -20 -20 -20 -20 -20 -20 -20 -20 -20 -20 -20 -20 1 -1 -10 -5 24 4 2 -2 -20 -20
-20 -20 -20 -20 -20 -20 -20 -20 -20 -20 -20 -20 -20 -20 -20 -20 -20 -20 -20 -20 -20 -20 -20 -20 -20 -20 -20 -20 -20 -20 -20 -20 -20 -18 -3 4 -12 -10 36 25 21 -13 -20
-20 -20 -20 -20 -20 -20 -20 -20 -20 -20 -20 -20 -20 -20 -20 -20 -20 -20 -20 -20 -20 -20 -20 -20 -20 -20 -20 -20 -20 -20 -20 1 13 -17 -1 2 12 -7 10 -18 -20 -18 16
-20 -20 -20 -20 -20 -20 -20 -20 -20 -20 -20 -20 -20 -20 -20 -20 -20 -20 -20 -20 -20 -20 -20 -20 -20 -18 -20 -20 -20 -20 -20 -20 -20 11 -20 -8 0 -20 0 -19 -20 -1 -12
-20 -20 -20 -20 -20 -20 -20 -20 -20 -20 -20 -20 -20 -20 -20 -20 -20 -20 -20 -20 -20 -20 -20 -20 -18 -20 -20 -20 -20 -6 -20 -17 -20 -6 28 4 -20 -0 1 -0 -18 -15 -20
-20 -20 -20 -20 -20 -20 -20 -20 -20 -20 -20 -20 -20 -20 -20 -20 -20 -20 -20 -20 -20 -20 -20 -20 -20 -20 -20 -14 0 0 3 4 -20 -20 14 2 2 -18 14 11 -17 2 -9
-20 -20 -20 -8 -12 -15 4 7 -4 -8 -20 -20 -20 -20 -20 -17 -20 -20 -20 -20 -20 -20 -20 -20 -20 -20 -20 -6 -20 1 2 -1 -20 -19 5 26 7 15 3 9 -7 -18 -20
-19 -5 5 -8 7 14 6 3 1 2 -6 -20 -20 -20 -20 -20 -20 -20 -20 -20 -20 -20 -20 -20 -20 -20 -20 -17 -20 -8 2 2 -11 -15 15 11 22 10 -12 -14 16 12 -20
11 11 18 17 17 12 6 -2 0 -1 -16 -20 -20 -20 -20 -20 -20 -20 -19 -20 -20 -20 -20 -20 -16 -20 -20 -17 -8 -11 -6 -4 -15 -17 7 18 -1 14 4 -20 5 9 8
23 21 22 19 10 5 2 -4 -19 -20 -20 -20 -20 -20 -20 -20 -20 -8 -18 -20 -20 -20 -20 -0 -20 -20 -8 -6 1 -20 -2 -7 -13 3 -20 3 20 4 -19 -3 -19 15 -17
23 20 16 11 3 -5 -20 -20 -20 -20 -20 -20 -20 -20 -20 -20 -4 -20 -20 -20 -20 -20 -5 -20 -20 -19 -3 -4 -18 -20 -2 -14 -1 -9 -3 -20 -4 9 -18 -20 -12 13 1
17 15 13 8 -1 -20 -20 -20 -20 -16 -20 -20 -20 -15 -20 -20 -20 -20 -20 -20 -20 -20 -20 -20 -16 -3 -17 -20 -14 6 1 1 -17 -19 -20 -9 -20 -20 -20 -20 -20 4 11
11 7 -3 -20 -20 -20 -20 -19 -20 -20 -20 -20 -17 -20 -20 -20 -20 -20 -20 -20 -20 -20 -20 -2 -18 -20 -20 0 -3 -18 -20 -20 -10 -7 -19 -20 -20 -20 -20 -20 -20 -20 22
-10 -18 -20 -20 -20 -3 -7 -5 -10 -20 -20 -20 -20 -20 -20 -18 -15 -20 -20 -20 -20 -19 -19 -20 -19 -4 -14 -20 -20 -20 -20 -5 -20 -20 -20 -20 -20 -20 -20 -20 -20 -8 17
-20 -20 -20 -20 -6 -9 -20 -16 -20 -20 -20 -20 -20 -20 -4 -18 -20 -20 -14 -20 -7 -20 -20 -19 -20 -20 -20 -20 0 -3 -20 -20 -20 -20 -14 -20 -20 -20 -20 -20 -19 -20 18

GFSGL_prec_radar_051.txt.gz
Reflectivity
-9 -15 -20 -20 20 -12 7 2 -20 -20 -20 -20 -20 -20 -19 -12 -9 3 -20 -20 19 -3 21 -10 31 4 17 13 -9 -18 -20 -20 -20 -20 -20 -20 -20 -20 -20 -20 -20 -20 -20
8 -18 -17 -9 37 34 34 26 -20 6 -8 -20 -20 -20 -20 -7 5 -16 -20 -20 -20 25 29 29 12 1 -19 -20 -20 -20 -20 -20 -20 -20 -20 -20 -20 -20 -20 -20 -20 -20 -20
-4 22 12 30 29 1 -3 -4 -20 -20 -20 -20 -20 -13 -3 15 14 -17 -13 9 -12 25 23 2 -5 -0 -20 -20 -20 -20 -14 3 1 6 -20 -20 -20 -20 -17 0 -19 -20 -11
-9 -6 15 18 -11 -20 -20 -6 -19 11 7 -20 -13 12 12 -10 4 -10 2 14 -2 14 -13 -19 10 -18 -20 -20 -20 -20 -20 -20 -14 1 4 -17 -13 -20 -20 -11 -4 -20 -20
21 -20 -20 -20 -20 -20 -5 14 20 8 13 8 8 9 -13 -15 -9 3 11 -5 11 -15 -20 -6 -19 -20 -20 -20 -20 -20 -20 -20 -16 -20 -20 -20 -20 -20 -18 -9 12 9 -6
-20 -20 -20 -20 -20 -20 -20 17 5 2 5 10 9 3 11 11 15 11 -19 -20 -20 -15 -20 -20 -20 -20 -20 -20 -20 -20 -20 -20 -20 -20 -20 -20 -20 -20 -20 -4 16 12 7
-20 -20 -20 -20 -20 -20 -16 -20 -20 -20 -13 -16 -20 -20 -20 -20 -19 -15 -20 -20 -20 -20 -20 -20 -20 -20 -20 -20 -20 -20 -20 -20 -20 -20 -20 -20 -20 -20 -20 6 15 17 24
-20 -5 11 -20 -20 7 -20 -20 -20 -20 -20 -20 -20 -20 -20 -20 -20 -20 -20 -20 -20 -20 -20 -20 -20 -20 -20 -20 -20 -20 -20 -20 -20 -20 -20 -20 -20 -20 -13 4 6 -4 17
-20 -20 -20 -20 -20 -20 -20 -20 -20 -20 -20 -20 -20 -20 -20 -20 -19 -20 -20 -20 -20 -20 -20 -20 -20 -20 -20 -20 -20 -20 -20 -20 -20 -20 -20 -20 -20 -17 -17 5 -5 15 14
-20 -20 -20 -20 -20 -20 -20 -20 -20 -20 -20 -20 -20 -20 -20 -20 -20 -20 -20 -20 -20 -20 -20 -20 -20 -20 -20 -20 -20 -20 -20 -20 -20 -20 -20 -20 -20 -20 -19 -11 32 13 14
-20 -20 -20 -20 -20 -20 -20 -20 -20 -20 -20 -20 -20 -20 -20 -20 -20 -20 -20 -20 -20 -20 -20 -20 -20 -20 -20 -20 -20 -20 -20 -20 -20 -20 -20 -20 -20 -16 2 -13 -20 -7 5
-20 -20 -20 -20 -20 -20 -20 -20 -20 -20 -20 -20 -20 -20 -20 -20 -20 -20 -20 -20 -20 -20 -20 -20 -20 -20 -20 -20 -20 -20 -20 4 -20 -20 -20 -20 -20 -20 -20 -11 -7 -20 -20
-20 -20 -20 -20 -20 -20 -20 -20 -20 -20 -20 -20 -20 -20 -20 -20 -20 -20 -20 -20 -20 -20 -20 -20 -20 -20 -20 -20 -20 -20 -20 -16 4 -20 -18 -10 -18 -20 -20 0 6 19 16
-20 -20 -20 -20 -20 -20 -20 -20 -20 -20 -20 -20 -20 -20 -20 -20 -20 -20 -20 -20 -20 -20 -20 -20 -20 -20 -20 -20 -20 -20 -20 -20 0 -1 -20 -20 -20 -20 -14 8 9 -13 -12
-20 -20 -20 -20 -20 -20 -20 -20 -20 -20 -20 -20 -20 -20 -20 -19 -19 -20 -20 -20 -20 -20 -20 -20 -20 -20 -20 -20 -20 -20 -20 -20 -17 -20 -20 -20 -17 16 9 -20 -10 -20 8
-20 -20 -20 -20 -20 -20 -20 -20 -18 -19 -6 0 3 5 0 -1 -9 -20 -20 -20 -20 -20 -20 -20 -20 -20 -20 -20 -20 -20 -20 -20 -15 -20 -20 -20 -20 -17 3 1 10 -20 -20
-20 -20 -20 -20 -20 -20 -16 -11 -8 3 5 -5 3 -17 -16 -5 -8 -18 -20 -20 -20 -20 -20 -20 -20 -20 -20 -20 -20 -20 -20 -20 -11 -3 -20 -20 -19 -3 9 6 10 4 -20
-20 -20 -15 8 3 3 6 12 5 -4 15 11 10 5 8 11 12 3 -14 -20 -20 -20 -20 -20 -20 -20 -20 -20 -20 -20 -20 -20 -20 -20 -20 -20 -20 9 5 15 -16 2 -4
-20 7 19 17 15 13 12 18 18 10 6 6 7 0 -6 -2 3 -7 -20 -20 -20 -20 -20 -20 -20 -20 -20 -20 -20 -20 -20 -20 -13 -20 -20 1 -20 2 13 5 21 -10 -20
22 20 14 19 25 24 19 17 15 14 11 4 -3 -11 -19 -20 -20 -20 -20 -20 -20 -20 -20 -20 -20 -20 -20 -20 -20 -20 -20 -20 -10 -20 -1 -18 -16 1 15 8 -18 18 0
23 25 23 19 20 19 16 13 7 4 3 3 2 -10 -20 -20 -20 -20 -20 -20 -20 -20 -20 -20 -20 -20 -20 -20 -10 -20 -20 -18 -20 -6 -20 -20 -20 -20 11 8 -13 -20 -20
20 20 20 18 16 14 10 7 6 5 -2 -9 -19 -20 -20 -20 -20 -20 -20 -20 -20 -20 -20 -20 -20 -20 -20 -20 -20 -20 -15 -4 -15 -20 -20 -20 -20 -6 -15 6 2 -20 -20
19 17 14 14 13 12 9 4 -2 -8 -20 -20 -20 -20 -20 -20 -20 -20 -20 -20 -20 -20 -20 -20 -20 -20 -20 -20 -20 3 -20 -20 -20 -20 -20 -20 -20 -20 -20 -20 -18 -20 -20
12 11 9 7 7 7 3 -4 -19 -20 -20 -20 -20 -20 -20 -20 -20 -20 -20 -20 -20 -20 -20 -20 -20 -20 -20 -20 -20 -20 -20 -20 -20 -20 -20 -20 -20 -20 -20 -20 -20 -20 -20
5 5 5 2 -4 -14 -20 -20 -20 -20 -20 -20 -20 -20 -20 -20 -20 -20 -20 -20 -20 -20 -20 -20 -20 -20 -20 -20 -20 -20 -20 -13 -20 -20 -20 -20 -20 -20 -20 -20 -20 -20 -20
-10 -16 -20 -20 -20 -20 -20 -20 -20 -20 -20 -20 -20 -20 -20 -20 -20 -20 -20 -20 -20 -20 -20 -20 -20 -20 -20 -20 -20 -20 -3 -20 -20 -15 -20 -20 -20 -20 -20 -20 -20 -20 -20

GFSGL_prec_radar_057.txt.gz
Reflectivity
-20 -7 -7 -8 -20 -20 -20 -20 -13 -11 7 33 35 5 -0 11 -8 -20 -20 -20 -20 -4 -20 18 -3 -15 20 -10 -8 -8 1 18 -18 -20 -20 -20 -20 -20 -20 -20 -20 -20 -20
-20 -16 10 23 -17 4 6 9 29 35 20 6 29 28 11 -14 -2 27 26 14 -10 10 -5 -12 -18 9 18 10 -20 -10 3 -11 -20 -20 -20 -20 -20 -20 -20 -20 -20 -20 -20
13 7 -10 11 -3 -20 -20 -14 26 14 10 2 5 -1 -11 21 -8 19 -18 22 17 -10 -18 4 21 7 -20 -20 -10 0 -8 -20 -20 -20 -20 -20 -20 -20 -20 -20 -20 -20 -20
-20 -10 -10 -4 20 -3 -20 -20 26 -8 6 -12 -20 -7 -20 0 22 19 24 8 14 -16 -7 -20 18 -1 -20 -20 -4 -10 -20 -20 -20 -20 -20 -20 -20 -20 -20 -20 -20 -20 -20
-20 -20 -20 -20 -10 -20 -9 -20 -20 -16 -20 -20 -20 -20 1 22 17 5 8 -10 -20 -20 8 -20 -20 -12 1 9 -13 -20 -20 -20 -20 -20 -20 -20 -20 -20 -20 -20 -20 -20 -20
-20 -20 -20 -20 -20 -20 -3 -17 -20 -20 -20 -20 -20 17 22 0 20 14 8 -20 -5 7 -16 -20 -20 5 7 4 -20 -20 -20 -20 -20 -20 -20 -20 -20 -20 -20 -20 -6 -3 -9
-20 -20 -20 -20 -20 -20 -20 -20 -20 6 3 -20 -0 10 5 22 17 18 19 3 1 -20 -20 -20 -20 -1 9 -20 -20 -20 -20 -20 -20 -20 -20 -20 -20 -20 -20 -20 -20 -20 -20
-20 -20 -20 -20 -20 26 25 -19 -20 6 -15 -18 12 -11 12 14 23 19 16 -12 -20 -20 -20 -20 -15 1 -20 -20 -20 -20 -20 -20 -20 -20 -20 -20 -20 -20 -20 -20 -20 -20 -20
-20 -20 -20 -16 -20 13 9 -13 -20 -7 27 -20 -14 23 11 12 18 13 10 -20 -20 -19 -20 -20 -20 -20 -20 -20 -20 -20 -20 -20 -20 -20 -20 -20 -20 -20 -20 -20 -15 -20 -20
-20 -8 16 -13 8 11 -2 24 11 4 -19 10 11 11 18 -2 15 8 -3 -20 -20 -20 -20 -20 -20 -20 -20 -20 -20 -20 -20 -20 -20 -20 -20 -20 -20 -20 -20 -20 -20 2 -20
-20 -3 -20 -20 -20 -20 -19 -17 -4 15 -20 -7 -13 -19 -20 -20 -20 -11 10 -17 -20 -20 -20 -20 -20 -20 -20 -20 -20 -20 -20 -20 -20 -20 -20 -20 -20 -20 -20 -20 -20 -3 -11
-20 -20 -20 -20 -5 -7 6 3 -16 -20 -20 -20 -20 -20 -20 -20 10 13 13 6 -20 -20 -17 -4 -20 -20 -20 -20 -20 -20 -20 -20 -20 -20 -20 -20 -20 -20 -20 -20 -20 -20 -19
-20 -20 -20 -20 13 19 -8 -20 -20 -20 -20 -20 -20 -20 -20 -20 -15 11 -3 -20 -20 -20 -20 -20 -20 -14 -17 -20 -20 -20 -20 -20 -20 -20 -20 -20 -20 -20 -20 -20 -20 -20 -20
-20 -20 -20 -20 -20 -20 -20 -20 -20 -20 -20 -20 -20 -20 -20 -20 -20 -20 -20 -20 -20 -2 4 -2 5 -4 1 -1 -16 -20 -20 -20 -20 -20 -20 -20 -20 -20 -20 -20 -20 -20 -20
-20 -20 -20 -20 -20 -20 -20 -20 -20 -20 -12 -20 -20 -20 -20 -20 -20 -20 -20 -8 11 15 8 2 2 -6 -15 -20 -20 -20 -20 -20 -20 -20 -20 -20 -20 -20 -20 -20 -20 -20 -20
-20 -20 -20 -20 -20 -20 -20 -16 7 6 -20 -20 -20 -20 -20 -20 -20 -12 7 12 6 2 5 -4 -8 -13 -20 -20 -20 -20 -20 -20 -20 -20 -20 -20 -20 -20 -20 -20 -20 -20 -20
-8 -13 -20 -20 -20 -20 -10 -20 -20 -20 -19 -6 8 13 5 5 13 9 -7 -15 -12 3 4 -0 -9 -20 -20 -20 -20 -20 -20 -20 -20 -20 -20 -20 -20 -18 -20 -20 -20 -20 -20
-20 -20 10 26 22 18 18 18 18 17 17 14 14 13 8 2 -2 -5 -6 -0 -2 -19 -20 -20 -20 -20 -20 -20 -20 -20 -20 -20 -20 -20 -20 -20 -20 -20 -20 -20 -20 -20 -20
-20 -5 16 25 20 20 14 10 7 5 6 8 11 12 15 14 12 12 12 11 8 -2 1 6 2 -4 -12 -17 -20 -20 -20 -20 -20 -20 -20 -20 -20 -20 -20 -20 -20 -20 -20
26 25 21 10 4 -1 6 14 17 14 12 10 7 4 8 7 9 10 11 11 8 4 3 -0 -14 -20 -20 -20 -20 -20 -20 -20 -20 -20 -20 -20 -20 -20 -20 -20 -20 -20 -20
19 -1 -10 -17 -18 -14 -12 -18 -20 -19 -19 -12 -15 -12 -16 -20 -19 -20 -20 -20 -20 -20 -20 -20 -20 -20 -20 -20 -20 -20 -20 -20 -20 -20 -20 -20 -20 -20 -20 -20 -20 -20 -20
7 5 -2 -17 -20 -20 -20 -20 -20 -20 -20 -20 -20 -20 -20 -20 -18 -15 -20 -20 -20 -20 -20 -20 -20 -20 -20 -20 -20 -20 -20 -20 -20 -20 -20 -20 -20 -20 -20 -20 -20 -20 -20
10 1 -17 -20 -20 -20 -20 -20 -20 -20 -20 -20 -20 -20 -20 -20 -20 -20 -20 -20 -20 -20 -20 -20 -20 -20 -20 -20 -20 -20 -20 -20 -20 -20 -20 -20 -20 -20 -20 -20 -20 -20 -20
-8 -20 -20 -20 -20 -20 -20 -20 -20 -20 -20 -20 -20 -20 -20 -20 -20 -20 -20 -20 -20 -20 -20 -20 -20 -20 -20 -20 -20 -20 -20 -20 -20 -20 -20 -20 -20 -20 -20 -20 -20 -20 -20
-20 -20 -20 -20 -20 -20 -20 -20 -20 -20 -20 -20 -20 -20 -20 -20 -20 -20 -20 -20 -20 -20 -20 -20 -20 -20 -20 -20 -20 -20 -20 -20 -20 -20 -20 -20 -20 -20 -20 -20 -20 -20 -20
-20 -20 -20 -20 -20 -20 -20 -20 -20 -20 -20 -20 -20 -20 -20 -20 -20 -20 -20 -20 -20 -20 -20 -20 -20 -20 -20 -20 -20 -20 -20 -20 -20 -20 -20 -20 -20 -20 -20 -20 -20 -20 -20

GFSGL_prec_radar_060.txt.gz
Reflectivity
-20 -20 -20 -20 -20 -20 -20 -20 -4 -1 -20 8 13 18 27 19 22 22 23 23 -12 11 -7 18 -20 -13 -20 -20 -20 -14 -20 -18 -20 -20 -20 -14 -20 -20 -20 -20 -20 -20 -20
-18 -20 -20 -19 -17 21 -12 -20 -20 -20 -19 -16 -7 4 28 29 23 15 25 22 25 16 -17 -20 -19 14 -20 -9 -19 -5 -15 -20 -20 -20 -16 -20 -20 -20 -20 -20 -20 -20 -20
-20 -20 -20 -20 -20 -20 -20 -20 -20 -20 -20 3 36 11 -10 18 31 22 23 33 23 -10 -20 -17 22 -2 -20 0 -17 13 -2 -15 -20 -20 -20 -20 -20 -20 -20 -20 -20 -20 -20
-20 -20 -20 -20 -20 -20 -20 1 2 -20 -20 -11 8 -19 -20 -20 9 26 8 -20 -6 23 -19 6 4 -0 1 -6 -19 -1 -15 -20 -7 -7 -20 -20 -20 -20 -20 -20 -20 -20 -20
-20 -20 -20 -20 -20 -20 -20 -1 9 17 -20 -20 20 25 -13 -20 -20 -20 -20 11 -9 -9 -6 -1 -2 25 20 12 11 -20 -18 -19 0 -20 -20 -20 -20 -20 -20 -20 -20 -20 -20
-20 -20 -20 -20 -20 -20 -20 16 12 21 24 17 -20 -20 30 -20 -20 -13 9 -20 -20 -7 6 12 7 26 12 22 12 5 -3 -1 -17 -20 -20 -20 -20 -20 -20 -20 -20 -20 -20
-20 -20 -20 -20 -20 -20 -20 -20 16 25 24 -20 16 15 -5 -20 -4 14 4 -3 -16 10 13 22 18 16 17 -9 17 14 4 7 -1 -20 -20 -20 -20 -20 -20 -20 -20 -20 -20
-20 -20 -20 -20 -20 -20 -20 -20 -16 23 25 14 19 24 27 -19 6 9 13 3 -3 20 14 15 13 8 -0 9 -6 -9 -11 -19 -20 -20 -20 -20 -20 -20 -20 -20 -20 -20 -20
-20 -20 -20 -20 -20 -20 -20 -20 -20 5 25 22 17 21 1 -4 23 18 16 4 20 14 17 18 15 16 16 11 6 -13 -20 -20 -20 -20 -20 -20 -20 -14 -12 -20 -17 -20 -20
-20 -20 -20 -20 -20 -18 -18 -20 21 14 -1 -6 -5 14 25 22 24 18 18 5 12 14 9 18 18 10 11 5 -16 -20 3 -2 -2 -5 0 1 7 5 -5 -1 -9 -3 -3
-20 -20 -20 -20 -5 -19 2 9 15 2 8 1 8 20 18 19 20 14 12 -6 -4 10 9 -1 -16 -1 -20 -20 -20 -11 -8 -10 -15 -6 -5 9 6 4 4 -4 -20 -13 -15
-20 -19 -6 18 -20 -11 -20 -16 -3 -9 -1 15 20 21 18 15 17 16 10 11 13 -15 -20 -20 -20 -20 -20 -20 -7 -3 -2 -10 -20 -11 -0 -15 -14 -16 -17 -20 -20 -20 -19
-20 -19 -20 -5 7 13 23 9 5 21 20 18 14 -15 -19 0 -6 13 11 9 10 -11 -20 -20 -20 -20 -11 -13 -13 -11 -15 -3 -5 -20 -20 -20 -20 -20 -20 -20 -20 -20 -20
-20 -20 -18 5 5 14 16 20 20 21 22 -7 -20 -20 -20 -20 -20 -20 -7 -6 2 -14 -20 -16 -7 1 -14 1 4 3 -4 -20 -19 -18 -20 -20 -20 -20 -20 -20 -20 -20 -20
-20 -20 -20 -7 -10 -7 17 21 19 1 -13 -20 -20 -20 -20 -20 -15 9 6 -12 -6 -14 7 3 2 1 -2 -4 -17 -20 -20 -13 -4 -16 -20 -20 -20 -20 -20 -20 -20 -20 -20
-20 -20 -20 -20 -20 -20 -20 -20 -5 -19 -0 -6 -10 -1 -1 7 13 16 13 8 6 9 4 -0 4 -9 -19 -20 -17 -3 4 -14 -20 -20 -20 -20 -20 -20 -20 -20 -20 -20 -20
-20 -20 -20 -20 -20 -20 -20 -12 21 20 24 24 23 21 16 12 10 -1 10 12 5 -4 0 -5 -15 -9 -2 -4 -15 -19 -16 -20 -20 -20 -20 -20 -20 -20 -20 -20 -20 -20 -20
9 9 28 9 -20 -13 -1 19 22 15 14 16 8 6 9 10 9 9 4 -20 -20 -20 -20 -20 -12 -19 -20 -20 -20 -20 -20 -20 -20 -20 -20 -20 -20 -20 -20 -20 -20 -20 -20
-15 -8 -1 1 17 22 20 9 6 0 -4 -9 -7 -2 8 11 10 9 8 7 -1 -9 -18 -20 -20 -20 -20 -20 -17 -18 -20 -20 -20 -20 -20 -20 -20 -20 -20 -20 -20 -20 -20
16 21 18 15 17 17 13 4 4 0 -13 -16 -17 -14 -7 -16 -17 -17 -19 -18 -18 -18 -19 -9 -3 -4 -4 -11 -19 -20 -20 -20 -20 -20 -20 -20 -20 -20 -20 -20 -20 -20 -20
24 24 20 11 9 4 0 -1 2 -2 -9 -9 -7 -11 -18 -20 -20 -19 -20 -20 -20 -20 -20 -20 -20 -20 -20 -20 -20 -20 -20 -20 -20 -20 -20 -20 -20 -20 -20 -20 -20 -20 -20
15 14 9 7 6 3 -6 -15 -19 -20 -20 -20 -18 -19 -20 -20 -20 -20 -20 -20 -20 -20 -20 -20 -20 -20 -20 -20 -20 -20 -20 -20 -20 -20 -20 -20 -20 -20 -20 -20 -20 -20 -20
13 13 12 11 8 0 -18 -20 -20 -20 -20 -20 -20 -20 -20 -20 -20 -20 -20 -20 -20 -20 -20 -20 -20 -20 -20 -20 -20 -20 -20 -20 -20 -20 -20 -20 -20 -20 -20 -20 -20 -20 -20
-18 -18 -19 -19 -20 -20 -20 -20 -20 -20 -20 -20 -20 -20 -20 -20 -20 -20 -20 -20 -20 -20 -20 -20 -20 -20 -20 -20 -20 -20 -20 -20 -20 -20 -20 -20 -20 -20 -20 -20 -20 -20 -20
-17 -20 -20 -20 -20 -20 -20 -20 -20 -20 -20 -20 -20 -20 -20 -20 -20 -20 -20 -20 -20 -20 -20 -20 -20 -20 -20 -20 -20 -20 -20 -20 -20 -20 -20 -20 -20 -20 -20 -20 -20 -20 -20
-20 -20 -20 -20 -20 -20 -20 -20 -20 -20 -20 -20 -20 -20 -20 -20 -20 -20 -20 -20 -20 -20 -20 -20 -20 -20 -20 -20 -20 -20 -20 -20 -20 -20 -20 -20 -20 -20 -20 -20 -20 -20 -20

GFSGL_prec_radar_063.txt.gz
Reflectivity
-20 -20 -20 -20 -20 -20 -20 -20 -20 -20 -20 -20 -20 -20 -20 -20 -20 -20 -20 21 18 21 24 19 16 20 22 -20 -20 -20 -20 -20 -20 -20 -20 -20 -20 -20 -11 -19 -20 -20 -20
-20 -20 -20 -20 -20 -20 -20 -8 -18 -20 -20 -20 -20 -20 -20 -20 -6 9 34 34 29 26 34 33 31 33 10 1 -20 2 -11 -20 -20 -18 7 -10 -20 -20 -20 -20 -20 -20 -20
-20 -20 -20 -20 -20 -20 -20 -20 -20 -20 -20 -20 -20 -20 -20 -15 19 31 16 8 28 22 16 27 32 17 6 -20 6 -5 16 -15 -20 -20 -20 -13 -16 -19 -20 -20 -20 -20 -20
-20 -20 -20 -20 -20 -20 -20 -20 -20 -20 -20 -20 -20 -20 -20 -20 -20 -15 8 19 35 22 15 3 19 22 -11 24 5 -3 -4 15 -20 17 -16 -20 -20 -20 -20 -20 -20 -20 -20
-20 -20 -20 -20 -20 -20 -20 -20 -20 -20 -20 -20 13 15 -20 -20 -20 -20 -20 12 -20 18 19 15 9 -3 15 7 -2 -0 7 -4 2 -6 -12 -20 -17 -20 -20 -20 -20 -20 -20
-20 -20 -20 -20 -20 -20 -20 -20 -20 -20 -20 -20 -20 23 -1 25 10 25 5 -20 -15 23 26 2 -20 18 13 6 13 21 9 15 -20 -2 1 -20 -19 -20 -20 -20 -20 -20 -20
-20 -20 -20 -20 -20 -20 -20 -20 -20 -20 -18 -16 17 23 -1 17 19 6 23 14 6 -4 20 -13 -13 -4 17 -2 26 15 15 9 -2 -7 -18 -19 -20 -20 -20 -20 -20 -20 -20
-20 -20 -20 -20 -20 -20 -20 -20 -18 1 -17 -20 -20 -17 -6 -6 7 15 22 1 -4 21 4 -9 2 13 14 27 3 1 -0 -7 -11 -16 -16 -20 -20 -20 -20 -20 -16 -20 -20
-20 -20 -20 -20 -20 -20 -20 -20 -17 -20 -20 -20 -5 20 18 17 19 13 15 -11 19 12 7 10 17 22 21 20 5 -7 -7 -5 0 -12 -18 -20 -20 -20 -16 -12 -20 -20 -20
-20 -20 -20 -20 -20 -20 -20 -20 -20 5 19 19 17 3 19 10 22 7 7 2 6 5 19 31 24 10 14 11 0 -3 -13 -16 -17 -19 -20 -20 -11 -7 -20 -20 -20 -20 -20
-20 -16 -20 -20 -20 -20 -20 -20 -20 -12 -6 6 11 7 2 18 16 19 18 9 19 29 22 15 9 16 12 2 5 -7 -13 -19 -8 -1 -2 -3 -9 -18 -8 -6 -11 -15 -20
-17 -20 -20 -20 -19 -8 11 24 -20 -15 -18 -4 6 -0 3 10 24 24 22 26 31 29 2 -4 1 14 12 9 -2 3 14 10 5 1 2 1 -2 -16 -7 -3 1 -20 -20
-20 -20 -20 -8 14 22 -20 -20 -20 -12 -6 6 5 14 8 19 23 28 30 23 12 2 -20 8 12 -3 -19 -0 13 10 1 8 7 -8 -4 -13 -20 -16 -12 -20 -20 -20 -20
-16 6 14 -9 4 -16 -20 -13 -0 16 14 17 20 28 24 20 31 -4 5 7 8 1 -13 -18 2 11 12 9 11 -1 -12 -13 -20 -20 -20 -20 -20 -20 -20 -20 -20 -20 -20
3 -19 -14 -1 -18 -20 -16 -15 -8 4 11 12 22 30 37 31 5 -4 1 -13 1 11 12 8 9 11 0 -2 -4 -17 -20 -20 -20 -20 -20 -20 -20 -20 -20 -20 -20 -20 -20
24 29 -10 -20 -20 -20 -19 -0 18 15 17 14 17 13 19 17 16 17 15 14 10 4 3 3 1 -0 -6 -20 -20 -20 -20 -20 -20 -16 -19 -20 -20 -20 -20 -20 -20 -20 -20
20 -18 -18 -11 -20 -20 -18 -20 -18 11 17 19 18 13 11 14 15 12 2 -0 1 4 5 -13 -20 -20 -20 -20 -17 -9 -6 -2 -19 -20 -20 -20 -20 -20 -20 -20 -20 -20 -20
22 26 28 30 30 25 5 -0 -6 2 13 18 16 16 13 3 1 3 -8 -7 -9 -16 -20 -20 -20 -20 -20 -20 -20 -20 -20 -12 -13 -20 -20 -20 -18 -19 -20 -20 -20 -20 -20
27 27 26 22 18 16 17 15 12 11 9 12 10 3 3 -2 -16 -18 -20 -19 -15 -6 -2 -2 -0 -1 -4 -20 -2 -4 -3 -3 -17 -20 -20 -20 -2 -3 -20 -20 -4 -11 -20
26 29 28 26 26 21 22 23 17 10 2 4 -2 -12 -15 -19 -20 -20 -6 -0 -2 -1 -1 -0 -1 -3 -2 -2 -0 -2 -0 -2 -2 -16 -14 -0 1 2 1 1 1 3 1
20 18 17 14 16 15 10 11 -2 -12 -14 -20 -20 -19 -20 -20 -2 -1 -1 -1 -0 -1 -2 -3 -1 -1 -1 -1 -2 1 0 0 -20 -20 -4 -2 2 3 1 3 3 3 2
-16 -11 -7 -6 -5 -7 -7 -5 -3 -4 -6 -13 -18 -20 -20 -20 -20 -20 -5 -1 -0 -5 -2 -20 -20 -20 -7 -20 -20 -1 -8 -20 -15 -3 1 1 2 3 3 4 4 4 3
-18 -14 -12 -10 -8 -6 -11 -11 -16 -20 -20 -20 -20 -20 -20 -20 -20 -17 -20 -20 -20 -20 -20 -20 -20 -20 -20 -20 -20 -20 -11 -10 -1 1 2 3 3 3 3 3 3 3 3
-20 -20 -20 -20 -20 -20 -20 -20 -20 -20 -20 -20 -20 -20 -20 -20 -20 -20 -20 -20 -20 -20 -20 -20 -20 -20 -20 -20 -20 -20 -20 -3 1 1 1 2 1 0 2 1 1 -0 2
-20 -20 -20 -20 -20 -20 -20 -20 -20 -20 -20 -20 -20 -10 -4 -5 -20 -20 -20 -20 -20 -20 -20 -20 -20 -20 -20 -20 -20 -20 -20 -20 -2 -20 -3 -0 -1 -3 -3 -1 -2 -0 -0
-20 -20 -20 -20 -20 -20 -20 -20 -20 -20 -20 -20 -20 -20 -20 -20 -20 -20 -20 -20 -20 -20 -20 -20 -20 -20 -20 -20 -20 -20 -20 -20 -20 -20 -19 -2 -2 -9 -2 -3 -3 0 -1

GFSGL_prec_radar_066.txt.gz
Reflectivity
-20 -20 -20 -20 -20 -20 -20 -20 -20 -20 -20 -20 -20 -20 -20 -20 -20 -20 -20 -20 -15 -5 3 -15 -15 4 -1 17 37 25 22 4 14 -14 1 -20 -20 -20 -20 -19 -20 -20 -20
-20 -20 -20 -20 -20 -20 -20 -20 -20 -20 -20 -20 -20 -20 -20 -20 -20 -20 -20 -20 -20 -20 -20 3 4 27 12 37 31 34 33 25 15 -20 -20 20 -20 -20 -20 -20 -20 -20 -20
-20 -20 -20 -20 -20 -20 -20 -20 -20 -20 -20 -20 -20 -20 -20 -20 -20 -20 -20 -20 -20 20 28 22 33 36 28 31 33 12 22 29 -7 -16 10 5 -20 -13 -20 -12 -20 -20 -20
-20 -20 -20 -20 -20 -20 -20 -20 -20 -20 -20 -20 -20 -20 -20 -20 -20 -20 -20 -20 -16 -18 -5 15 27 27 8 13 14 18 21 -5 18 18 3 7 11 -13 -20 -20 -20 -20 -20
-20 -20 -20 -20 -20 -20 -20 -20 -20 -20 -20 -20 -20 -20 -20 -20 -19 3 -16 -20 -20 -20 -20 -20 -12 -17 13 31 -3 11 4 17 10 -0 8 -17 -11 2 -20 -20 -20 -20 -20
-20 -20 -20 -20 -20 -20 -20 -20 -20 -20 -20 -20 -20 -20 -20 -20 -20 -20 14 1 2 -20 -20 -20 5 12 31 23 14 11 23 -16 3 -14 1 16 3 -13 -20 -20 -20 -20 -20
-20 -20 -20 -20 -20 -20 -20 -20 -20 -20 -20 -20 -20 -2 -20 -20 -18 2 11 27 13 20 2 -2 18 -2 24 4 9 9 14 17 18 16 -6 4 -13 -20 -18 -18 -20 -20 -20
-20 -20 -20 -20 -20 -20 -20 -20 -20 -20 -20 -20 -20 -16 -10 10 12 12 23 11 -5 1 17 13 7 6 -4 13 -19 -13 10 19 6 15 5 -19 -19 -17 -17 -19 -20 -20 -20
-20 -20 -20 -20 -20 -20 -20 -20 -20 -20 -12 -5 -20 -14 1 -20 -2 7 18 19 16 -5 11 12 17 9 30 28 28 34 32 31 15 13 9 5 -11 -18 -20 -8 -20 -20 -16
-20 -20 -20 -20 -20 -20 -20 -20 -20 -4 -20 -20 -20 -20 14 3 20 11 11 -4 -10 -10 8 24 26 21 34 31 36 29 30 20 10 -14 -10 -0 -12 -2 -9 -19 6 -20 -20
-20 -8 -17 1 -11 -20 -20 -20 -20 -20 -20 2 -20 -17 -13 -6 4 12 8 5 -1 16 17 16 22 33 27 30 30 20 10 3 -0 -4 -12 7 -13 -18 -4 -18 -20 -20 -20
-20 -20 -20 -20 -20 -20 -20 -20 14 25 -9 -5 -20 -20 -10 -7 20 18 16 18 28 14 16 21 20 26 28 27 23 13 -4 -13 -14 4 7 -2 -14 -10 -16 -20 -20 -20 -20
-20 -19 -20 -20 -20 -13 26 -20 10 -9 -12 -2 -20 -20 -16 -8 0 17 16 19 22 17 22 24 30 28 19 7 -3 -5 3 13 7 -17 0 -2 -18 -20 -20 -20 -20 -20 -20
-20 -20 16 24 20 14 5 5 -7 -16 8 -20 -19 -13 4 13 16 19 20 23 26 25 31 29 15 7 7 4 18 13 -9 -4 -2 -20 -20 -20 -20 -20 -20 -20 -20 -20 -20
18 -1 -11 -10 -2 -20 -20 -11 -20 -14 3 -8 0 -5 -3 5 15 23 27 28 23 21 18 14 14 10 -7 -10 -20 -20 -20 -20 -20 -20 -20 -20 -20 -20 -20 -20 -20 -20 -20
24 -15 -2 -20 -20 -20 -20 -5 13 19 14 18 20 21 16 16 13 10 14 12 3 10 13 11 4 2 1 -4 -15 -20 -19 -8 -5 -4 -1 -2 -3 -20 -20 -20 -20 -20 -20
32 29 18 11 -13 -0 14 28 34 17 17 18 19 20 21 17 15 11 10 8 0 4 4 -1 1 2 -1 -20 -3 -3 -1 -1 -14 -0 0 -0 -0 0 -4 -20 -20 -20 -20
32 32 31 31 29 28 25 24 26 24 21 20 20 22 21 20 12 4 9 6 1 -7 -6 0 -0 -1 -2 -3 -4 -2 -0 2 2 2 1 2 2 2 1 -7 -20 -15 -20
26 26 24 24 26 28 29 29 27 23 19 21 22 21 21 20 9 -5 -7 0 -0 -4 -12 -3 1 -1 -1 -0 4 1 2 3 1 2 3 3 -1 -8 4 -20 -17 -20 -11
10 16 18 21 22 26 27 25 23 19 18 17 18 19 16 14 6 1 2 1 -1 -1 -2 -2 -2 0 2 2 3 4 4 -15 -15 -20 -20 -0 -1 4 5 4 4 5 -20
-4 -3 3 7 10 11 11 13 15 15 14 8 4 5 -4 -3 2 -2 -2 0 -1 0 2 1 3 2 2 2 0 2 2 3 3 3 3 3 -19 3 3 -7 -18 -20 -20
-10 -8 -18 -11 -9 -8 -4 -3 -1 -3 -3 -4 -2 -9 -17 -3 -1 -1 2 2 3 1 -0 1 1 -0 -1 1 1 3 2 2 3 3 4 3 3 4 -20 -15 -12 -12 -9
-19 -14 -19 -12 -19 -16 -7 -4 -0 -1 -0 1 -1 -1 -1 1 1 1 2 2 1 2 0 -3 -2 -4 -13 0 1 2 3 2 2 2 3 4 4 -5 -1 -6 -9 -18 -7
-20 -20 -20 -17 -4 -1 -0 1 -18 -17 -17 0 2 1 -1 1 2 0 1 2 -1 1 1 -0 -3 -10 -20 -16 -0 -1 -3 -1 0 0 1 4 4 3 1 3 0 0 -20
-20 -20 -20 -20 -20 -14 -20 -20 -17 -4 -2 -1 1 2 0 -0 -1 2 2 -1 -5 -3 -4 -16 -1 -4 -6 -20 -20 -20 -7 -9 -4 -16 -2 1 2 3 3 4 4 4 -20
-20 -20 -20 -20 -20 -20 -20 -20 -10 -9 -3 -1 -0 -0 1 -1 -1 -1 -3 -9 -20 -20 -20 -5 -4 -20 -20 -20 -20 -20 -20 -20 -20 -20 -5 0 2 2 4 4 3 4 1

GFSGL_prec_radar_069.txt.gz
Reflectivity
-20 -20 -7 -11 -9 -20 -20 -20 -20 -20 -20 -20 -20 -20 -20 -20 -20 -20 -20 -20 0 8 -5 10 12 5 -14 -0 17 17 -17 18 40 32 37 30 26 12 -17 -17 -20 -20 -20
-20 -20 -20 -20 -20 -20 -20 -20 -20 -20 -20 -20 -20 -20 -20 -20 -20 -20 -20 -20 -20 -19 -20 -14 -20 -19 -19 -15 8 -2 27 15 24 30 31 29 20 24 -20 -17 7 -20 -20
-20 -20 -20 -20 -20 -20 -20 -20 -20 -20 -20 -20 -20 -20 -20 -20 -20 -20 -20 -20 -20 -20 -20 -16 -20 -9 -20 -3 32 23 27 32 32 22 7 -4 28 24 -19 16 -17 -10 -19
-20 -20 -20 -20 -20 -20 -20 -20 -20 -20 -20 -20 -20 -20 -20 -20 -20 -20 -20 -20 -20 -20 -20 -20 -20 -20 -18 -20 4 -2 24 22 29 -6 8 30 13 -12 24 2 -16 3 -9
-20 -20 -20 -20 -20 -20 -20 -20 -20 -20 -20 -20 -20 -20 -20 -20 -20 -20 -20 -20 -20 -20 18 -7 -20 -20 9 -20 -1 -20 -18 23 37 25 17 11 -10 24 11 15 -2 8 -12
-20 -20 -20 -20 -20 -20 -20 -20 -20 -20 -20 -20 -20 -20 -20 -20 -20 -20 -20 -20 -20 -20 -19 -20 -15 18 14 14 9 13 14 28 38 14 11 -20 13 -20 31 2 17 1 -20
-20 -20 -20 -20 -20 -20 -20 -20 -20 -20 -20 -20 -20 -20 -20 -20 -20 -20 -20 -20 -20 -20 -20 -16 30 12 14 31 31 30 25 19 28 25 14 22 30 35 27 28 27 4 -20
-20 -20 -20 -20 -20 -20 -20 -20 -20 -20 -20 -20 -20 -20 -20 -20 -20 -20 -20 -20 -14 -18 -20 -14 -20 -19 20 13 6 9 15 18 30 -5 4 23 33 41 34 18 11 12 -11
-20 -17 5 -19 -20 -20 -20 -20 -20 -20 -20 -20 -20 -20 -20 -20 -14 -7 4 -15 4 12 12 19 24 25 28 19 3 18 23 37 37 40 35 32 35 37 33 25 11 -10 -0
-20 -20 -20 6 -17 0 -20 -20 -20 -20 -20 -20 -20 -20 4 -19 8 22 15 11 22 22 21 23 25 19 32 24 20 7 3 14 18 23 27 29 22 19 19 9 4 -8 -20
-18 -16 -20 -20 -20 -20 -20 -20 -20 -20 -13 -20 -20 -20 -20 -1 8 23 23 1 4 19 20 17 20 30 23 26 30 23 27 23 30 29 27 23 21 16 10 -7 -13 -13 -20
1 7 -20 -20 -20 -16 -18 5 2 7 -6 -20 6 21 10 14 11 21 20 16 19 4 11 13 20 26 20 21 23 25 20 21 22 22 21 15 -10 -8 -6 -19 -20 -20 -20
-13 -20 -10 -15 -19 -20 -3 -20 -3 -12 19 19 24 19 28 11 1 22 18 16 25 17 -0 17 19 18 17 17 19 26 26 22 21 19 15 -8 2 5 2 -12 -20 -20 -20
1 21 11 1 1 -6 -6 11 18 22 21 25 12 10 17 4 2 12 14 -1 11 7 14 14 20 25 26 26 24 21 18 13 10 7 -0 1 -7 -19 -15 -14 -19 -20 -20
22 21 25 24 16 19 17 24 22 25 26 28 25 15 20 13 19 25 24 14 12 12 10 14 16 19 18 16 12 -1 3 -9 -20 -20 -20 -14 -18 -20 -14 -20 -20 -20 -20
-3 21 31 24 20 21 23 22 23 20 14 14 19 13 18 17 19 20 19 17 18 20 20 19 14 11 8 8 3 -4 -7 -9 -13 -20 -6 -5 -2 -1 -2 -9 -20 -9 -2
31 33 32 28 32 28 7 -7 -6 9 14 14 19 22 25 28 27 27 28 28 27 22 17 16 18 16 11 11 11 4 1 -9 -20 1 0 1 1 1 -1 2 2 2 2
18 27 30 32 24 21 23 25 22 24 24 26 29 29 28 26 23 18 17 17 16 16 16 14 1 -0 -15 -11 -11 -9 -19 -14 4 -9 -1 2 3 4 4 2 1 3 3
-11 5 19 24 24 20 19 15 20 20 25 27 26 25 23 20 18 17 17 15 15 14 13 13 9 0 -4 -1 -1 2 2 5 -1 4 5 7 9 4 3 2 3 -8 -9
-2 -9 1 11 17 20 20 20 21 20 22 24 23 22 20 17 14 15 14 13 7 1 1 -14 -4 -1 -6 -2 -0 3 -0 -3 -2 -3 -1 2 3 6 6 4 6 6 4
-1 2 -4 4 8 8 12 12 11 12 12 13 12 12 10 7 1 -1 -6 -1 -1 -3 -5 -5 -0 -2 -3 -8 -8 -3 -2 0 0 -1 1 3 4 3 4 5 8 9 9
-9 -17 -18 -5 -6 -2 -1 0 -0 1 3 2 6 5 -2 -3 -2 -4 -1 0 1 -3 -6 -1 -3 -5 -2 -1 -1 1 -0 -1 -0 1 1 0 1 1 4 6 6 9 8
-5 -5 -6 -3 -4 -17 -3 -0 2 -1 -1 0 -2 -3 -2 -0 -3 -1 -0 2 -0 1 -2 -3 -2 -5 -3 -3 -1 -1 0 -0 -0 0 0 -0 0 2 4 3 4 9 8
-6 -11 -20 -18 -17 -3 -0 0 -20 -20 -4 -2 1 -1 1 0 2 -0 -0 -0 -2 -1 -1 -3 -2 -5 -20 -6 -0 -3 -3 -18 -5 -4 -2 2 2 -1 1 4 3 4 -0
-20 -20 -20 -6 -2 -1 -1 -2 -1 -1 0 2 2 0 -1 -1 -1 0 -1 -2 -6 -3 -2 -3 0 -4 -3 -20 -20 -9 -6 -20 -20 -20 -7 -2 -1 2 1 1 4 6 7
-20 -20 -10 -3 -3 -2 -1 0 -0 -0 1 1 1 2 1 -1 -1 0 -1 -2 -20 -20 -3 -2 -3 -6 -20 -20 -11 -20 -20 -20 -20 -20 -14 -4 -2 -2 2 4 4 3 -7

GFSGL_prec_radar_072.txt.gz
Reflectivity
-20 -20 -20 -20 -8 -20 -20 -20 -20 -1 -20 -20 -20 -20 -20 -20 -20 -18 -13 -20 -20 -18 -20 -20 -20 -20 -20 7 7 18 14 -20 -9 -20 19 -17 26 8 5 -4 23 28 17
-20 -20 -20 -20 -20 -19 -20 -20 -20 -20 -20 -20 -20 -20 -20 -20 -20 -20 -20 -20 -20 -20 -20 -20 -20 -5 -18 12 1 -17 -18 -20 15 13 14 14 18 24 13 18 10 31 7
-20 -20 -20 -20 -20 -20 -20 -20 -20 -20 -20 -20 -20 -20 -20 -20 -20 -20 -20 -20 -20 -20 -20 -20 -20 -18 4 1 -18 -8 -20 -16 -2 -19 -8 32 22 18 -2 -20 -12 20 30
-20 -20 -20 -20 -20 -20 -20 -20 -20 -20 -20 -20 -20 -20 -20 -20 -20 -20 -20 -20 -20 -20 -20 -20 -20 -20 -20 -19 -10 -20 -20 -20 -10 -20 -20 7 20 36 15 -5 10 -9 9
-20 -20 -20 -20 -20 -20 -20 -20 -20 -20 -20 -20 -20 -20 -20 -20 -20 -20 -20 -20 -20 -20 -20 -20 -20 -20 -20 -19 22 -7 9 15 20 5 1 -4 20 38 30 13 14 14 29
-20 -20 -20 -20 -20 -20 -20 -20 -20 -20 -20 -20 -20 -20 -20 -20 -20 -20 -20 -20 -20 -20 -20 -20 -20 -20 -20 -20 -12 5 5 33 13 1 32 22 44 30 4 19 41 29 23
-20 -20 -20 -20 -20 -20 -20 -20 -20 -20 -20 -20 -20 -20 -20 -20 -20 -20 -20 -20 -20 -20 -20 -20 -20 -20 -20 -20 -8 -12 10 29 30 18 1 14 22 13 24 36 31 24 28
-20 -20 -20 -20 -20 -20 -20 -20 -20 -20 -20 -20 -20 -20 -20 -20 -20 -20 -20 -20 -20 -20 -20 -20 -4 -12 -7 -4 -17 -20 6 28 22 33 20 14 18 31 27 29 34 37 32
-20 -20 -20 -20 -20 -20 -20 -12 0 -20 -20 -20 -20 -20 -20 -20 -20 -20 -20 -20 2 -20 -20 -20 -20 -20 13 16 14 16 21 20 36 32 40 40 26 28 25 31 26 25 18
-20 -20 -20 -20 -20 -20 -20 -20 -20 -6 -20 -20 -20 -20 10 -15 2 4 -17 -18 7 9 -19 -19 19 17 26 24 19 11 16 24 19 24 25 25 25 27 32 24 21 22 18
-4 3 -20 -20 -20 -20 -1 -20 -20 -20 -20 -20 -20 -20 20 12 13 18 12 4 -20 1 11 2 24 28 22 22 20 2 9 19 22 20 13 21 27 27 18 6 9 14 11
-13 -9 11 -4 1 -4 17 6 -20 -9 -8 -14 -13 2 -8 4 22 15 16 17 27 22 23 7 21 32 26 24 21 22 19 15 16 22 26 28 25 20 13 15 11 -1 2
-20 -17 -16 -20 -18 -19 15 21 -6 1 9 16 2 10 -2 3 20 26 19 26 15 25 42 35 25 21 25 20 21 19 11 4 12 16 17 15 16 14 9 0 4 5 7
-20 -15 -18 -19 4 -15 -11 15 12 16 8 20 17 19 23 26 24 31 31 24 27 28 31 21 21 14 20 15 17 13 14 14 14 16 16 12 7 6 1 -11 -14 -12 -20
-20 -17 9 1 -13 -4 17 11 18 23 25 16 19 22 22 17 26 34 35 37 31 29 18 22 23 22 22 22 21 20 21 21 21 21 18 13 7 6 -8 -19 -13 -9 -12
-20 -20 -12 11 14 8 -2 9 26 28 28 24 18 20 26 27 30 29 18 16 18 20 22 23 25 27 26 25 25 24 21 18 16 13 8 3 -8 -19 -20 -20 -20 -20 -3
-20 -20 -20 -20 -0 7 14 22 22 32 38 28 23 19 20 18 16 18 20 22 24 24 26 25 24 23 20 20 19 17 15 14 3 -15 -19 -17 -19 -20 -19 -20 -20 1 3
-14 -18 -20 -15 -9 8 18 20 24 24 21 24 26 23 14 16 19 21 22 21 19 18 17 15 14 15 14 12 12 12 12 6 4 1 -19 -20 -20 -20 -20 -20 -20 -20 -20
4 -1 -8 -12 -15 1 12 17 18 18 18 20 19 19 17 14 14 16 17 18 17 17 15 11 7 9 8 4 -4 -10 -10 -16 -20 -20 -20 -20 -20 -20 -20 -20 -20 -20 -20
1 -12 -4 -16 -4 -2 5 8 7 6 11 14 16 16 14 11 10 14 16 15 13 11 9 3 -2 -5 -17 -20 -20 -20 -20 -20 -20 -20 -20 -20 -20 -20 -20 -20 -20 -15 -6
1 -5 -20 -11 -9 -5 -6 -15 -8 -4 0 1 5 1 -3 1 11 15 15 12 9 10 6 -2 -8 -15 -20 -20 -20 -20 -20 -20 -20 -20 -20 -20 -20 -20 -20 -20 -20 -1 -5
9 -0 -9 -18 -12 -3 -1 -5 2 -3 1 -3 -3 -20 -20 -16 -20 -20 -9 -20 -20 -19 -20 -20 -20 -20 -20 -20 -20 -20 -20 -20 -20 -20 -20 -20 -20 -20 -20 -20 -20 -20 -18
4 4 -11 1 -13 -20 -20 -13 -1 -8 -6 -17 -14 -20 -19 -20 -20 -20 -20 -19 -9 -13 -20 -20 -20 -20 -20 -20 -20 -20 -20 -20 -20 -20 -20 -20 -20 -12 -20 -20 -9 -20 -20
0 -9 -18 -20 -20 -19 -17 -17 -11 -20 -19 -17 -4 -8 -20 -16 -5 -20 -20 -20 -20 -20 -20 -20 -13 -20 -20 -20 -20 -20 -20 -20 -20 -20 -20 -20 -20 -20 -20 -20 -20 -20 -20
-20 -20 -20 -7 -13 -18 -20 -18 -19 -18 -19 -20 -20 -20 -20 -20 -20 -20 -20 -20 -20 -20 -20 -20 -20 -20 -20 -20 -20 -20 -20 -20 -20 -20 -20 -20 -20 -20 -20 -20 -20 -11 -3
-20 -20 -20 -20 -20 -20 -20 -20 -20 -20 -20 -20 -20 -20 -18 -20 -20 -20 -20 -20 -20 -20 -20 -20 -20 -20 -20 -20 -20 -20 -20 -20 -20 -20 -20 -20 -20 -20 -20 -12 -17 -20 -20

GFSGL_prec_radar_075.txt.gz
Reflectivity
-20 -11 -20 -20 6 -17 -20 -20 -20 -20 -20 -20 -20 -20 -16 8 -13 -20 -20 -19 -17 -20 -20 -20 -10 -15 -5 -20 -20 -20 -20 -18 -13 -20 -20 -20 -20 -20 -20 -20 9 -5 2
-20 -20 -20 -19 -15 -15 -20 -20 -20 -20 -20 -20 -20 -20 -20 -20 -20 -20 -20 -20 -20 -20 -20 -20 -15 -20 -20 -20 -20 -20 -20 -20 -20 -20 -20 -20 -20 -20 -20 -20 9 3 11
-20 -20 -20 -20 -20 -20 -2 -18 -20 -20 -20 -20 -20 -20 -20 -20 -20 -20 -20 -20 -20 -20 -20 -20 -20 -20 -20 -20 -20 -20 -20 -20 -20 -15 -20 -13 -20 -20 -20 -20 -16 23 25
-20 -20 -20 -20 -20 -20 -20 -2 -7 -20 -20 -20 -20 -20 -20 -20 -20 -20 -20 -20 -20 -20 -20 -20 -20 -20 -20 -20 -20 -20 -20 -17 5 12 -6 -17 -18 -20 -20 -11 -19 -13 13
-20 -20 -20 -20 -20 -20 -20 -20 -20 -20 -20 -20 -20 -20 -20 -20 -20 -20 -20 -20 -20 -20 -20 -20 -20 -20 -20 -20 -20 -20 -19 7 -10 -16 -3 -20 -5 -12 17 17 16 22 12
-20 -20 -20 -20 -20 -20 -20 -20 -20 -20 -20 -20 -20 -20 -20 -20 -20 -20 -20 -20 -20 -20 -20 -20 -20 -20 -20 -20 -20 -20 -19 4 -10 3 2 6 -20 -20 9 32 13 12 13
14 -20 -20 -20 -20 -20 -20 -20 -20 -20 -20 -20 -20 -20 -20 -20 -20 -20 -20 -20 -20 -20 -20 -20 -20 -20 -20 -20 -20 12 13 12 9 11 18 5 -11 1 15 24 33 18 34
3 -4 1 2 5 -2 -20 -20 -20 -20 -20 -20 -20 -20 -20 -20 -20 -20 -20 -20 -20 -20 -20 -20 -20 -20 -20 -10 -3 -4 21 8 4 4 10 10 24 25 24 27 31 23 35
-20 17 26 26 -20 3 -12 -13 -20 -20 -20 -20 -20 -20 -20 -20 -20 -20 -20 -20 -20 -6 -8 -20 -20 14 22 17 7 -15 -20 -17 18 20 26 28 16 21 25 25 12 18 15
-20 -20 -20 12 -20 21 -6 17 1 7 7 -16 28 -20 -12 -20 -0 13 11 -11 20 20 13 15 20 14 20 17 2 -3 8 15 20 24 27 25 22 16 23 25 22 19 18
-2 -20 -20 -20 -20 -20 -11 -19 11 25 20 22 24 -2 -19 11 3 9 8 -0 4 16 8 16 15 25 24 28 29 25 28 32 36 31 14 17 16 13 4 1 15 22 22
-20 -20 -20 -20 -20 -19 -20 18 -5 18 3 20 18 9 7 19 23 21 18 14 15 12 17 24 22 33 32 27 27 34 39 27 29 22 20 16 17 20 20 15 5 4 9
-20 -20 -20 -20 -20 -20 -20 -20 -20 12 -17 16 8 7 19 15 17 32 28 23 17 16 12 25 29 30 33 28 30 34 35 30 23 24 26 25 24 23 21 13 15 13 13
-20 -20 -20 -20 -20 -20 -20 -20 -6 6 -1 4 22 17 7 18 24 31 40 21 28 24 26 25 29 36 42 40 32 31 27 16 15 16 17 17 20 19 20 20 16 8 -7
-20 -20 -20 -20 -20 -20 -20 -20 -20 -20 -2 -9 10 20 30 29 22 25 25 33 37 35 23 22 26 32 31 27 17 18 17 14 13 15 15 14 15 15 14 8 -3 -8 -10
-20 -20 -13 -20 -20 -20 -20 -19 -11 -16 -9 -15 -2 5 13 26 27 32 31 25 25 27 30 31 30 26 21 18 19 18 13 11 11 10 7 4 4 1 -10 -17 -20 -11 -3
-19 -15 -11 -3 -20 -20 -20 -20 -20 -18 -19 -11 -1 9 13 21 28 35 32 29 19 18 18 17 16 16 16 13 13 10 7 3 1 -11 -20 -20 -13 -5 -0 -2 -7 -12 -19
-20 -17 -15 -14 -17 -16 -13 -14 -18 -20 -20 -13 -6 -1 7 14 18 17 16 17 18 18 14 11 10 12 13 14 13 1 -19 -20 -20 -20 -20 -20 -20 -20 -20 -20 -20 -20 -20
-20 -20 -18 -14 -15 -17 -15 -16 -17 -20 -20 -17 -18 -11 1 4 8 13 15 15 13 11 11 9 8 5 2 -2 -4 -9 -11 -15 -20 -20 -20 -20 -20 -20 -20 -20 -20 -20 -20
-20 -20 -19 -12 -3 0 -6 -18 -10 0 3 2 -0 -4 4 5 7 7 8 7 3 -2 -5 -1 0 -7 -7 -11 -16 -20 -20 -20 -20 -20 -20 -20 -20 -20 -20 -20 -20 -20 -20
-20 -20 -20 -20 -17 -11 -8 -6 -20 -20 -19 -18 -12 -6 -19 -20 -20 -20 -20 -20 -20 -20 -20 -20 -20 -20 -20 -20 -20 -20 -20 -20 -20 -20 -20 -20 -20 -20 -20 -20 -20 -20 -20
-20 -20 -16 -6 1 3 3 3 -0 1 -10 -20 -20 -20 -20 -20 -20 -20 -20 -20 -20 -20 -20 -20 -20 -20 -20 -20 -20 -20 -20 -20 -20 -20 -20 -20 -20 -20 -20 -20 -20 -20 -20
-20 -20 -20 -20 -20 -20 -20 -17 -16 -10 -9 -20 -20 -20 -20 -20 -20 -20 -20 -20 -20 -20 -20 -20 -20 -20 -20 -20 -20 -20 -20 -20 -20 -20 -20 -20 -20 -20 -20 -20 -20 -20 -20
-20 -20 -20 -20 -20 -20 -20 -20 -20 -20 -20 -20 -20 -20 -20 -20 -20 -20 -20 -20 -20 -20 -20 -20 -20 -20 -20 -20 -20 -20 -20 -20 -20 -20 -20 -20 -20 -20 -20 -20 -20 -20 -20
-20 -20 -20 -20 -20 -20 -20 -20 -20 -20 -20 -20 -20 -20 -20 -20 -20 -20 -20 -20 -20 -20 -20 -20 -20 -20 -20 -20 -20 -20 -20 -20 -20 -20 -20 -20 -20 -20 -20 -20 -20 -19 -20
-20 -20 -20 -20 -20 -20 -20 -20 -20 -20 -20 -20 -20 -20 -20 -20 -20 -20 -20 -20 -20 -20 -20 -20 -20 -20 -20 -20 -20 -20 -20 -20 -20 -20 -20 -20 -20 -20 -20 -20 -20 -20 -20

GFSGL_prec_radar_078.txt.gz
Reflectivity
-20 -20 -10 -16 7 -1 -20 -20 -20 -20 -20 -20 -19 -8 -20 -6 -13 -20 -20 -20 -20 -20 -20 -6 -20 -9 10 2 -0 -3 -20 -8 1 -20 -20 -20 -20 -20 -20 -20 -20 -20 -20
-20 -20 -20 -20 -19 1 -20 1 -20 -20 -20 -20 -20 -20 -20 -20 -20 -3 2 -14 -19 -20 -20 -17 -20 -20 -20 -20 -20 -20 -20 -20 -20 -20 -20 -20 -20 -20 -20 -20 -20 -20 -17
-20 -20 -20 -20 -20 -20 -20 -16 4 -4 -20 -20 -20 -20 -20 -20 -20 -20 -20 -20 -20 -20 -20 -20 -20 -20 -20 -20 -20 -20 -20 -20 -20 -20 -20 -20 -20 -20 -20 -20 -20 -20 -18
-20 -20 -20 -20 -20 -20 -20 -20 -13 8 9 -20 -20 -20 -20 -20 -20 -20 -20 -20 -20 -20 -20 -20 -20 -20 -20 -20 -20 -20 -20 -20 -20 -20 -15 -20 -20 -19 -20 -20 -20 -20 -20
-20 -20 -20 -20 -20 -20 -20 -20 -20 -19 -16 5 -12 -20 -20 -20 -20 -20 -20 -20 -20 -20 -20 -20 -20 -20 -20 -20 -20 -20 -20 -20 -20 -20 -1 -2 -14 -20 1 -11 -20 -20 -20
-20 14 -4 -20 -20 -20 -7 -20 -20 -20 -20 -20 -20 -20 -20 -20 -20 -20 -20 -20 -20 -20 -20 -20 -20 -20 -20 -20 -20 -20 -20 -20 -20 -20 -20 -20 -20 -20 -20 -20 1 -20 -17
-15 -20 -20 9 -20 -20 -20 -8 18 -14 -12 -20 -20 -20 -20 -20 -20 -20 -20 -20 -20 -20 -20 -20 -20 -20 -20 -20 -20 -20 -20 -20 -20 -10 3 2 6 9 -2 -1 -14 -10 9
-20 -20 -20 -20 -20 -15 -19 4 -20 -20 18 -20 -1 -20 -20 -20 -20 -20 -20 -20 -20 -20 -20 -20 -20 -20 -20 -20 -20 -20 -20 -20 4 -2 5 -3 -9 17 31 25 33 31 38
-20 -20 -20 -20 -20 -20 -18 -20 -1 -16 -4 23 -12 -3 -20 -20 13 18 4 -20 -20 14 10 10 -10 -20 12 15 -4 -20 3 1 12 22 16 22 32 26 24 14 26 23 26
-20 -20 -20 -20 -20 -20 -20 -20 -20 -20 2 11 16 -20 14 1 19 6 9 -8 -7 -9 -8 7 22 15 11 15 9 -7 -19 -14 4 15 14 22 23 25 27 20 26 31 30
-20 -20 -20 -20 -20 -20 -20 -20 -20 -19 14 13 3 12 11 11 10 6 -2 12 16 17 19 18 23 26 16 13 21 15 16 27 29 24 13 18 21 21 28 36 36 29 22
-20 -20 -20 -20 -20 -20 -20 -20 -20 -20 -16 20 3 13 11 -12 22 17 15 17 30 28 28 26 27 36 29 27 28 24 26 31 27 29 29 29 27 27 31 31 22 11 12
-20 -20 -20 -20 -20 -20 -20 -20 -20 -20 -20 1 -3 6 13 19 15 23 25 20 13 15 28 34 29 35 39 39 29 29 28 29 36 33 32 37 35 33 27 20 13 8 9
-20 -20 -20 -20 -20 -20 -20 -20 -20 -20 -20 -20 -20 1 11 12 4 19 32 40 19 20 27 36 18 22 27 30 34 35 34 24 28 28 26 26 25 22 20 20 18 12 -2
-20 -20 -20 -20 -20 -20 -19 -18 -20 -20 -19 -20 -20 -20 -20 -20 -1 10 11 6 6 16 17 16 16 21 24 25 25 25 24 25 23 23 24 17 15 13 11 4 -3 -13 -20
-20 -20 -20 -20 -20 -20 -20 -18 -17 -17 -15 -8 -17 -13 -14 -3 -19 -8 -5 -8 -9 -11 -19 -9 3 13 18 21 20 18 17 18 17 15 14 8 7 1 0 -6 -14 -18 -20
-20 -20 -20 -20 -20 -20 -20 -20 -20 -18 -20 -16 -11 -14 -2 -2 -15 -17 -20 -20 -6 -7 -7 1 8 14 18 19 18 17 17 15 10 8 6 7 3 -12 -7 -7 -9 -20 -20
-20 -20 -20 -20 -20 -20 -20 -20 -20 -20 -20 -19 -13 0 0 -4 -6 -17 -19 -20 -20 -15 -18 -13 -5 3 8 12 14 13 13 11 7 7 6 7 -1 -17 -20 -20 -20 -20 -20
-20 -20 -20 -20 -20 -20 -20 -20 -20 -20 -20 -20 -20 -20 -19 -6 -20 -20 -20 -17 -8 -2 2 3 4 2 -0 -4 1 -3 -12 -16 -16 -20 -20 -20 -20 -20 -20 -20 -20 -20 -20
-20 -20 -20 -20 -20 -20 -20 -20 -20 -20 -20 -18 -14 -6 -11 -13 -14 -6 -6 -7 -3 -9 -19 -20 -15 -5 -9 -20 -20 -20 -20 -20 -20 -20 -20 -20 -20 -20 -20 -20 -20 -20 -20
-20 -20 -20 -20 -20 -20 -20 -20 -20 -20 -20 -19 -13 -20 -18 -10 -20 -20 -18 -20 -20 -20 -20 -20 -20 -20 -20 -20 -20 -20 -20 -20 -20 -20 -20 -20 -20 -20 -20 -20 -20 -20 -20
-20 -20 -20 -20 -20 -20 -20 -20 -20 -20 -20 -20 -20 -20 -20 -19 -13 -11 -15 -10 -11 -15 -20 -20 -20 -20 -20 -20 -20 -20 -20 -20 -20 -20 -20 -20 -20 -20 -20 -20 -20 -20 -20
-20 -20 -20 -20 -20 -20 -20 -20 -20 -20 -20 -20 -20 -20 -20 -20 -20 -20 -20 -20 -20 -20 -20 -20 -20 -20 -20 -20 -20 -20 -20 -20 -20 -20 -20 -20 -20 -20 -20 -20 -20 -20 -20
-20 -20 -20 -20 -20 -20 -20 -20 -20 -20 -20 -20 -20 -20 -20 -20 -20 -20 -20 -20 -20 -20 -20 -20 -20 -20 -20 -20 -20 -20 -20 -20 -20 -20 -20 -20 -20 -20 -20 -20 -20 -20 -20
-20 -20 -20 -20 -20 -20 -20 -20 -20 -20 -20 -20 -20 -20 -20 -20 -20 -20 -20 -20 -20 -20 -20 -20 -20 -20 -20 -20 -20 -20 -20 -20 -20 -20 -20 -20 -20 -20 -20 -20 -20 -20 -20
-20 -20 -20 -20 -20 -20 -20 -20 -20 -20 -20 -20 -20 -20 -20 -20 -20 -20 -20 -20 -20 -20 -20 -20 -20 -20 -20 -20 -20 -20 -20 -20 -20 -20 -20 -20 -20 -20 -20 -20 -20 -20 -20

GFSGL_prec_radar_081.txt.gz
Reflectivity
-20 -20 -20 -20 -20 -20 -20 -20 -20 -20 -20 -20 -20 -20 -20 -18 7 -14 -15 -6 -3 -9 8 -8 -15 5 3 16 26 14 -5 15 21 -13 0 -4 20 -1 -19 -18 -14 -20 -20
-20 -20 -1 -20 -20 -20 -20 -20 -20 -20 -20 -20 -20 -20 -20 -20 -20 -20 -20 -20 -20 12 -18 -2 -20 -6 17 11 12 10 -2 0 17 -7 -20 -20 -20 -20 -20 -20 -20 -20 -20
-20 -20 -20 -2 -20 -20 -20 -20 -20 -20 -20 -20 -20 -20 -20 -20 -20 -20 -20 -17 -20 -16 0 -4 -20 -20 -13 -14 -7 -5 -12 -20 -8 3 -14 -20 -20 -20 -20 -20 -20 -20 -20
-20 -20 -20 -20 -20 -20 -20 -20 -20 -20 -9 -20 -20 -20 -20 -20 -20 -20 -20 -20 -20 -20 -20 -20 -16 -20 -20 -20 -20 -20 -20 -20 -20 -17 -20 -20 -20 -20 -20 -20 -20 -20 -20
-20 -20 -20 -20 -20 -20 -20 -20 -20 -20 -20 -1 5 -0 -20 -20 -20 -20 -20 -20 -20 -20 -20 -20 -20 -20 -20 -20 -20 -20 -20 -20 -20 -20 -20 -17 -20 -20 -20 -20 -20 -20 -20
-20 11 -20 -20 -20 -20 -20 -20 -20 -20 -20 -20 -20 -20 -20 -20 12 -20 -20 -20 -20 -20 -20 -20 -20 -20 -20 -20 -20 -20 -20 -20 -20 -20 -20 -20 -20 -20 -20 -20 -16 -1 -20
4 -15 -20 -15 15 -20 -20 -20 -9 -20 -20 -20 -20 -20 -20 -20 -20 -5 -20 -20 -20 -20 -20 -20 -20 -20 -20 -20 -20 -20 -20 -20 -20 -20 -20 -20 -20 -20 -20 -19 -18 3 -20
-20 -8 10 12 3 -2 3 -15 -6 -12 -9 -9 -10 -20 -20 5 15 11 6 -10 -20 -20 -20 -20 -20 -20 -20 -10 -20 -20 -20 -20 -16 3 9 -1 -20 -20 4 7 6 2 16
-20 -17 -20 4 -18 -19 -18 -20 -2 12 5 11 11 1 -3 4 21 16 0 -8 5 6 11 14 18 14 12 17 5 12 14 1 4 8 7 15 16 12 13 11 9 18 34
-20 -19 -15 -20 -20 -20 -20 -20 10 1 2 17 22 19 21 16 24 19 7 9 24 16 22 13 21 16 2 11 15 2 23 22 20 23 25 26 18 15 25 20 24 25 30
-20 -20 -20 -20 -9 -17 -20 -20 -20 -20 -20 -11 6 10 10 25 19 20 17 17 26 29 31 26 25 31 17 12 11 29 33 30 24 26 23 25 23 26 22 19 21 22 21
-20 -20 -20 -20 -20 -20 -20 -20 -20 -20 -20 -20 -17 -14 -1 10 33 24 19 16 16 13 22 22 22 34 39 24 21 26 29 36 36 36 36 34 39 37 24 23 24 28 29
-20 -20 -20 -20 -20 -20 -20 -20 -20 -20 -20 -20 -20 -20 -20 -20 -19 5 -5 -7 10 19 12 21 23 27 34 38 29 25 24 27 29 31 31 20 24 29 30 28 26 20 19
-20 -20 -20 -20 -20 -20 -20 -20 -20 -20 -20 -20 -20 -20 -20 -20 -20 -20 -20 -12 -0 5 4 -16 -6 4 7 1 6 5 8 10 7 3 4 8 13 18 22 24 24 23 20
-20 -20 -20 -20 -20 -20 -19 -19 -20 -18 -20 -20 -20 -20 -20 -18 -4 -1 -14 -20 -20 -20 -20 -20 -20 -20 -20 -19 -19 -17 -15 -9 -7 -11 -8 -1 5 8 7 8 10 11 7
-20 -20 -20 -20 -20 -20 -20 -16 -10 -16 -19 -20 -20 -20 -16 -3 -15 -11 -20 -20 -20 -19 -20 -20 -20 -20 -20 -19 -19 -17 -16 -19 -20 -20 -20 -20 -20 -20 -13 -6 -3 -3 -1
-20 -20 -20 -20 -20 -20 -20 -20 -20 -18 -20 -20 -5 -7 -4 -2 -8 -5 -20 -20 -20 -20 -20 -20 -20 -20 -18 -13 -11 -13 -17 -20 -20 -20 -20 -20 -20 -20 -20 -20 -20 -20 -20
-20 -20 -20 -20 -20 -20 -20 -20 -20 -20 -20 -20 -10 -8 -14 -17 -20 -20 -20 -20 -20 -20 -20 -20 -19 -19 -18 -17 -19 -20 -20 -20 -20 -16 -17 -20 -20 -20 -20 -20 -20 -20 -20
-20 -20 -20 -20 -20 -20 -20 -20 -20 -20 -20 -20 -20 -20 -20 -12 -20 -20 -20 -20 -20 -20 -20 -20 -20 -20 -20 -20 -20 -20 -20 -20 -20 -20 -20 -20 -20 -20 -20 -20 -20 -20 -20
-20 -20 -20 -20 -20 -20 -20 -20 -20 -20 -20 -20 -20 -20 -20 -20 -20 -20 -20 -20 -20 -20 -20 -20 -20 -19 -20 -20 -20 -20 -20 -20 -20 -20 -20 -20 -20 -20 -20 -20 -20 -20 -20
-20 -20 -20 -20 -20 -20 -20 -20 -20 -20 -20 -20 -20 -20 -20 -20 -20 -20 -20 -20 -20 -20 -20 -20 -20 -20 -20 -20 -20 -20 -20 -20 -20 -20 -20 -20 -20 -20 -20 -20 -20 -20 -20
-20 -20 -20 -20 -20 -20 -20 -20 -20 -20 -20 -20 -20 -20 -20 -20 -20 -20 -20 -20 -20 -20 -20 -20 -20 -20 -20 -20 -20 -20 -20 -20 -20 -20 -20 -20 -20 -20 -20 -20 -20 -20 -20
-20 -20 -20 -20 -20 -20 -20 -20 -20 -20 -20 -20 -20 -20 -20 -20 -20 -20 -20 -20 -20 -20 -20 -20 -20 -20 -20 -20 -20 -20 -20 -20 -20 -20 -20 -20 -20 -20 -20 -20 -20 -20 -20
-20 -20 -20 -20 -20 -20 -20 -20 -20 -20 -20 -20 -20 -20 -20 -20 -20 -20 -20 -20 -20 -20 -20 -20 -20 -20 -20 -20 -20 -20 -20 -20 -20 -20 -20 -20 -20 -20 -20 -20 -20 -20 -20
-20 -20 -20 -20 -20 -20 -20 -20 -20 -20 -20 -20 -20 -20 -20 -20 -20 -20 -20 -20 -20 -20 -20 -20 -20 -20 -20 -20 -20 -20 -20 -20 -20 -20 -20 -20 -20 -20 -20 -20 -20 -20 -20
-20 -20 -20 -20 -20 -20 -20 -20 -20 -20 -20 -20 -20 -20 -20 -20 -20 -20 -20 -20 -20 -20 -20 -20 -20 -20 -20 -20 -20 -20 -20 -20 -20 -20 -20 -20 -20 -20 -20 -20 -20 -20 -20

GFSGL_prec_radar_084.txt.gz
Reflectivity
-13 -20 -19 -16 -20 -20 -20 -20 -20 -20 -20 -19 -0 4 18 -6 3 7 -7 -20 10 17 17 22 27 23 24 24 27 28 15 20 19 3 18 13 29 26 -5 -15 5 12 17
-20 -20 -20 -5 -20 -20 -20 -20 -20 -20 -20 -20 -20 -20 -9 21 -19 -20 6 19 25 3 21 3 -14 -8 9 11 16 20 13 5 12 10 -15 -20 -20 -19 -9 -20 -20 -20 -20
-20 -6 -13 -10 -20 -20 -20 -20 -20 -20 -20 -20 -20 -20 -20 -20 -20 -20 -20 -13 -19 11 15 2 -2 23 12 7 8 -20 -20 -11 -1 9 -6 -20 -20 -20 -20 -20 -20 -20 -20
-20 -20 -20 -20 -20 -20 -20 -20 -20 -20 -20 -20 -20 -20 -20 -20 -20 -20 -20 -14 -1 -20 -20 -20 -20 -7 -1 1 7 7 -2 3 -1 9 7 -18 -3 -20 -20 -20 -20 -20 -20
-20 -20 -20 -20 -20 -20 -20 -20 -20 -20 -20 -20 -20 -20 -20 -20 -20 -20 -20 -20 -20 -20 -20 -20 -20 -20 -20 -20 -6 -15 -14 -17 -17 -17 -20 -20 -5 -17 -20 -20 -20 -20 -20
-20 -20 -20 -20 -20 -20 -20 -20 -20 -20 -20 -20 -20 -20 -20 -20 14 11 5 -20 -20 -20 -20 -20 -20 -20 -20 -20 -7 12 14 17 -17 4 2 7 -5 -20 -20 -20 -20 -20 -20
-17 -16 -0 -3 10 -19 -20 -20 -20 -20 -20 -20 -20 -20 -15 -8 13 10 -1 -17 -20 -20 -20 -20 -20 -20 -20 -20 -20 -20 -8 5 14 14 11 19 11 9 17 10 5 -9 0
-0 10 -11 -5 12 -16 -20 -1 -14 -10 21 -16 -14 1 -9 18 15 7 13 4 8 -7 -3 -13 -14 -11 -3 4 -12 -20 -20 -20 12 4 19 18 17 11 1 8 16 17 20
3 -6 -5 2 8 9 6 9 -7 -2 7 8 10 4 2 7 18 1 -20 -20 -20 -18 13 23 12 11 20 15 18 16 19 24 29 21 21 26 25 26 29 27 25 8 20
-20 -20 -20 -20 -7 7 -19 -20 -20 -13 3 19 19 16 29 6 21 21 20 22 25 24 23 21 28 15 18 34 24 19 25 31 22 31 32 27 31 23 27 29 25 25 28
-20 -20 -20 -20 -20 -20 -18 2 10 8 9 -15 -9 3 9 17 14 16 6 1 10 11 11 13 21 32 23 39 28 35 41 28 32 38 34 34 33 28 27 30 27 25 25
-20 -20 -20 -20 -20 -20 -20 -20 -20 -20 -20 -20 -20 -8 -11 -3 11 6 -18 -20 -17 -18 -16 -6 8 13 17 13 20 28 29 21 19 21 21 23 22 19 19 18 20 20 16
-20 -20 -20 -20 -20 -20 -20 -20 -20 -20 -20 -20 -20 -20 -20 -20 -19 -1 -16 -19 -20 -20 -20 -20 -20 -20 -20 -20 -19 -15 -14 -17 -20 -12 0 8 10 7 6 6 6 -7 -14
-20 -20 -20 -20 -20 -20 -20 -20 -20 -20 -20 -20 -20 -20 -20 -20 -20 -20 -20 -20 -20 -20 -20 -20 -20 -20 -20 -20 -20 -20 -20 -20 -20 -20 -20 -17 -18 -20 -19 -18 -16 -19 -20
-20 -20 -20 -20 -20 -20 -19 -19 -19 -12 -18 -20 -20 -20 -20 -19 -7 -12 -20 -20 -20 -20 -20 -20 -20 -20 -20 -20 -20 -20 -20 -20 -20 -20 -20 -20 -20 -20 -20 -20 -20 -20 -20
-20 -20 -20 -20 -20 -20 -20 -15 -10 -2 0 -1 -17 -13 -15 -1 7 -4 -20 -20 -20 -20 -20 -20 -20 -20 -20 -20 -20 -20 -20 -20 -20 -20 -20 -20 -20 -20 -20 -20 -20 -20 -20
-20 -20 -20 -20 -20 -20 -20 -20 -20 -12 -20 -4 -5 3 4 8 4 -20 -20 -20 -20 -20 -20 -20 -20 -20 -20 -20 -20 -20 -20 -20 -20 -20 -20 -20 -20 -20 -20 -20 -20 -20 -20
-20 -20 -20 -20 -20 -20 -20 -20 -20 -20 -20 -20 -20 -8 -3 -16 -9 -20 -20 -20 -20 -20 -20 -20 -20 -20 -20 -20 -20 -20 -20 -20 -20 -20 -20 -20 -16 -20 -20 -20 -20 -20 -20
-20 -20 -20 -20 -20 -20 -20 -20 -20 -20 -20 -20 -20 -20 -20 -13 -20 -20 -20 -20 -20 -20 -20 -20 -20 -20 -20 -20 -20 -20 -20 -20 -20 -20 -20 -20 -20 -20 -20 -20 -20 -20 -20
-20 -20 -20 -20 -20 -20 -20 -20 -20 -20 -20 -20 -20 -20 -20 -20 -20 -20 -20 -20 -20 -20 -20 -20 -20 -20 -20 -20 -20 -20 -20 -20 -20 -20 -20 -20 -20 -20 -20 -20 -20 -20 -20
-20 -20 -20 -20 -20 -20 -20 -20 -20 -20 -20 -20 -20 -20 -20 -20 -20 -20 -20 -20 -20 -20 -20 -20 -20 -20 -20 -20 -20 -20 -20 -20 -20 -20 -20 -20 -20 -20 -20 -20 -20 -20 -20
-20 -20 -20 -20 -20 -20 -20 -20 -20 -20 -20 -20 -20 -20 -20 -20 -20 -20 -20 -20 -20 -20 -20 -20 -20 -20 -20 -20 -20 -20 -20 -20 -20 -20 -20 -20 -20 -20 -20 -20 -20 -20 -20
-20 -20 -20 -20 -20 -20 -20 -20 -20 -20 -20 -20 -20 -20 -20 -20 -20 -20 -20 -20 -20 -20 -20 -20 -20 -20 -20 -20 -20 -20 -20 -20 -20 -20 -20 -20 -20 -20 -20 -20 -20 -20 -20
-20 -20 -20 -20 -20 -20 -20 -20 -20 -20 -20 -20 -20 -20 -20 -20 -20 -20 -20 -20 -20 -20 -20 -20 -20 -20 -20 -20 -20 -20 -20 -20 -20 -20 -20 -20 -20 -20 -20 -20 -20 -20 -20
-20 -20 -20 -20 -20 -20 -20 -20 -20 -20 -20 -20 -20 -20 -20 -20 -20 -20 -20 -20 -20 -20 -20 -20 -20 -20 -20 -20 -20 -20 -20 -20 -20 -20 -20 -20 -20 -20 -20 -20 -20 -20 -20
-20 -20 -20 -20 -20 -20 -20 -20 -20 -20 -20 -20 -20 -20 -20 -20 -20 -20 -20 -20 -20 -20 -20 -20 -20 -20 -20 -20 -20 -20 -20 -20 -20 -20 -20 -20 -20 -20 -20 -20 -20 -20 -20

GFSGL_prec_radar_087.txt.gz
Reflectivity
4 -20 3 10 -20 -20 -20 -20 -10 4 7 21 5 11 26 14 12 13 17 10 8 0 8 7 19 21 10 9 22 13 21 4 16 -18 -7 -12 11 13 14 17 8 19 12
-4 -20 13 10 -20 -20 -20 -20 -20 -19 -16 -1 19 29 28 29 28 7 24 -20 -4 -18 9 17 18 27 29 29 13 27 18 25 27 24 6 3 -20 -20 -20 -19 -20 -19 -13
-20 -12 -2 -20 -20 -5 -18 -17 -19 -20 -20 -20 -20 -20 -20 1 16 11 23 3 12 17 17 22 14 18 -5 5 -19 -20 -20 -20 -12 1 -20 16 -20 -20 -20 -20 -20 -20 -20
-19 10 -14 -6 -7 -20 -20 -18 -7 9 -20 -20 -20 -20 -20 -20 -20 -9 9 -5 -17 0 12 6 2 -3 -7 -2 18 8 2 14 13 9 2 -3 -20 -20 -20 -20 -10 -16 -20
-20 -8 -20 -20 4 -13 5 -20 -20 -20 -20 -20 -20 -20 -20 -20 -20 -20 -20 -20 -20 -19 -19 -20 -20 -20 -20 -20 -20 -20 -19 3 -1 -3 -20 1 -20 -8 -2 -20 -14 -20 -20
3 5 -20 -20 -20 -20 -20 -20 -20 -20 -20 -20 -20 -20 -20 -20 7 12 9 -20 11 -17 -20 -20 -20 -20 -20 -15 -1 -17 -3 12 9 9 -14 -2 -14 5 -11 6 -9 -20 -20
-9 4 8 3 -19 -19 -12 -11 -15 -18 -20 -14 -18 -19 -5 -19 3 0 -18 -20 -13 -10 -9 1 2 -1 7 -20 -15 1 8 8 20 18 12 16 8 17 16 9 -15 -10 -9
5 4 21 19 -6 4 15 11 21 12 17 15 14 18 11 3 -0 -19 -19 -12 -20 -16 2 8 4 9 15 15 -4 -20 -20 -5 4 24 33 29 34 25 31 26 31 32 32
21 16 11 9 -4 14 10 14 16 -2 10 23 16 19 22 17 17 11 -0 16 -20 -9 1 11 -0 1 20 14 4 2 13 17 26 23 26 25 18 14 18 24 26 28 36
11 9 4 -18 -18 -15 -7 -17 -18 -17 -7 -3 9 6 24 12 23 13 11 -12 14 6 20 22 22 24 23 10 3 6 30 31 27 22 28 13 22 26 30 25 21 8 17
10 -13 -20 -20 -20 -20 -20 -20 -20 -19 -13 -13 2 -9 -10 6 12 12 12 -3 -14 -19 -19 -15 -13 12 10 20 22 14 11 30 30 19 13 -3 -19 -14 -16 -20 -20 -20 -20
14 7 -19 -13 -20 -20 -20 -20 -20 -20 -11 -0 -20 -20 -20 -20 9 -3 4 -17 -20 -20 -20 -3 -3 -12 -4 -20 -20 -11 -18 -1 -20 -20 -20 -20 -20 -20 -2 -4 -20 -20 -14
2 -4 5 27 8 -20 -20 -20 -20 -20 -20 -20 -20 -20 -20 -20 -9 -8 -14 -20 -20 -20 -18 -8 -20 -20 -20 -20 -20 -20 -20 -20 -20 -20 -20 -3 -2 -2 -16 -4 -5 -20 -20
14 14 -20 -20 -20 -20 -20 -20 -20 -20 -20 -20 -20 -20 -6 -19 -20 -20 -20 -20 -20 -20 -20 -20 -20 -20 -20 -20 -20 -20 -20 -20 -20 -20 -20 -20 -20 -20 -20 -20 -20 -20 -20
18 16 -14 -13 -20 -20 -20 -11 -11 4 -11 -8 -10 -14 -8 -0 4 -6 -20 -20 -20 -20 -20 -20 -20 -20 -20 -20 -20 -20 -20 -20 -20 -20 -20 -20 -20 -20 -20 -20 -20 -20 -20
-20 -18 -16 -20 -20 -20 -20 -20 -13 -18 -16 -2 -8 -6 2 -0 -7 -20 -20 -20 -20 -20 -20 -20 -20 -9 -10 -20 -20 -20 -20 -20 -20 -20 -20 -20 -20 -20 -20 -20 -20 -20 -20
-5 -17 -20 -20 -20 -20 -20 -20 -20 -20 -20 -5 -1 -1 -1 -0 -3 -11 -20 -20 -20 -20 -20 -20 -4 -3 -20 -20 -20 -20 -20 -20 -20 -20 -20 -20 -20 -20 -20 -20 -20 -20 -20
-20 -20 -20 -20 -20 -20 -20 -20 -20 -20 -20 -20 -20 -20 -0 -1 -8 -20 -20 -20 -20 -20 -20 -20 -20 -20 -20 -20 -20 -20 -20 -20 -20 -20 -20 -18 -20 -20 -20 -20 -20 -20 -20
-20 -20 -20 -20 -20 -20 -20 -20 -20 -20 -20 -20 -20 -20 -20 -20 -20 -20 -20 -20 -20 -20 -20 -20 -20 -20 -20 -20 -20 -20 -20 -20 -20 -20 -20 -20 -20 -20 -20 -20 -20 -20 -20
-20 -20 -20 -20 -20 -20 -20 -20 -20 -20 -20 -20 -20 -20 -20 -20 -20 -20 -20 -20 -20 -20 -20 -20 -20 -20 -20 -20 -20 -20 -20 -20 -20 -20 -20 -20 -20 -20 -20 -20 -20 -20 -20
-20 -20 -20 -20 -20 -20 -20 -20 -20 -20 -20 -20 -20 -20 -20 -20 -20 -20 -20 -20 -20 -20 -20 -20 -20 -20 -20 -20 -20 -20 -20 -20 -20 -20 -20 -20 -20 -20 -20 -20 -20 -20 -20
-20 -20 -20 -20 -20 -20 -20 -20 -20 -20 -20 -20 -20 -20 -20 -20 -20 -20 -20 -20 -20 -20 -20 -20 -20 -20 -20 -20 -20 -20 -20 -20 -20 -20 -20 -20 -20 -20 -20 -20 -20 -20 -20
-20 -20 -20 -20 -20 -20 -20 -20 -20 -20 -20 -20 -20 -20 -20 -20 -20 -20 -20 -20 -20 -20 -20 -20 -20 -20 -20 -20 -20 -20 -20 -20 -20 -20 -20 -20 -20 -20 -20 -20 -20 -20 -20
-20 -20 -20 -20 -20 -20 -20 -20 -20 -20 -20 -20 -20 -20 -20 -20 -20 -20 -20 -20 -20 -20 -20 -20 -20 -20 -20 -20 -20 -4 -8 -20 -20 -20 -20 -20 -20 -20 -20 -20 -20 -20 -20
-20 -20 -20 -20 -20 -20 -20 -20 -20 -20 -20 -20 -20 -20 -20 -20 -20 -20 -20 -20 -20 -20 -20 -20 -20 -20 -20 -20 -20 -20 -20 -20 -20 -20 -20 -20 -20 -20 -20 -20 -20 -20 -20
-20 -20 -20 -20 -20 -20 -20 -20 -20 -20 -20 -20 -20 -20 -20 -20 -20 -20 -20 -20 -20 -20 -20 -20 -20 -20 -20 -14 -4 -11 -20 -20 -20 -20 -20 -20 -20 -20 -20 -20 -20 -20 -9

GFSGL_prec_radar_090.txt.gz
Reflectivity
-20 -12 -5 -20 -12 -18 1 5 11 17 27 27 31 32 22 27 29 30 30 21 18 3 -16 -18 -14 18 -20 -14 -1 -9 -12 18 16 -12 15 -14 22 -20 -20 -20 -12 1 -8
-20 -20 -20 -20 -20 -20 -20 5 6 10 13 14 26 15 7 21 20 12 23 23 2 -10 -3 -14 -1 -18 -19 -5 12 12 23 16 20 24 10 -20 8 -9 -5 -20 -20 -20 -20
-16 -18 -18 -20 -20 -0 3 6 15 10 -0 -11 9 15 24 14 25 28 29 -10 18 -20 -20 -20 -20 -20 -20 -3 3 25 18 23 -4 10 -20 -20 -20 -20 18 19 18 15 3
8 -17 4 -6 -20 -20 -9 -19 -20 -2 2 13 10 1 -4 17 20 10 15 2 -20 -20 -20 -20 -20 -17 -1 17 14 6 -14 10 14 -4 -11 -15 -20 -20 22 18 9 -2 18
8 12 -12 -5 -0 -12 -20 -20 -20 -20 -20 14 15 17 18 13 -2 -2 2 -2 -11 -0 -4 -10 -20 -20 15 6 12 -13 -17 19 21 21 20 3 -11 -3 11 4 9 -20 -20
-16 11 10 11 12 12 11 6 -20 -17 -20 -20 -20 9 16 12 16 13 15 11 11 12 15 13 -13 -20 8 11 10 -4 -20 20 18 12 9 4 14 15 0 -7 -13 -14 -3
-13 -5 -16 9 -6 -19 3 3 13 5 5 -8 10 8 -20 -19 8 10 10 -17 15 13 5 -6 -12 -12 17 8 13 14 11 16 13 12 10 18 24 21 17 19 22 30 28
-2 12 11 7 7 16 12 15 11 -2 9 3 1 1 -6 -19 2 -6 -18 -20 -20 -7 -15 -18 -20 -20 -7 -8 -20 -11 10 15 19 24 16 27 26 30 20 22 31 24 34
-12 -8 -6 10 -2 -1 2 8 6 4 11 2 12 15 9 12 16 14 17 4 12 23 24 19 17 9 25 22 15 13 25 26 23 19 19 12 21 22 21 24 17 33 16
19 22 2 22 16 22 19 17 17 16 12 16 18 13 21 13 19 12 15 10 22 23 22 22 29 10 9 9 -7 -13 3 12 25 31 26 37 17 23 -14 -15 -19 -20 -20
35 29 25 17 21 19 16 15 15 17 16 11 2 4 3 3 2 8 11 -2 -5 -7 7 22 14 26 18 16 13 8 16 11 9 3 -17 -20 -20 -20 -13 -2 -2 -20 -18
39 37 27 13 -5 -18 -20 -18 -13 -10 3 14 3 -1 -11 -12 6 -4 -9 -20 -14 -20 -9 -5 1 -16 -20 -20 -14 -13 -13 -9 -20 -20 -20 -5 -1 0 -0 -14 -20 -20 -20
39 36 28 30 23 12 -3 -19 -18 -20 -20 -20 -20 -4 -1 0 -6 -20 -20 -20 -20 -6 -4 -1 -13 -20 -20 -20 -20 -20 -20 2 3 -7 -7 -4 -14 -16 -19 -16 -20 -20 -20
21 27 24 26 13 13 9 1 11 5 -5 -19 -20 -11 -7 -1 3 2 2 -3 -17 -19 -17 -5 -20 -20 -20 -15 -11 -2 -17 -12 -11 -8 -3 -5 -20 -20 -20 -20 -20 -20 -20
11 26 25 12 15 9 12 2 1 4 0 2 2 -1 2 1 3 -12 -20 -5 -4 -20 -7 -2 -9 -13 -14 -13 -20 -20 -20 -20 -20 -20 -20 -20 -20 -20 -20 -20 -20 -20 -20
20 21 21 20 23 20 22 20 5 -3 -19 -20 -19 0 2 -0 -3 -20 -20 -20 -20 -20 -8 -3 -1 1 -3 -7 -20 -20 -20 -20 -20 -20 -20 -20 -20 -20 -20 -20 -20 -20 -20
-13 -3 9 11 9 15 13 11 6 3 -10 -19 -1 -4 -3 -18 -20 -20 -20 -20 -20 -20 -5 -2 -0 -2 -20 -20 -20 -20 -20 -20 -20 -20 -20 -12 -20 -20 -20 -20 -20 -20 -20
-20 -20 -11 -4 -3 -2 -2 -1 -2 -1 -1 -1 -20 -8 -3 -10 -20 -20 -20 -20 -20 -20 -20 -8 -7 -20 -20 -20 -20 -20 -20 -18 -20 -20 -1 -20 -20 -20 -20 -20 -20 -20 -20
-20 -8 -2 -2 -2 1 -1 -0 -1 -1 0 -0 -1 -16 -20 -20 -20 -20 -20 -20 -20 -20 -20 -20 -20 -20 -20 -20 -16 -18 -20 -20 -20 -20 -20 -20 -12 -20 -20 -20 -20 -20 -20
-6 -17 -6 1 1 0 -0 -1 -4 -16 -20 -20 -20 -20 -20 -20 -20 -20 -20 -20 -20 -20 -20 -20 -20 -20 -20 -20 -5 -3 -17 -20 -20 -20 -20 -20 -9 -5 -20 -20 -20 -20 -20
2 -0 -20 -4 -20 -20 -20 -20 -20 -20 -20 -20 -20 -20 -20 -20 -20 -20 -20 -20 -20 -20 -20 -20 -20 -20 -5 -20 -20 -20 -20 -20 -20 -20 -20 -20 -20 -20 -20 -20 -20 -20 -20
-7 -8 -20 -20 -20 -20 -20 -20 -20 -20 -20 -20 -20 -20 -20 -20 -20 -20 -20 -4 -2 -17 -20 -4 -16 -20 -20 -15 -15 -1 -20 -8 -14 -15 -20 -20 -20 -20 -20 -20 -20 -5 -17
-6 -2 -20 -20 -20 -20 -17 -20 -18 -20 -20 -10 -20 -20 -20 -9 -12 -10 -3 1 -2 -1 -4 -2 -1 -4 -3 -1 -1 -2 -3 -3 -2 -12 -20 -20 -20 -20 -10 -2 -4 -4 -3
-7 -2 -20 -17 -4 -1 1 2 -6 -20 -18 -2 0 -2 -2 -1 0 -3 -2 -1 -2 1 -0 0 -3 -18 -17 -0 2 1 -2 -1 -2 -2 -18 -5 -20 -20 -20 -6 -5 -2 -2
-1 0 -2 -1 1 2 2 1 0 1 -0 1 1 -0 -5 -3 -4 -0 -1 -3 -20 -3 -4 -5 -3 -3 -3 -7 -5 -4 -5 -20 -20 -20 -18 -10 -3 -20 -4 -19 -3 -3 0
-6 -14 -3 -2 -0 -0 0 1 -1 -1 -1 -0 -1 -0 -1 -3 -3 -1 -4 -6 -20 -20 -20 -3 -3 -20 -20 -4 -10 -11 -20 -20 -20 -20 -20 -3 -2 -3 -2 -2 -2 -2 1

GFSGL_prec_radar_093.txt.gz
Reflectivity
-20 -9 -14 -20 0 -8 12 5 -20 -12 17 24 21 25 29 34 31 33 32 6 1 -20 7 23 27 24 -8 -19 -11 -20 -0 24 -20 -20 -20 -20 -19 25 18 18 9 -20 -20
-20 -17 18 -14 -20 -7 2 -3 -6 -17 17 27 23 34 33 34 34 32 23 26 27 30 27 29 -13 9 -20 -20 -20 -19 -17 -20 -20 -20 -20 -19 4 -5 -10 -4 21 -20 -20
-14 6 -4 -20 -20 -20 -20 -4 -8 -4 18 14 28 29 24 25 27 28 28 29 27 27 26 17 -3 -20 -20 -20 -20 -20 -20 -12 -3 6 8 -12 -16 -13 -12 -20 -20 -20 -20
11 -4 -9 4 6 -3 12 16 -20 3 3 6 9 13 23 29 12 15 26 23 30 9 14 -20 -20 -16 -20 -20 -20 -20 -15 5 10 11 -3 -3 5 -15 -20 -8 3 19 11
-4 9 12 4 3 13 9 11 12 17 -19 -2 1 7 6 17 26 19 10 6 24 5 -16 -20 -20 -17 -20 -20 -20 -20 -20 -17 -19 -11 1 9 18 20 22 9 23 -10 1
5 12 5 8 -20 -2 14 12 -6 -2 8 -20 18 17 12 -20 19 3 4 -20 0 -5 -19 -19 -20 -20 -20 -20 -20 -20 6 20 13 14 16 29 11 21 -2 -2 -6 -8 3
-8 9 -2 -13 -20 -9 9 -9 -0 -16 -6 -20 1 12 -8 -1 12 17 9 -0 16 -8 -3 -0 15 -2 10 -3 15 16 13 12 18 12 -1 -2 11 18 20 18 24 29 30
10 10 7 -0 0 3 22 22 18 12 6 6 2 -3 -10 1 15 12 13 0 7 8 -4 4 4 -2 7 1 -1 2 -0 -3 7 14 28 34 33 36 33 12 29 30 18
10 7 -6 -20 -20 -20 -18 -20 -20 -6 1 -16 -6 -9 -20 -20 9 6 6 -20 -20 -16 3 1 -4 -8 15 6 -3 22 34 37 40 33 26 21 23 25 9 -3 10 9 1
15 7 -1 3 -3 -3 -5 1 -5 -1 -8 -6 -2 -3 19 -6 13 0 2 -7 2 12 11 19 30 18 22 17 16 12 14 12 17 14 9 15 16 14 -16 -7 -16 -20 -18
27 27 24 23 27 22 25 17 25 27 30 20 21 20 17 20 20 24 30 21 27 35 34 35 34 41 17 26 40 33 20 25 12 6 -16 -14 -3 -4 -3 -3 -11 -20 -11
37 33 35 36 28 33 12 23 30 29 35 32 26 22 26 28 23 13 11 19 24 22 13 -6 -0 -12 -20 -8 -12 -5 -9 -13 -2 -0 -1 -11 -7 -1 -2 -18 -20 -20 -20
30 28 24 26 31 35 33 26 42 30 17 24 23 24 25 17 -6 -10 -13 -7 -9 -14 -18 5 10 3 -20 -20 -20 -20 -20 -8 -4 2 -1 -18 -4 -18 -19 -20 -20 -20 -20
29 29 31 30 30 29 35 27 29 24 15 -0 -1 2 0 -5 0 3 2 -1 3 -4 -17 -20 -20 -20 -20 -16 -8 1 -7 -20 -9 -8 -20 -20 -20 -20 -20 -20 -20 -20 -20
22 26 29 29 27 22 23 18 17 14 10 4 -3 0 0 1 2 -0 4 -1 -7 -3 2 0 -2 -9 -2 -13 -20 -20 -20 -20 -20 -20 -20 -20 -20 -20 -20 -20 -20 -20 -20
30 28 22 20 17 20 22 20 12 8 7 1 -1 2 4 6 10 -20 -20 -20 -19 -8 -19 0 2 -4 -9 -20 -20 -20 -20 -20 -20 -20 -20 -20 -20 -20 -20 -20 -20 -20 -20
16 19 25 23 18 19 19 19 20 22 23 22 20 17 16 14 9 -10 -20 -20 -20 -20 -5 -1 -5 -20 -20 -20 -20 -20 -20 -20 -20 -20 -20 -20 -20 -20 -20 -20 -20 -20 -20
11 2 4 2 2 3 2 4 5 12 15 18 17 13 12 10 9 5 -20 -20 -20 -20 -20 -20 -20 -20 -20 -20 -20 -20 -20 -20 -20 -20 -20 -20 -20 -20 -20 -20 -20 -20 -20
-4 1 2 0 -1 2 -1 -1 -2 -3 1 3 -5 -15 -7 -6 -4 -11 -20 -20 -20 -20 -20 -20 -20 -20 -20 -20 -3 -5 -15 -13 -20 -14 -5 -20 -10 -20 -20 -20 -20 -20 -20
-2 -15 -5 2 3 -1 -3 -5 -5 -9 -18 -20 -20 -20 -20 -20 -20 -20 -20 -17 -20 -20 -20 -20 -20 -9 -3 -5 -1 -5 -3 -12 -20 -20 -16 -3 -4 -6 -11 -20 -20 -20 -20
-0 -2 -9 -3 -4 -5 -7 -19 -20 -20 -20 -20 -20 -20 -20 -20 -20 -20 -20 -4 -10 -5 0 -4 -2 -2 -2 -4 -2 -1 -18 -2 -20 -20 -6 -20 -6 -3 -20 -20 -7 -20 -20
-20 -20 -20 -20 -20 -10 -20 -15 -14 -15 -20 -20 -15 -20 -20 -2 -5 -5 -1 1 1 -2 -2 1 -3 -12 -20 -2 -4 0 -3 -4 -3 -7 -12 -20 -20 -5 -5 -4 -3 -3 -6
-20 -7 -20 -13 -20 -16 -1 -19 -1 -1 -1 0 -1 -0 -1 1 -0 1 1 2 1 1 -4 -0 -0 -3 -0 -0 -1 -2 -3 -2 -2 -3 -11 -4 -20 -3 -3 -1 -2 -2 -2
-20 -4 -20 -18 -18 -2 1 2 -6 -20 -5 0 2 1 -1 0 1 -0 0 -1 -1 1 -0 1 -4 -20 -20 -5 -0 -2 -20 -9 -13 -5 -20 -2 -3 -5 -6 -6 -9 -4 -2
-1 1 0 1 2 3 3 2 2 2 1 2 3 3 -0 1 -1 2 2 -1 -6 -1 -3 -4 -3 -17 -20 -20 -13 -7 -20 -20 -20 -20 -20 -20 -3 -4 -2 -2 -0 -1 -3
-0 -0 0 2 3 2 3 4 3 3 2 2 2 3 2 2 0 2 -1 -4 -20 -7 -20 -3 -3 -20 -20 -12 -20 -20 -20 -20 -20 -20 -20 -5 -1 -0 -2 -4 -10 -3 -2

GFSGL_prec_radar_096.txt.gz
Reflectivity
-20 9 2 -19 -1 -1 -11 -16 -20 -20 -20 -20 -7 15 31 25 24 26 24 24 25 32 30 26 -19 -6 11 17 16 15 3 -20 -20 -20 -20 -20 -20 -20 -20 -20 -20 -3 4
30 1 -0 -20 9 13 -20 -13 -20 -20 -20 -20 9 21 28 27 25 27 28 26 28 26 21 12 16 16 13 17 24 8 2 -16 -20 -20 -20 -20 -20 -20 -20 -20 -20 -20 -20
-11 -0 3 10 9 6 -17 -7 -20 -20 -20 -18 6 16 23 28 27 31 33 28 29 28 28 22 11 15 8 4 2 4 15 -2 -19 -20 -20 -20 -20 2 13 -20 -17 -18 -20
15 18 13 9 10 -14 -0 -20 -14 1 -20 -15 -4 23 25 25 32 35 33 33 33 31 22 28 27 28 20 -17 -20 -20 -20 -17 -15 -18 -20 -20 -20 -20 -20 -12 -19 -20 -4
22 11 12 12 19 1 6 -20 -3 -17 10 -10 -20 2 23 26 25 28 30 33 34 25 23 21 13 -8 -20 -20 -20 -20 -20 -20 -20 -20 -16 -19 -20 -20 -20 -18 -8 -20 20
16 9 10 11 18 14 10 2 -16 15 -20 4 8 3 17 20 20 17 19 21 30 33 18 14 19 1 5 -11 3 14 -5 -20 -20 -4 -20 -20 -5 14 -5 21 15 17 27
19 12 7 19 9 -9 6 -13 -19 20 24 23 23 15 16 7 20 21 20 26 19 27 25 18 26 -6 3 -20 -0 -20 -9 -20 -20 -20 -20 5 16 -7 18 20 22 13 20
16 17 6 11 13 14 10 2 16 6 -6 4 12 -6 -0 3 14 17 18 3 25 21 15 -8 14 23 27 21 -5 16 11 18 11 -9 8 18 25 29 28 13 26 22 21
14 8 12 11 7 2 -10 6 10 14 13 15 7 14 19 20 22 23 22 21 17 25 26 27 22 22 26 22 13 18 17 4 32 27 33 26 12 20 9 13 22 21 -9
24 17 25 30 25 18 20 19 19 18 26 22 10 11 19 12 18 15 17 17 16 13 1 14 18 11 24 17 6 10 22 19 16 24 27 31 28 32 18 -7 -19 -20 -20
27 7 22 23 24 20 16 6 -3 -5 -10 2 8 13 4 3 4 6 12 0 10 3 8 13 24 34 35 37 36 35 28 35 24 28 -9 9 12 -18 -20 -20 -20 -20 -20
37 25 26 20 24 28 29 28 25 18 14 10 0 8 11 12 26 27 28 31 32 27 33 29 21 31 32 30 27 29 27 24 -2 -17 -20 -20 -20 -17 -20 -20 -20 -20 -20
39 32 25 29 29 25 28 24 25 25 25 23 26 22 34 32 27 33 29 37 39 28 17 18 17 10 8 4 5 8 2 -18 -20 -20 -20 -20 -20 -20 -20 -20 -20 -20 -20
22 27 28 27 28 24 27 36 37 25 31 31 32 30 21 29 30 17 -0 -1 -2 -11 -20 -20 -20 -20 -20 -20 -20 -20 -20 -20 -20 -20 -11 -20 -20 -20 -20 -20 -20 -20 -20
25 25 24 27 26 25 24 24 24 25 26 25 23 25 23 10 20 23 13 -13 -20 -20 -20 -20 -20 -20 -20 -20 -20 -20 -20 -20 -20 -20 -20 -20 -20 -20 -20 -20 -20 -20 -20
17 21 23 25 24 23 25 24 23 24 23 20 15 14 19 18 14 12 5 -6 -17 -20 -20 -20 -20 -20 -20 -20 -20 -20 -20 -20 -20 -20 -20 -20 -20 -20 -20 -20 -20 -20 -20
7 9 9 10 16 21 22 22 18 21 22 24 26 24 22 19 15 16 10 7 -1 -13 -11 -2 -6 -4 -20 -20 -20 -20 -20 -20 -20 -20 -20 -20 -20 -20 -20 -20 -20 -20 -20
3 2 2 10 7 -0 3 12 18 12 12 17 17 13 15 16 11 12 16 18 19 17 12 11 9 8 7 5 -20 -20 -20 -20 -20 -20 -20 -20 -20 -20 -20 -20 -20 -20 -20
-18 -3 -1 -13 -7 -9 -20 -20 -15 -5 3 2 -1 -2 -1 4 6 8 6 3 1 1 3 5 3 -3 -16 -20 -20 -5 -20 -20 -20 -20 -20 -20 -20 -20 -20 -20 -20 -20 -20
-20 -19 -20 -17 -18 -20 -20 -20 -20 -20 -19 -14 -12 -6 -6 -20 -20 -20 -19 -20 -20 -20 -20 -20 -20 -20 -20 -14 -20 -20 -20 -20 -20 -20 -20 -20 -20 -20 -20 -20 -20 -20 -20
-6 -20 -20 -20 -20 -20 -20 -20 -20 -20 -20 -20 -20 -20 -20 -20 -20 -20 -20 -20 -20 -20 -20 -20 -20 -20 -20 -20 -20 -20 -20 -20 -20 -20 -20 -20 -20 -20 -20 -20 -20 -20 -20
-20 -20 -20 -20 -20 -20 -17 -19 -20 -20 -20 -20 -15 -20 -20 -20 -20 -20 -20 -20 -20 -20 -20 -20 -20 -20 -20 -20 -20 -20 -20 -20 -20 -20 -20 -20 -20 -20 -20 -20 -20 -20 -20
-7 -20 -20 -20 -12 -11 -20 -20 -20 0 -7 -20 -20 -20 -20 -20 -20 -18 -20 -20 -15 -20 -20 -20 -20 -20 -20 -20 -20 -20 -20 -20 -20 -20 -20 -20 -20 -20 -20 -20 -20 -20 -20
-19 -20 -17 -9 -20 -20 -16 9 -20 -20 -19 -3 3 -20 -20 -20 -12 -20 -20 -20 -20 -20 -20 -20 -20 -20 -20 -20 -20 -20 -20 -20 -20 -20 -20 -20 -20 -20 -20 -20 -20 -20 -20
-20 -20 2 5 -0 4 5 1 -0 -20 -0 -20 -20 -16 -20 -20 -20 -20 -20 -20 -20 -20 -20 -20 -20 -20 -20 -20 -20 -20 -20 -20 -20 -20 -20 -20 -20 -20 -20 -20 -20 -20 -20
-14 -20 -13 -20 -13 -20 -20 -20 -5 -13 -20 -20 3 -20 -13 -20 -20 -20 -20 -20 -20 -20 -20 -20 -20 -20 -20 -20 -20 -20 -20 -20 -20 -20 -20 -20 -20 -20 -20 -20 -20 -20 -20

GFSGL_prec_radar_099.txt.gz
Reflectivity
-17 -20 -6 -0 16 -15 -11 -20 -20 -20 -20 -20 -20 -17 -10 9 12 35 36 12 27 24 24 28 23 23 25 8 25 -5 6 -20 -20 -18 -20 -20 -7 -16 -5 -17 4 23 -10
-18 1 -12 24 26 11 -20 -20 -20 -20 -17 -20 -20 -20 1 24 27 28 31 19 26 25 27 27 28 23 31 16 -4 13 8 -20 -9 18 18 -14 -20 -20 -17 -20 -14 -20 -20
6 10 9 28 14 -12 -18 -20 -7 -20 -20 -20 -20 -20 -14 23 26 25 28 31 21 23 30 28 29 25 24 13 14 23 13 13 22 23 24 3 -20 -20 -20 -19 -20 12 -20
10 22 27 9 31 7 -4 -20 -19 -20 -20 -20 -20 -20 -1 18 30 28 24 24 32 28 31 31 30 27 25 24 28 22 26 27 18 16 16 -7 -20 -12 -10 -18 -15 -13 -20
22 10 23 9 18 10 -11 -20 2 -19 -20 -20 -17 -20 22 28 25 26 23 29 27 29 28 31 28 33 31 29 27 16 14 14 10 9 -20 -20 -20 -20 -20 -20 -20 -20 -20
21 11 22 2 10 -15 3 14 15 -20 -20 -12 -20 -20 -10 21 21 26 29 36 32 30 31 29 27 32 32 30 22 17 11 2 -17 -20 -20 -20 -20 -20 -20 -20 -20 10 3
10 18 15 -17 12 18 3 9 13 21 -10 0 16 17 14 9 26 20 29 25 27 29 30 29 30 24 26 30 1 10 6 -12 10 -11 -20 -20 -20 -20 -20 -16 23 7 -7
27 23 18 -6 16 26 16 17 17 22 22 17 9 10 15 17 -6 24 27 22 28 27 30 33 24 22 30 19 -20 -17 -19 -19 -5 4 -10 -12 -10 -13 -11 -4 16 23 17
33 25 15 25 23 10 21 21 21 18 13 19 20 13 18 11 15 12 14 6 25 29 27 11 25 26 25 30 11 23 19 -7 29 19 7 14 12 15 26 28 13 18 -13
23 27 18 22 19 15 16 22 23 27 15 18 15 16 32 18 21 23 19 6 15 16 15 -2 14 15 17 3 -0 19 23 26 22 4 13 20 22 25 32 19 3 28 1
24 22 30 34 31 17 19 12 12 5 7 16 21 6 11 18 17 26 31 24 26 8 -1 3 15 27 22 20 19 -5 4 10 20 14 11 21 21 26 14 7 -2 12 -1
22 25 29 28 28 30 31 33 24 23 14 14 18 20 17 15 25 22 22 25 29 19 16 -2 5 12 17 25 28 32 30 23 25 26 26 24 30 21 -11 -20 -20 -20 -20
26 26 29 32 27 26 24 26 17 13 16 2 8 14 15 9 17 27 26 20 17 13 18 26 27 30 33 34 30 29 24 7 15 20 12 -20 -20 -20 -20 -20 -20 -20 -20
20 22 24 28 30 28 26 22 19 21 23 25 21 20 23 23 21 27 23 25 23 23 26 25 25 23 20 18 11 11 -1 -20 -20 -20 -20 -20 -20 -20 -20 -20 -20 -20 -20
14 20 22 22 24 27 27 27 26 22 22 23 24 22 26 25 24 26 24 24 24 25 24 18 19 17 13 13 8 3 -16 -20 -20 -20 -20 -20 -20 -20 -20 -20 -20 -20 -20
3 12 17 20 21 23 24 24 23 21 21 21 23 23 23 19 18 18 18 15 12 18 18 15 13 5 -1 -1 -20 -20 -9 -4 1 -11 -7 -9 -20 -20 -20 -20 -20 -20 -20
-20 -17 -3 1 8 11 14 17 20 22 22 21 18 17 16 18 19 19 23 24 24 21 17 20 13 6 -2 -19 -20 -20 -20 -19 -10 1 4 5 -2 -20 -20 -20 -20 -20 -20
-20 -20 -14 2 1 -2 -5 -2 2 3 7 13 11 14 16 16 14 12 14 17 20 21 21 20 20 21 20 14 13 13 10 5 1 -5 -11 -14 -16 -16 -10 -17 -20 -20 -20
-20 -20 -20 -20 -19 -20 -20 -20 -20 -20 -20 -5 -1 -0 -7 -13 -7 -3 -9 -14 -14 -7 -3 -2 -8 -10 -14 -12 -11 -12 -13 -12 -11 -13 -16 -18 -20 -20 -20 -20 -20 -20 -20
-20 -20 -20 -20 -20 -20 -20 -20 -20 -20 -20 -20 -20 -20 -17 -18 -19 -13 -9 -11 -12 -8 -8 -12 -17 -20 -20 -20 -20 -20 -20 -20 -20 -20 -20 -20 -20 -20 -20 -20 -20 -20 -20
-20 -20 -20 -20 -20 -20 -20 -20 -20 -20 -20 -20 -20 -20 -20 -20 -20 -20 -20 -20 -20 -20 -20 -20 -20 -20 -20 -20 -20 -20 -20 -20 -20 -20 -20 -20 -20 -20 -20 -20 -20 -20 -20
-20 -20 -20 -20 -20 -20 -20 -20 -20 -20 -20 -20 -20 -20 -20 -20 -20 -20 -20 -20 -20 -20 -20 -20 -20 -20 -20 -20 -20 -20 -20 -20 -20 -20 -20 -20 -20 -20 -20 -20 -20 -20 -20
-20 -20 -20 -20 -20 -20 -20 -20 -20 -20 -20 -20 -20 -20 -20 -20 -20 -20 -20 -20 -20 -20 -20 -20 -20 -20 -20 -20 -20 -20 -20 -20 -20 -20 -20 -20 -20 -20 -20 -20 -20 -20 -20
-20 -20 -20 -20 -20 -20 -20 -20 -20 -20 -20 -20 -20 -20 -20 -20 -20 -20 -20 -20 -20 -20 -20 -20 -20 -20 -20 -20 -20 -20 -20 -20 -20 -20 -20 -20 -20 -20 -20 -20 -20 -20 -20
-20 -20 -20 -20 -20 -20 -20 -20 -20 -20 -20 -20 -20 -20 -20 -20 -20 -20 -20 -20 -20 -20 -20 -20 -20 -20 -20 -20 -20 -20 -20 -20 -20 -20 -20 -20 -20 -20 -20 -20 -20 -20 -20
-20 -20 -20 -20 -20 -20 -20 -20 -20 -20 -20 -20 -20 -20 -20 -20 -20 -20 -20 -20 -20 -20 -20 -20 -20 -20 -20 -20 -20 -20 -20 -20 -20 -20 -20 -20 -20 -20 -20 -20 -20 -20 -20

GFSGL_prec_radar_102.txt.gz
Reflectivity
22 25 19 23 -20 -20 -5 -20 3 -20 -19 -18 6 -8 9 -2 17 13 14 12 26 25 4 22 17 24 15 29 23 7 17 -9 16 -12 -20 -20 -20 -17 5 -17 -3 -20 -20
22 25 27 27 -12 11 -20 26 -11 -16 -13 -20 -20 -20 -20 -19 7 -4 12 35 34 24 30 31 30 24 28 30 18 15 1 16 4 10 22 -9 -13 6 18 20 14 16 4
12 -16 25 15 -5 3 23 -9 -1 -13 -20 -20 -15 -20 -20 -20 -16 7 22 30 31 27 30 19 15 13 32 30 23 26 28 32 16 23 25 19 6 4 27 3 -12 -7 -15
30 29 26 24 21 4 26 4 -12 -20 -20 -15 -20 2 -2 -20 -16 21 25 29 27 28 18 25 27 23 27 30 29 30 23 27 28 29 16 22 11 15 25 7 -20 -20 -20
14 18 21 21 18 9 3 -20 -20 -20 -16 -20 -20 -19 -20 -20 10 17 35 28 33 29 28 24 25 32 35 33 33 28 24 28 25 9 -3 -9 20 19 13 -9 -18 -15 -19
28 20 8 24 12 -19 -19 -20 -20 -20 -20 -20 -20 -20 -20 -20 14 28 27 33 32 31 31 28 32 34 32 32 29 27 28 30 21 16 19 29 16 3 5 -10 -7 -12 -16
25 14 11 16 20 -3 17 -17 -20 -20 -7 2 8 -20 -18 -19 24 25 30 29 32 29 33 35 34 29 27 32 31 33 28 23 22 24 26 8 -4 -1 -19 -5 -14 -16 -15
15 17 18 24 24 20 13 -12 -20 -20 -2 14 14 8 13 16 17 25 25 30 29 36 32 33 34 34 31 30 27 33 30 27 17 8 4 6 -4 -9 -16 -19 -19 11 -4
3 18 25 32 31 14 29 24 -6 -16 -20 18 23 25 4 15 14 23 19 20 24 32 31 31 32 34 34 33 28 24 23 23 29 27 30 25 20 17 14 -0 -8 12 16
7 14 16 33 38 32 23 17 1 -19 -17 -2 4 -9 21 4 24 5 9 -5 10 26 31 26 29 31 33 35 34 35 25 20 31 15 -5 11 7 3 6 2 -7 -4 13
20 16 20 21 31 35 31 20 26 25 -12 2 14 16 11 14 22 26 18 18 13 14 7 2 22 32 13 28 28 26 18 21 11 -2 12 31 23 25 11 11 14 19 29
9 25 25 21 30 26 25 28 27 22 4 21 6 11 4 6 22 19 20 22 27 15 26 16 23 24 27 30 26 25 25 23 20 12 20 17 9 8 23 25 21 26 23
-6 16 23 26 27 25 26 30 26 24 18 21 21 20 20 22 12 25 19 13 15 17 9 24 24 22 25 21 17 24 28 18 21 15 18 19 20 19 19 15 5 2 -4
-13 3 11 20 24 27 23 24 25 25 26 21 24 22 18 20 13 12 16 7 12 10 11 5 9 16 18 21 23 24 24 26 25 23 19 12 0 -7 -6 -9 -20 -20 -20
-20 -20 -13 -10 9 18 21 23 22 21 21 22 21 14 18 19 20 18 21 20 16 19 18 17 16 11 15 18 17 14 12 11 12 9 9 1 -5 -10 -20 -20 -20 -20 -20
-20 -20 -20 -7 -18 -14 3 12 19 20 20 18 17 17 19 19 18 16 17 19 19 12 9 9 11 12 10 6 7 12 16 13 7 -3 -1 2 -11 -15 -16 -17 -5 2 9
-20 -20 -20 -20 -20 -14 -12 -13 -6 7 13 15 16 17 18 18 18 15 14 14 14 15 16 16 13 17 19 19 20 19 14 14 16 12 9 12 10 15 18 13 9 4 -11
-20 -20 -20 -20 -20 -20 -20 -20 -11 -2 1 3 9 9 12 14 12 12 13 11 10 12 13 13 11 10 14 15 16 16 17 16 14 11 7 7 5 2 -0 -7 -20 -20 -20
-20 -20 -20 -20 -20 -20 -20 -20 -20 -20 -16 -2 0 3 8 6 8 9 8 4 -3 -4 -6 -5 -3 5 3 -8 2 3 0 2 3 1 2 5 2 -11 -14 -19 -17 -18 -20
-20 -20 -20 -20 -20 -20 -20 -20 -20 -20 -20 -20 -20 -15 -16 -18 -6 -16 -11 -3 3 -0 -2 -3 -7 -3 1 -2 -12 -19 -16 -7 -12 -12 -11 -11 -9 -10 -15 -20 -20 -20 -20
-20 -20 -20 -20 -20 -20 -20 -20 -20 -20 -20 -20 -20 -20 -20 -20 -20 -20 -20 -20 -20 -20 -20 -20 -20 -20 -20 -20 -20 -20 -20 -20 -20 -20 -20 -20 -20 -20 -20 -20 -20 -20 -20
-20 -20 -20 -20 -20 -20 -20 -20 -20 -20 -20 -20 -20 -20 -20 -20 -20 -20 -20 -20 -20 -20 -20 -20 -20 -20 -20 -20 -20 -20 -20 -20 -20 -20 -20 -20 -20 -20 -20 -20 -20 -20 -20
-20 -20 -20 -20 -20 -20 -20 -20 -20 -20 -20 -20 -20 -20 -20 -20 -20 -20 -20 -20 -20 -20 -20 -20 -20 -20 -20 -20 -20 -20 -20 -20 -20 -20 -20 -20 -20 -20 -20 -20 -20 -20 -20
-20 -20 -20 -20 -20 -20 -20 -20 -20 -20 -20 -20 -20 -20 -20 -20 -20 -20 -20 -20 -20 -20 -20 -20 -20 -20 -20 -20 -20 -20 -20 -20 -20 -20 -20 -20 -20 -20 -20 -20 -20 -20 -20
-20 -20 -20 -20 -20 -20 -20 -20 -20 -20 -20 -20 -20 -20 -20 -20 -20 -20 -20 -20 -20 -20 -20 -20 -20 -20 -20 -20 -20 -20 -20 -20 -20 -20 -20 -20 -20 -20 -20 -20 -20 -20 -20
-20 -20 -20 -20 -20 -20 -20 -20 -20 -20 -20 -20 -20 -20 -20 -20 -20 -20 -20 -20 -20 -20 -20 -20 -20 -20 -20 -20 -20 -20 -20 -20 -20 -20 -20 -20 -20 -20 -20 -20 -20 -20 -20

GFSGL_prec_radar_105.txt.gz
Reflectivity
21 16 -12 -8 4 4 7 4 -4 -9 9 15 14 -5 -20 -11 -13 -10 -1 0 9 11 13 22 22 26 14 -15 -6 26 27 13 18 5 3 13 -20 -20 -20 -20 -20 -20 -20
24 27 -18 8 6 -9 -16 26 -8 9 10 -12 7 -20 5 10 14 15 13 10 25 11 7 14 22 24 19 0 27 1 27 1 8 22 25 17 6 -20 -20 -20 -20 -20 -20
25 23 16 26 -13 -3 26 27 -6 7 -6 28 -20 0 -2 -20 -20 -19 11 12 13 6 23 20 36 21 21 24 21 21 25 21 26 28 11 15 -13 -13 -19 -17 -1 1 -16
28 32 17 31 17 27 29 8 11 21 -4 -20 -20 -18 9 -20 -6 -18 -20 -20 -6 -2 13 29 36 29 15 29 20 19 30 23 25 21 -5 25 23 29 20 2 20 22 17
13 -8 6 19 24 26 7 -6 20 -0 -20 -3 -13 9 5 -17 -16 -20 -20 -18 -17 17 23 26 30 30 25 25 21 26 23 26 30 26 22 28 26 24 26 13 25 29 23
31 32 24 22 -3 4 22 16 -20 -20 -20 -8 -20 -10 13 -20 2 11 6 -10 25 28 30 27 28 27 29 27 27 23 31 26 31 25 23 23 22 24 29 30 31 24 19
35 28 34 20 21 9 9 2 -8 15 -20 -20 -20 -20 -20 -20 -6 8 -19 3 29 33 31 28 27 30 29 32 32 30 34 32 31 34 30 31 28 25 27 29 27 22 -3
11 15 18 18 23 16 21 19 2 10 13 -20 -20 -20 -20 -3 11 18 13 2 13 31 28 30 34 34 27 31 34 33 32 31 31 33 28 24 31 30 30 27 26 23 21
-12 6 10 25 20 25 21 25 33 28 13 -7 -3 8 -11 -7 0 -1 13 4 7 25 29 32 32 30 38 34 33 35 35 33 38 33 29 28 25 23 24 28 27 18 7
-12 2 -6 4 20 9 22 19 25 26 21 21 9 1 6 14 8 28 16 6 -17 7 21 32 32 33 37 35 33 31 32 32 31 29 27 26 23 24 28 22 29 31 33
-20 -15 -0 -9 5 5 17 31 36 23 31 21 25 -19 -14 -3 2 13 32 13 5 -10 4 1 26 23 31 37 35 32 31 36 33 30 34 21 32 19 11 13 11 12 18
-20 -20 -20 -5 2 10 20 16 22 36 36 23 26 18 -3 4 6 27 12 14 25 17 16 16 6 17 15 30 25 25 31 31 32 30 26 28 8 5 7 17 28 22 26
-20 -20 -20 -20 -18 -7 4 17 20 23 28 30 31 12 9 8 0 15 11 16 7 7 4 21 27 21 29 22 18 17 20 20 28 23 17 17 23 20 15 16 18 17 19
-20 -20 -20 -20 -20 -14 1 5 11 21 25 26 26 24 20 19 12 9 22 22 9 11 11 5 12 13 12 16 15 19 19 16 14 17 21 21 19 18 17 16 8 -1 -5
-20 -20 -20 -20 -20 -20 -17 7 17 19 20 20 21 21 18 23 22 19 21 18 13 16 15 3 -15 -12 -4 8 11 9 6 13 18 18 16 9 6 5 1 1 3 6 -4
-20 -20 -20 -20 -20 -20 -20 -20 -10 8 15 17 17 15 17 20 20 18 17 13 11 12 11 11 8 6 6 8 5 -1 -5 -1 6 9 2 -6 -11 -1 6 4 -1 6 2
-20 -20 -20 -20 -20 -20 -20 -20 -20 -20 -20 -11 8 14 16 14 10 9 6 8 7 2 8 9 8 8 11 11 9 7 9 9 8 8 10 8 7 8 10 11 13 14 16
-20 -20 -20 -20 -20 -20 -20 -20 -20 -20 -20 -20 -20 -12 -5 0 7 10 11 6 -1 -2 -8 -13 -15 -7 3 6 1 -4 -10 -9 -4 -5 1 5 7 9 10 10 10 10 9
-20 -20 -20 -20 -20 -20 -20 -20 -20 -20 -20 -20 -20 -20 -20 -20 -20 -19 -11 -3 2 -13 -8 -6 -10 -18 -20 -20 -20 -20 -20 -20 -17 -15 -7 -2 2 3 5 6 6 5 3
-20 -20 -20 -20 -20 -20 -20 -20 -20 -20 -20 -20 -20 -20 -20 -20 -20 -20 -20 -20 -20 -20 -19 -16 -7 -4 -3 -4 -12 -20 -20 -20 -20 -20 -20 -19 -20 -20 -20 -19 -20 -20 -20
-20 -20 -20 -20 -20 -20 -20 -20 -20 -20 -20 -20 -20 -20 -20 -20 -20 -20 -20 -20 -20 -20 -20 -20 -20 -20 -20 -20 -20 -20 -20 -20 -20 -20 -20 -20 -20 -20 -20 -20 -20 -20 -20
-20 -20 -20 -20 -20 -20 -20 -20 -20 -20 -20 -20 -20 -20 -20 -20 -20 -20 -20 -20 -20 -20 -20 -20 -20 -20 -20 -20 -20 -20 -20 -20 -20 -20 -20 -20 -20 -20 -20 -20 -20 -20 -20
-20 -20 -20 -20 -20 -20 -20 -20 -20 -20 -20 -20 -20 -20 -20 -20 -20 -20 -20 -20 -20 -20 -20 -20 -20 -20 -20 -20 -20 -20 -20 -20 -20 -20 -20 -20 -20 -20 -20 -20 -20 -20 -20
-20 -20 -20 -20 -20 -20 -20 -20 -20 -20 -20 -20 -20 -20 -20 -20 -20 -20 -20 -20 -20 -20 -20 -20 -20 -20 -20 -20 -20 -20 -20 -20 -20 -20 -20 -20 -20 -20 -20 -20 -20 -20 -20
-20 -20 -20 -20 -20 -20 -20 -20 -20 -20 -20 -20 -20 -20 -20 -20 -20 -20 -20 -20 -20 -20 -20 -20 -20 -20 -20 -20 -20 -20 -20 -20 -20 -20 -20 -20 -20 -20 -20 -20 -20 -20 -20
-20 -20 -20 -20 -20 -20 -20 -20 -20 -20 -20 -20 -20 -20 -20 -20 -20 -20 -20 -20 -20 -20 -20 -20 -20 -20 -20 -20 -20 -20 -20 -20 -20 -20 -20 -20 -20 -20 -20 -20 -20 -20 -20

GFSGL_prec_radar_108.txt.gz
Reflectivity
-19 15 12 -9 29 -9 -20 -20 -20 -20 -20 7 -20 8 -3 4 9 15 13 7 -8 -2 17 1 -11 -1 13 9 -19 4 21 14 6 21 12 31 19 -10 -6 -13 -20 -20 -20
14 28 25 30 0 -15 -20 -20 -20 -20 5 -20 -14 13 4 23 1 -3 2 -3 12 10 -5 11 -10 12 22 0 7 4 24 14 33 21 20 13 -4 -4 11 8 -3 -20 -20
28 28 24 29 6 -10 29 -19 20 9 -9 12 10 -0 18 7 9 -7 -5 -10 11 7 16 11 25 23 7 21 27 0 2 7 20 23 23 25 -2 17 8 -20 -20 -20 -20
13 24 18 23 21 6 11 2 25 26 28 25 11 8 -11 4 -3 -20 5 -12 -20 -20 -20 1 8 17 10 26 11 30 -5 15 28 24 14 28 18 25 21 -15 -20 -20 -20
12 6 4 20 13 -5 24 24 26 35 25 15 -1 -9 10 7 9 -3 -19 -20 -20 -20 -20 3 -18 22 7 23 13 28 24 22 24 28 24 27 24 17 15 7 -17 -20 -12
18 24 26 35 36 31 38 36 36 19 20 12 -20 -14 -3 15 18 12 -3 -20 -20 -20 -20 -2 14 26 5 22 31 29 29 29 24 19 16 31 22 6 23 34 21 13 14
12 30 26 31 37 38 14 -3 19 5 3 6 14 16 14 13 16 12 7 -17 -20 -20 -20 -1 28 29 30 32 33 33 33 29 23 18 28 25 31 25 14 28 29 29 26
-19 21 25 40 45 32 17 17 2 7 13 18 21 22 13 12 11 9 16 2 -16 -10 -16 4 14 29 24 31 31 31 31 30 32 25 25 31 35 34 33 29 30 31 30
6 -15 22 29 27 37 35 12 24 14 -2 16 11 15 -2 -1 18 -1 10 -19 -11 -12 3 -2 5 31 33 31 23 21 36 36 41 38 34 31 34 33 32 30 29 30 31
-18 -0 -9 -5 23 7 20 32 20 25 14 26 11 12 14 8 32 18 9 10 22 -3 -17 -2 14 8 27 26 29 31 32 36 37 36 36 35 35 32 32 29 28 31 31
-20 -20 -20 -13 -9 -4 -7 15 5 15 21 24 26 31 14 13 10 19 19 -1 -1 13 13 -3 3 17 15 31 32 34 36 36 36 37 33 35 27 34 29 31 31 31 35
-20 -20 -20 -20 -20 -20 -20 -16 -5 5 -8 11 29 33 23 22 21 14 14 12 11 -11 -0 11 11 12 6 18 20 20 33 30 34 28 31 30 34 33 31 33 30 32 31
-20 -20 -20 -20 -20 -20 -20 -20 -20 -19 -4 6 10 16 22 24 25 19 21 19 18 5 4 10 15 17 15 1 6 14 13 7 16 0 18 30 29 33 33 26 21 18 27
-20 -20 -20 -20 -20 -20 -20 -20 -20 -20 -20 -20 -20 -13 10 16 19 20 23 19 16 9 12 11 14 13 13 4 6 17 24 19 21 3 9 10 16 17 15 11 13 13 5
-20 -20 -20 -20 -20 -20 -20 -20 -19 -1 -18 -20 -20 -20 -20 -4 11 13 17 17 20 21 21 19 13 14 14 11 16 15 9 8 7 11 14 15 12 11 14 15 16 19 22
-20 -20 -20 -20 -20 -20 -20 -20 -20 -15 -14 -20 -5 -14 -18 4 6 10 12 16 17 19 18 18 19 17 14 15 16 19 19 16 18 17 16 12 14 19 20 20 19 18 19
-20 -20 -20 -20 -20 -20 -20 -20 -20 -20 -20 -20 -19 -4 -2 -1 -5 -2 7 10 8 11 13 12 8 10 12 11 12 13 13 14 13 12 14 13 12 10 7 7 4 -7 2
-20 -20 -20 -20 -20 -20 -20 -20 -20 -20 -20 -20 -20 -20 -8 -8 -13 -20 -20 -20 -16 -3 4 6 6 4 3 5 6 3 3 3 6 8 9 9 4 -8 -12 -11 -10 -8 -13
-20 -20 -20 -20 -20 -20 -20 -20 -20 -20 -20 -20 -20 -20 -20 -20 -20 -20 -20 -20 -20 -20 -20 -17 -20 -20 -20 -20 -19 -8 1 4 3 -6 -11 -8 -13 -19 -20 -20 -20 -20 -20
-20 -20 -20 -20 -20 -20 -20 -20 -20 -20 -20 -20 -20 -20 -20 -20 -20 -20 -20 -20 -20 -20 -20 -20 -20 -20 -20 -20 -20 -20 -20 -20 -20 -18 -14 -20 -20 -20 -20 -20 -20 -20 -20
-20 -20 -20 -20 -20 -20 -20 -20 -20 -20 -20 -20 -20 -20 -20 -20 -20 -20 -20 -20 -20 -20 -20 -20 -20 -20 -20 -20 -20 -20 -20 -20 -20 -20 -20 -20 -20 -20 -20 -20 -20 -20 -20
-20 -20 -20 -20 -20 -20 -20 -20 -20 -20 -20 -20 -20 -20 -20 -20 -20 -20 -20 -20 -20 -20 -20 -20 -20 -20 -20 -20 -20 -20 -20 -20 -20 -20 -20 -20 -20 -20 -20 -20 -20 -20 -20
-20 -20 -20 -20 -20 -20 -20 -20 -20 -20 -20 -20 -20 -20 -20 -20 -20 -20 -20 -20 -20 -20 -20 -20 -20 -20 -20 -20 -20 -20 -20 -20 -20 -20 -20 -20 -20 -20 -20 -20 -20 -20 -20
-20 -20 -20 -20 -20 -20 -20 -20 -20 -20 -20 -20 -20 -20 -20 -20 -20 -20 -20 -20 -20 -20 -20 -20 -20 -20 -20 -20 -20 -20 -20 -20 -20 -20 -20 -20 -20 -20 -20 -20 -20 -20 -20
-20 -20 -20 -20 -20 -20 -20 -20 -20 -20 -20 -20 -20 -20 -20 -20 -20 -20 -20 -20 -20 -20 -20 -20 -20 -20 -20 -20 -20 -20 -20 -20 -20 -20 -20 -20 -20 -20 -20 -20 -20 -20 -20
-20 -20 -20 -20 -20 -20 -20 -20 -20 -20 -20 -20 -20 -20 -20 -20 -20 -20 -20 -20 -20 -20 -20 -20 -20 -20 -20 -20 -20 -20 -20 -20 -20 -20 -20 -20 -20 -20 -20 -20 -20 -20 -20

GFSGL_prec_radar_111.txt.gz
Reflectivity
-11 19 16 -2 10 26 26 -11 -14 -20 -20 10 -13 -3 -20 28 15 13 4 10 11 -1 3 12 11 -5 4 -1 8 17 -13 -9 9 20 -9 25 12 12 21 21 -20 -20 -20
19 7 30 21 10 7 16 26 8 -13 -3 11 -4 -20 20 2 -2 -11 -4 5 19 4 17 9 -2 -4 15 -14 13 7 4 -13 6 0 11 25 15 22 17 24 -17 -20 -20
21 27 26 25 24 19 18 13 17 22 6 32 -2 16 -7 -0 -20 -6 9 15 -10 -15 2 7 19 21 9 7 13 9 2 -13 -7 16 20 15 23 21 21 21 -1 -20 -20
21 24 26 25 28 23 26 19 19 19 21 27 17 -8 12 10 12 -2 -11 6 -20 -9 -13 -1 -12 3 20 19 8 17 17 -1 -4 22 13 4 30 25 18 18 5 -9 -16
11 31 25 22 24 28 18 12 21 14 4 17 16 0 11 23 11 -9 -18 -20 -20 -20 -20 -20 -13 6 -20 -13 9 2 24 1 22 30 14 19 23 24 19 -0 4 17 9
42 14 5 27 25 14 22 18 24 21 19 7 4 22 33 -2 -5 6 0 2 -20 2 -20 -20 -20 -20 11 15 14 20 20 30 21 30 23 19 19 9 28 15 11 20 1
9 33 31 20 41 36 29 36 28 31 28 28 35 30 1 -1 11 -10 -18 -3 14 -0 -20 -20 -20 -20 -20 -19 14 27 31 26 31 15 13 14 28 26 29 26 22 30 24
8 16 38 36 32 38 40 33 35 37 38 25 20 -7 15 3 -9 -7 17 -11 -11 5 -8 -20 -20 -20 -20 -20 6 24 28 19 33 34 29 31 30 21 25 28 33 35 33
-12 12 17 27 33 34 37 40 37 41 25 17 -2 16 3 -6 11 15 9 0 -8 -0 -13 -15 -16 -20 -16 -13 15 35 32 31 35 35 34 30 31 29 34 32 31 29 31
-20 -11 -14 -17 5 22 26 32 34 18 22 30 22 15 19 4 20 3 -4 -5 -1 -8 15 11 13 10 -13 11 3 5 8 31 24 29 35 34 38 38 37 35 32 31 29
-20 -20 -6 -1 -20 -19 -12 15 2 19 23 21 27 26 19 20 19 19 7 21 28 2 20 -7 -7 8 -4 8 17 9 10 28 31 34 38 34 33 36 32 33 33 34 34
-20 -20 -20 -16 -19 -17 -20 -20 -20 -20 -20 -12 -18 9 -12 3 18 24 33 21 19 15 0 11 3 11 6 16 18 18 25 18 -0 27 34 32 30 30 33 31 29 31 30
-20 -20 -20 -20 -20 -20 -18 -20 -20 -20 -20 -20 -20 -20 -20 -2 -17 4 17 22 22 18 7 13 11 9 12 17 20 16 15 12 5 -1 17 20 29 27 31 34 32 32 30
-20 -20 -20 -20 -20 -20 -20 -20 -17 -18 -20 -20 -19 -16 1 -16 -4 -10 1 3 6 7 12 16 17 3 3 9 13 17 14 11 11 13 9 13 10 9 6 6 18 25 26
-20 -20 -20 -20 -20 -20 -20 5 4 4 6 5 5 3 -6 4 7 1 -9 -4 -10 -16 -20 -16 -9 -0 3 13 15 15 17 10 6 19 22 21 12 9 7 3 12 20 22
-20 -20 -20 -20 -20 -20 -20 -20 -20 -18 -12 -3 -20 -5 1 -4 7 -9 -9 -20 -20 -20 -20 -20 -20 -11 0 10 15 18 20 19 19 21 20 20 19 18 19 20 19 15 14
-20 -20 -20 -20 -20 -20 -20 -20 -20 -20 -20 -20 -20 -3 -4 -3 -7 -13 -20 -20 -20 -20 -20 -20 -20 -18 -7 2 9 12 13 15 16 16 17 18 18 18 18 15 15 15 13
-20 -20 -20 -20 -20 -20 -20 -20 -20 -20 -20 -20 -20 -20 -8 -20 -20 -20 -20 -20 -20 -20 -20 -20 -20 -20 -20 -20 -20 -15 -5 2 5 9 11 10 8 9 7 7 9 11 10
-20 -20 -20 -20 -20 -20 -20 -20 -20 -20 -20 -20 -20 -20 -20 -20 -20 -20 -20 -20 -20 -20 -20 -20 -20 -20 -20 -20 -20 -20 -20 -20 -20 -20 -15 -10 -3 -5 -15 -3 -7 -6 -4
-20 -20 -20 -20 -20 -20 -20 -20 -20 -20 -20 -20 -20 -20 -20 -20 -20 -20 -20 -20 -20 -20 -19 -20 -20 -20 -20 -20 -20 -20 -20 -20 -20 -20 -20 -20 -20 -20 -20 -20 -20 -20 -20
-20 -20 -20 -20 -20 -0 1 -2 -20 -20 -20 -20 -20 -20 -20 -20 -20 -20 -20 -20 -10 -19 -4 -20 -20 -20 -20 -20 -20 -20 -20 -20 -20 -20 -20 -20 -20 -20 -20 -20 -20 -20 -20
-20 -20 -20 -20 -20 -20 -11 -0 -20 -13 -20 -20 -20 -20 -20 -20 -20 -20 -20 -20 -20 -20 -20 -20 -20 -20 -20 -20 -20 -20 -20 -20 -20 -20 -20 -20 -20 -20 -20 -20 -20 -20 -20
-20 -20 -20 -20 -20 -20 -20 -20 1 3 2 3 -20 -10 -20 -20 -20 -20 -20 -20 -20 -20 -20 -20 -20 -20 -20 -20 -20 -20 -20 -20 -20 -20 -20 -20 -20 -20 -20 -20 -20 -20 -20
-20 -20 -20 -20 -20 -20 -20 -20 -17 -19 -18 -17 3 2 4 -20 -20 -20 -20 -20 -20 -20 -20 -20 -20 -20 -20 -20 -20 -20 -20 -20 -20 -20 -20 -20 -20 -20 -20 -20 -20 -20 -20
-20 -20 -20 -20 -20 -20 -20 -20 -20 -20 -20 -17 4 1 -20 -20 3 -5 -20 -20 -20 -20 -20 -20 -20 -20 -20 -20 -20 -20 -20 -20 -20 -20 -20 -20 -20 -20 -20 -20 -20 -20 -20
-20 -20 -20 -20 -20 -20 -20 -20 -20 -20 -20 -20 -20 -20 -20 -20 -7 -15 -20 -20 -20 -20 -20 -20 -20 -20 -20 -20 -20 -20 -20 -20 -20 -20 -20 -20 -20 -20 -20 -20 -20 -20 -20

GFSGL_prec_radar_114.txt.gz
Reflectivity
17 23 22 -17 1 17 8 -0 -2 16 30 14 16 8 -6 13 14 4 -13 -10 26 -6 -7 -13 0 0 -14 -17 2 8 15 16 8 -20 -15 -16 -20 11 14 13 14 19 2
17 18 11 2 -4 -18 9 17 21 -3 15 -20 5 -16 7 1 6 13 -16 16 19 16 -20 5 -18 -14 19 16 23 9 4 11 13 16 3 -8 -20 4 4 10 21 2 20
22 23 28 30 20 20 23 6 4 -6 7 14 17 23 32 28 15 23 27 23 29 6 2 8 21 22 17 6 -9 10 9 9 8 3 -16 -8 -15 -0 9 19 22 24 13
20 13 22 27 32 20 26 30 23 31 30 32 27 23 -7 -10 -8 -2 14 7 -10 21 10 -3 -1 5 9 13 12 -18 0 11 7 6 2 14 10 -20 -7 22 27 31 31
25 22 21 23 21 27 26 25 28 25 29 29 19 7 18 10 5 14 21 11 18 19 14 -1 -5 -5 -12 -9 -19 3 21 13 14 10 13 -5 7 -12 3 9 23 22 23
34 29 19 28 26 25 25 28 19 22 12 16 5 12 23 3 26 26 26 26 23 14 -20 -20 -20 -14 -20 -20 -20 -20 -19 -6 15 15 -4 10 2 13 13 20 13 22 16
16 33 30 36 39 33 39 41 28 28 27 24 19 18 26 20 21 17 20 29 16 -15 -20 -20 -20 -20 -13 -20 -20 -20 -13 13 15 18 31 14 8 23 22 27 20 21 15
11 17 25 20 24 38 35 33 33 36 26 18 16 28 34 39 30 37 34 3 -20 -20 -20 -18 -12 -5 -7 -19 -14 -20 -20 -20 -20 3 25 25 30 13 1 30 19 27 28
-20 -3 11 17 26 25 31 34 35 39 34 32 33 28 37 26 27 18 20 -11 -19 -12 -7 -6 -19 -17 -20 -20 -20 -20 -20 -20 3 -17 21 30 27 28 29 32 36 33 34
-20 -20 -20 -20 -11 3 23 28 32 31 31 31 27 26 31 28 22 18 13 5 18 27 17 -6 6 -11 -8 -19 -20 -20 -20 -20 -20 -11 18 27 31 36 37 35 36 32 32
-20 -20 -20 -20 -17 -14 -15 -13 1 16 24 21 24 27 27 22 30 32 29 26 19 12 10 5 14 16 1 -19 -20 -15 -2 -20 -1 -19 -8 -5 21 33 34 33 36 33 30
-20 -20 -20 -20 -8 -2 -4 3 -20 -6 -5 4 3 5 16 19 17 14 14 10 19 24 20 16 18 23 13 -1 -1 9 8 18 -10 10 13 1 2 16 32 30 29 32 32
-20 -20 -11 -18 -2 2 1 1 -1 0 1 -1 3 5 4 4 3 -13 -6 -20 -20 0 -1 17 21 18 6 3 3 1 11 6 8 4 14 15 -1 10 21 28 33 33 33
-20 -20 -20 -20 -20 -15 -5 -4 0 2 2 1 3 2 5 4 4 4 4 6 -17 -7 -17 -4 -20 -8 -18 5 14 17 14 6 11 9 15 15 16 6 -1 14 21 14 24
-20 -20 -20 -20 -20 -20 -20 -20 -20 -5 3 -6 2 3 5 5 9 -4 2 -3 -16 -17 -13 -11 -17 -13 -20 -7 -10 -13 -2 -0 6 15 18 15 2 9 8 7 9 17 14
-20 -20 -20 -20 -20 -20 -20 -20 -20 -20 -20 -20 -20 -5 -1 -1 -4 -14 -20 -20 -20 -20 -10 -4 -1 -0 -2 -1 -2 -3 -14 -5 -1 -2 8 16 15 3 6 19 22 20 16
-20 -20 -20 -20 -20 -20 -20 -20 -20 -20 -20 -20 -20 -20 -20 -19 -20 -20 -20 -20 -20 -20 -1 -2 0 0 1 -1 -3 -1 0 -1 -0 -2 -4 -1 5 8 11 8 12 15 13
-20 -20 -20 -20 -20 -20 -20 -20 -20 -20 -20 -20 -20 -20 -20 -20 -20 -20 -20 -20 -20 -20 -20 -20 -20 -20 -20 -20 -9 -3 -1 -0 -1 -2 0 0 -0 2 6 10 11 9 11
-20 -20 -20 -3 -3 -12 -20 -20 -20 -20 -20 -20 -20 -20 -20 -20 -20 -20 -20 -20 -20 -20 -20 -20 -20 -20 -20 -20 2 1 0 -1 -0 -1 -5 -14 -2 -15 -12 -5 -0 -2 -8
-20 -20 -20 -20 -20 -20 -20 -20 -20 -20 -20 -20 -17 -20 -20 -20 -20 -20 -20 -4 -11 -8 -4 -20 -14 -6 -4 -20 -1 2 -2 -2 -11 -18 0 3 1 -8 -20 -19 -18 -20 -20
-20 -20 -20 -20 -20 -20 -12 -19 -6 -20 -19 -20 -20 -12 -20 -20 -20 -20 -20 -17 -3 -2 1 2 1 1 -1 -20 -20 -4 -18 1 -3 -2 -1 -2 1 -3 -20 -20 -20 -20 -20
-20 -20 -20 -20 -20 -20 -20 -20 -6 -0 0 -20 2 1 -16 2 2 -1 -1 3 3 0 -19 2 2 -1 -14 -1 -15 1 -8 -2 -0 1 -3 -20 -20 -20 -20 -20 -20 -20 -20
-20 -20 -20 -20 -20 -20 -15 -20 -6 2 1 3 4 4 4 4 4 4 5 4 4 4 3 1 3 -1 -0 2 1 -19 -20 -20 -2 -4 0 -1 -2 -2 -1 -15 -20 -20 -20
-4 0 -14 -6 -0 -3 2 3 3 -11 1 4 4 -7 -16 4 -19 4 4 4 4 4 4 4 1 -14 -17 0 2 -14 -20 -20 -14 -2 -3 0 -3 -6 -9 -20 -20 -20 -20
4 4 3 4 5 5 5 5 2 5 5 2 6 6 2 -20 -20 5 6 2 3 4 3 2 2 1 -1 -19 -20 -20 -20 -20 -20 -20 -2 -1 -6 -20 -20 -20 -20 -20 -20
4 5 5 5 -11 -20 1 -2 1 -11 -16 -1 -4 -4 -8 -15 -15 8 8 6 4 3 2 3 3 -0 -0 -1 -5 -20 -20 -20 -20 -20 -12 -1 -2 -3 -11 -20 -20 -4 -20

GFSGL_prec_radar_117.txt.gz
Reflectivity
-18 -2 10 11 11 -17 12 -14 -20 -20 1 -20 24 -11 -1 15 8 11 20 -11 9 17 -6 4 0 9 5 -12 10 25 22 10 10 -20 -20 -16 -8 3 -9 -20 5 -20 -13
33 11 18 20 21 0 -18 30 -20 9 20 -12 -20 -4 3 16 16 18 20 23 -6 2 -10 -4 16 10 -5 -1 -17 29 -9 9 6 3 5 6 7 9 5 -9 -20 -20 -10
31 25 25 24 21 -0 7 26 11 -19 38 24 -7 36 26 6 9 -0 8 11 7 16 -3 30 16 10 21 9 20 17 24 1 15 25 -2 -7 18 16 1 -9 -3 -5 -13
32 26 25 12 -12 -0 6 29 26 18 23 21 -9 10 28 13 10 13 23 17 26 2 -1 27 28 31 6 0 -7 -5 -2 15 5 16 13 -17 1 -15 7 -16 -20 -20 -19
36 34 24 12 13 17 7 28 21 20 25 22 22 24 17 9 20 19 23 22 28 18 5 2 27 18 -2 11 -20 -20 -20 -20 -16 11 10 9 -2 -6 -2 5 5 1 -16
20 29 34 34 22 8 19 28 27 28 30 20 21 23 29 31 30 29 21 26 27 22 25 -19 2 21 5 -4 -20 -14 -7 -20 -20 -13 4 11 8 1 2 16 26 28 10
25 24 28 29 39 28 32 29 16 22 24 24 28 20 24 25 28 25 23 25 23 9 14 5 15 1 11 -5 -20 5 -2 -9 -4 -13 -20 -14 13 28 24 20 28 21 -9
-10 4 13 21 26 31 31 27 23 24 28 20 25 25 19 25 30 28 24 28 36 37 4 21 26 16 10 -8 -20 -20 -20 -20 -20 -9 -12 -17 -12 -11 23 27 21 23 19
-20 -20 2 -16 8 29 33 30 38 35 34 33 32 31 30 35 26 25 30 30 32 33 20 28 22 2 13 -3 -17 -17 -20 -20 2 -18 -20 -20 -19 -15 -20 3 30 30 26
-18 -19 -20 -20 -20 -17 18 12 27 33 30 34 37 36 28 30 34 22 26 21 28 35 34 26 12 3 9 -19 -5 -20 -20 -19 -20 -20 -20 -10 3 -17 2 0 16 29 24
-3 -4 -13 -0 -13 -16 -13 -14 -4 9 11 18 15 24 27 25 29 30 25 28 24 21 21 22 21 31 35 35 23 11 -9 -10 -4 -19 -20 -20 -20 -20 -20 -20 -4 27 31
-20 -18 -14 -16 -1 -10 -0 -15 -10 -15 -19 -11 2 8 16 14 15 23 22 22 24 24 27 28 26 24 3 4 7 16 18 9 -20 -20 -12 -8 -2 3 -20 -20 -18 10 27
-20 -20 -20 -7 -20 -20 -20 -11 -20 -8 -12 3 -8 -1 1 2 -2 -17 -6 -4 14 8 13 7 -6 -6 -20 -20 -19 -3 5 1 -2 -20 -13 -7 1 8 9 8 3 -8 16
-20 -20 -20 -20 -5 -20 -20 -20 -20 -20 -7 -5 2 -3 0 1 5 4 -1 2 -17 -7 6 4 -20 -6 -17 -1 -9 1 8 5 3 -17 -20 -11 0 6 6 11 14 14 15
-20 -20 -20 -20 -20 -20 -20 -20 -20 -13 -13 -2 -1 4 -1 1 3 -10 -8 -6 1 -8 -11 0 -1 -1 -2 1 1 -0 0 1 5 5 2 -2 -2 -20 -4 13 12 15 18
-20 -20 -20 -20 -20 -20 -20 -20 -20 -20 -20 -20 -20 -13 -2 -15 -20 -20 -20 -20 -20 -20 -20 -2 4 3 4 3 5 3 -1 -0 1 2 -12 0 -0 -1 -4 -3 8 10 10
-20 -20 -20 -20 -20 -20 -20 -20 -20 -20 -20 -20 -20 -20 -20 -20 -20 -20 -20 -20 -20 -20 -20 -20 1 -1 -19 -19 -3 -0 4 4 -7 -1 0 -1 4 1 -2 -2 -0 5 5
-20 -20 -20 -20 -20 -20 -20 -20 -20 -20 -20 -20 -20 -20 -20 -20 -20 -20 -20 -20 -20 -20 -20 -20 -20 -20 -20 -20 -16 -3 -3 -5 1 4 2 5 6 2 2 1 -0 -1 3
-20 -20 -13 -5 -20 -16 -20 -20 -20 -20 -20 -20 -20 -20 -20 -20 -20 -20 -20 -19 -20 -20 -20 -20 -20 -7 -20 -20 2 2 5 1 0 -9 3 2 3 1 1 -0 -17 -19 -7
-20 -20 -20 -20 -20 -20 -20 -20 -20 -20 -20 -20 -17 -4 -20 -20 -20 -20 -20 -2 -3 -20 -3 -8 -3 -0 1 0 -0 -12 -11 -3 -9 -3 1 3 5 0 -4 -14 -20 -20 -20
-20 -20 -20 -20 -20 -20 -20 -20 -20 -20 -20 -20 -20 -20 -20 -18 -2 -1 -1 0 1 1 0 2 1 1 -1 -2 -2 2 -0 -0 1 2 -1 -1 0 -1 -1 -1 -16 -20 -20
-20 -20 -20 -20 -20 -20 -20 -20 -3 -1 -2 -1 1 -1 -15 1 1 -0 0 3 6 4 3 1 5 1 1 3 2 2 -1 0 -0 -17 -2 -1 -2 1 -2 -3 -1 -14 -20
-20 -10 -20 -20 -10 -20 -0 -1 2 1 1 2 3 4 4 9 6 5 6 6 3 5 5 3 2 -1 -1 3 5 1 -2 -0 2 -11 -19 3 -9 -20 1 -1 -3 -13 -20
-1 2 -1 -1 3 2 6 3 6 -11 4 6 9 9 8 6 -1 8 10 10 5 4 9 1 4 3 -18 -2 0 -2 -20 -20 -14 -13 -6 -7 0 -20 -1 -3 -7 -20 -11
4 4 1 2 4 8 11 10 9 10 9 9 10 8 6 8 5 8 11 9 6 3 7 4 7 -2 4 -1 -11 -10 -20 -20 -20 -20 -20 1 -2 -3 -20 -5 -20 -4 -20
3 2 2 7 6 2 8 -2 -6 -6 9 -17 11 13 10 9 9 11 10 10 9 7 2 8 5 4 3 -1 1 -20 -20 -20 -20 -20 -20 2 -3 -0 -10 -2 -18 -1 -20

GFSGL_prec_radar_120.txt.gz
Reflectivity
-19 -17 -19 5 4 2 -0 12 -20 -20 -20 -20 19 -19 30 50 36 31 7 8 12 2 -15 -4 -18 -10 5 11 4 9 -6 -15 8 7 27 25 12 -20 -20 -20 -20 -20 -12
8 1 2 4 13 7 17 20 6 0 -20 26 32 -20 20 33 39 18 -9 13 15 -2 15 14 26 25 4 -11 31 -17 31 31 28 -15 -20 -20 -20 15 -12 -20 -20 -20 -20
34 22 20 24 12 17 21 18 17 -20 -20 18 -20 26 31 33 33 11 -1 15 -8 15 -6 18 2 4 10 1 -15 -17 32 26 11 27 -19 5 -20 -20 4 -3 -13 -20 -20
33 35 24 25 29 28 26 12 -16 11 17 11 17 26 30 32 16 14 12 22 20 24 12 27 28 25 28 -18 -13 29 10 -17 -3 13 6 -20 9 -20 21 13 14 -9 -14
22 27 33 32 29 26 12 20 -17 10 32 39 31 32 34 30 32 29 28 19 20 28 29 27 27 13 18 11 27 2 38 2 21 -20 -20 -18 1 6 -17 8 11 1 -2
19 24 26 35 33 21 15 20 31 29 39 37 32 23 32 31 31 35 18 20 27 28 19 21 1 6 11 27 19 9 6 4 -13 -20 -20 -20 -20 6 16 16 15 5 16
-4 11 16 21 28 26 22 19 30 26 25 26 30 32 32 31 40 33 32 31 31 29 29 12 11 28 28 23 23 15 16 5 -13 -19 -20 -20 -20 -20 -20 -17 -16 21 20
-20 -17 -2 14 20 26 30 31 32 19 15 22 14 18 24 23 26 43 34 31 32 26 33 26 37 27 23 17 9 17 23 -10 -10 -17 -20 -20 -20 -20 -20 -20 -20 -1 1
-20 -20 -20 -14 0 10 16 24 28 29 27 24 27 26 23 27 28 27 25 27 41 41 29 10 31 39 37 39 32 32 20 22 14 8 9 9 8 4 3 -9 -20 -20 -20
-3 -20 -17 -20 -12 -1 7 6 13 18 19 24 27 29 27 31 38 36 34 35 33 32 38 24 16 18 23 23 24 21 24 26 -12 -20 -20 2 4 6 13 -6 -20 -20 -20
-20 -20 -20 -20 -20 -20 -9 2 2 5 8 9 12 18 15 19 19 22 25 28 22 21 22 20 23 23 22 22 28 23 22 15 21 23 21 10 -20 -20 -20 -20 -20 -20 -20
-20 -20 -20 -20 -20 -20 -19 -11 -0 -17 -20 -15 2 7 9 5 11 9 14 16 10 14 11 12 16 16 18 17 19 24 27 27 26 24 20 17 5 -20 -20 -20 -20 -20 -20
-20 -20 -20 -20 -20 -20 -20 -20 -20 -15 -20 -20 -20 -7 -2 4 -2 3 7 6 -17 -6 -5 3 -4 -5 5 13 15 13 17 13 17 16 14 15 -12 -19 -20 -20 -20 -20 -20
-20 -20 -20 -20 -18 -20 -20 -20 -20 -20 -20 -20 -20 -20 -18 -11 -3 -4 -6 1 -6 -5 -11 -19 -20 -20 -20 -20 -8 6 1 5 7 -4 0 -0 -20 -20 -20 -20 -20 -20 -20
-20 -20 -20 -20 -20 -17 -20 -20 -20 -20 -20 -20 -20 -20 -20 -20 -20 -20 -19 -11 -7 -8 -18 -20 -20 -20 -20 -20 -20 -11 -20 -20 -20 -20 -17 -20 -20 -20 -20 -20 -20 -20 -20
-20 -20 -20 -20 -20 -20 -16 -7 -20 -20 -20 -20 -20 -20 -20 -15 -20 -20 -20 -20 -20 -20 -20 -18 -15 -14 -20 -20 -20 -20 -20 -20 -20 -20 -20 -20 -5 -20 -20 -20 -20 -20 -20
-20 -20 -20 -20 -20 -20 -20 -20 -20 -20 -20 -20 -20 -20 -20 -3 -20 -20 -20 -20 -20 -20 -20 -20 -20 -20 -20 -20 -20 -6 -6 -20 -20 -2 -20 -20 -20 -19 -12 -20 -20 -20 -20
-20 -20 -15 -14 -20 -9 -6 -20 -20 -20 -20 -20 -19 -20 -20 -20 -20 -20 -20 -20 -20 -20 -20 -17 -20 -20 -20 -20 -16 -20 -5 -20 -20 -20 -20 -18 -11 -2 -16 -20 -20 -20 -20
-20 -20 -20 -14 -20 -20 -20 -20 -20 -20 -20 -20 -20 -20 -20 -20 -20 -20 -18 -20 -20 -19 -20 -19 -3 -20 -20 -20 -13 -20 -20 -20 -20 -20 -20 -20 -20 -17 -20 -15 -15 -20 -18
-19 -20 -20 -19 -20 -20 -20 -20 -20 -20 -20 -20 -18 -20 -20 -20 -20 -20 -13 -20 -20 -16 -20 -20 -0 -3 -20 -20 -20 -20 -20 -20 -20 -20 -20 -20 -20 -20 -20 -20 -20 -20 -20
-20 -20 -20 -20 -20 -20 -20 -20 -5 -20 -19 -20 -20 -20 -20 -1 -10 -5 -20 -20 -17 1 -20 -20 -14 -2 -20 -20 -20 -20 -7 -20 -20 -20 -20 -20 -20 -20 -20 -20 -20 -20 -20
-20 -20 -20 -20 -9 -20 -10 -14 -6 3 2 1 2 -3 -20 -4 -20 -17 2 -20 -20 -20 3 -20 -3 -20 -20 -20 2 -15 -20 -20 -20 -20 -20 -20 -20 -20 -20 -20 -20 -20 -20
-20 -10 -13 -20 -0 -20 0 3 -3 6 4 3 2 4 0 -11 -5 2 8 5 -20 -20 -20 -20 -20 -20 -20 -20 -20 -11 -20 -20 -20 -20 -20 -20 -10 -20 -20 -20 -20 -20 -20
-7 -4 -1 1 0 2 6 3 8 5 8 9 9 8 8 -20 -20 -20 -16 6 -20 -20 -20 -20 -20 -20 -20 -20 -20 -20 -20 -20 -20 -20 -20 -20 -20 -20 -20 -20 -20 -20 -20
1 -1 -1 3 5 5 7 5 -3 4 2 3 7 -8 8 4 6 -19 -20 -20 -20 -20 -20 -20 -18 -20 -20 -20 -20 -20 -20 -20 -20 -20 -20 -20 -20 -20 -20 -20 -20 -20 -20
6 -6 1 -1 -13 6 -17 -20 -2 -5 -0 7 5 6 2 -20 -18 11 3 -16 -20 -20 -20 -19 -16 -20 -20 -20 -20 -20 -20 -20 -20 -20 -20 -20 -20 -20 -20 -20 -20 -20 -20

GFSGL_prec_radar_123.txt.gz
Reflectivity
1 13 15 21 14 -8 -16 -20 -17 -8 -17 -20 -20 -20 -20 -20 -20 6 19 -17 32 31 38 29 -3 -10 17 20 14 -9 28 -20 -7 -18 21 30 27 -20 -1 9 -20 -20 -13
1 4 15 14 5 5 0 2 2 -1 11 4 11 0 7 -20 -20 -20 -20 -20 39 40 30 26 -15 10 -5 16 19 32 -20 -4 -15 -18 13 30 27 29 -16 -0 -20 -20 -20
9 16 27 20 16 12 9 8 20 19 20 22 19 -5 -16 -5 -20 -20 -20 -14 17 13 29 28 16 9 15 24 28 32 -10 -3 -0 -20 2 22 31 16 -11 -20 -20 -20 -20
9 26 22 28 26 24 23 26 27 23 22 24 18 4 -20 -19 -15 -20 -20 4 14 21 28 28 24 1 11 24 28 20 8 10 -10 -20 -20 -10 27 17 23 -4 10 -17 -20
7 9 22 34 30 26 25 24 18 12 12 17 14 -19 -19 -16 16 19 12 17 23 29 25 11 3 12 22 22 28 25 26 -18 3 -5 -17 10 -20 -16 -9 -13 -18 -20 -20
9 12 12 11 29 34 29 22 19 18 27 37 -1 -1 16 21 12 40 27 41 33 25 26 27 14 30 17 26 20 29 24 24 20 -15 -9 -20 4 -20 -20 -20 -20 -20 10
-20 -15 2 11 19 25 25 21 22 34 28 22 30 30 34 34 40 45 40 37 41 39 38 25 41 28 30 21 27 17 25 22 7 15 30 -7 -8 -0 -20 -20 -12 -12 -20
-20 -20 -6 -8 -12 5 13 15 14 15 17 26 27 35 29 37 38 35 37 37 41 33 28 37 18 29 32 25 20 21 8 24 37 37 25 17 19 -3 -20 -20 -20 -20 -20
-20 -20 -20 -14 -8 -12 -2 7 12 12 14 5 12 9 5 18 19 29 24 32 36 41 33 33 27 33 37 36 20 22 27 31 32 35 31 20 6 9 -9 -19 -20 -20 -20
-20 -20 -20 -20 -14 -1 2 -1 -6 -8 -4 7 7 -2 1 10 9 8 20 16 19 20 25 33 33 37 38 37 32 34 33 34 26 26 19 25 21 16 12 -20 -20 -20 -20
-20 -20 -20 -20 -20 -20 -20 -12 -14 -11 1 1 2 -4 2 7 9 9 -3 7 19 15 12 15 20 24 30 24 25 21 12 17 22 16 11 12 18 20 -14 -12 -15 -19 -20
-20 -20 -20 -20 -20 -20 -20 -20 -20 -20 -20 -9 -4 -3 -14 -16 0 7 6 3 -2 1 9 12 13 12 16 15 11 8 6 6 -10 4 9 4 14 19 15 14 21 22 -5
-20 -20 -20 -20 -20 -20 -20 -20 -20 -20 -20 -20 -20 -20 -9 -20 -20 -17 2 5 2 1 0 4 2 -0 -8 1 -7 -12 -7 -4 2 -1 -6 -11 -9 -11 1 -2 2 1 2
-20 -20 -20 -20 -20 -20 -20 -20 -20 -20 -20 -20 -20 -20 -20 -20 -20 -20 -20 -20 -20 -11 -10 -11 -8 2 0 -3 -10 -20 -14 -10 -10 -20 -15 -11 0 1 -6 -11 -9 -20 -20
-20 -20 -20 -20 -20 -20 -19 -19 -20 -20 -20 -20 -20 -20 -20 -20 -20 -8 -20 -20 -20 -20 -20 -20 -20 -20 -14 -9 -13 -15 -11 -9 -11 -20 -19 -20 -20 -19 -3 -15 -20 -20 -20
-20 -20 -20 -20 -20 -20 -20 -20 -12 -19 -20 -20 -20 -20 -20 -5 -20 -20 -20 -20 -20 -20 -20 -20 -20 -20 -20 -20 -20 -20 -20 -20 -20 -20 -20 -20 -20 -20 -20 -20 -20 -20 -20
-20 -20 -20 -20 -20 -20 -20 -20 -20 -20 -19 -20 -20 -20 -5 -0 -0 -20 -20 -20 -20 -20 -20 -20 -20 -20 -20 -20 -20 -20 -20 -20 -20 -20 -20 -20 -20 -20 -20 -20 -20 -20 -20
-20 -20 -20 -20 -20 -20 -20 -20 -20 -20 -20 -20 -20 -20 -20 -20 -15 -2 -20 -20 -20 -20 -20 -14 -7 -19 -20 -20 -20 -20 -20 -20 -20 -20 -20 -20 -20 -19 -20 -20 -20 -20 -20
-20 -20 -20 -20 -20 -20 -20 -20 -20 -20 -20 -20 -20 -20 -20 -20 -20 -16 -20 -20 -20 -20 -20 -20 0 -0 -20 -20 -20 -20 -20 -20 -20 -20 -20 -20 -20 -20 -20 -20 -20 -20 -20
-20 -20 -20 -20 -20 -20 -20 -20 -20 -20 -20 -20 -20 -20 -20 -20 -20 -20 -20 -20 -20 -20 -20 -20 -19 -20 -20 -20 -20 -20 -20 -20 -20 -20 -20 -20 -20 -20 -20 -20 -20 -20 -20
-20 -20 -20 -20 -20 -20 -20 -20 -20 -20 -20 -20 -20 -20 -20 -20 -20 -20 -20 -20 -20 -20 -20 -20 -20 -20 -20 -20 -15 -20 -20 -20 -20 -20 -20 -20 -20 -20 -20 -20 -20 -20 -20
-20 -20 -20 -20 -20 -20 -20 -14 -20 -20 -20 -20 -20 -20 -20 -20 -20 -20 -20 -20 -20 -20 -20 -20 -20 -20 -20 -20 -20 -20 -20 -20 -20 -20 -20 -20 -20 -20 -20 -20 -20 -20 -20
-20 -20 -20 -20 -20 -20 -20 -20 -20 -16 -5 -20 -20 -5 -17 -20 -19 -20 -20 -20 -20 -20 -20 -20 -20 -20 -20 -20 -20 -20 -20 -20 -20 -20 -20 -20 -20 -20 -20 -20 -20 -20 -20
-20 -20 -20 -20 -20 -20 -20 -20 -20 -20 -20 -20 -20 -20 -20 -20 -20 -20 2 1 -20 -20 -20 -20 -20 -20 -20 -20 -20 -20 -20 -20 -20 -20 -20 -20 -20 -20 -20 -20 -20 -20 -20
-20 -20 -20 -20 -20 -20 -20 -20 -20 -20 -20 -20 -20 -20 -20 -20 -20 -20 -20 -20 -19 -16 -20 -20 -20 -20 -20 -20 -20 -20 -20 -20 -20 -20 -20 -20 -20 -20 -20 -20 -20 -20 -20
-20 -20 -20 -20 -20 -20 -20 -20 -20 -20 -20 -20 -20 -20 -20 -20 -20 -20 -20 -20 -20 -14 11 -15 -20 -20 -20 -20 -20 -20 -20 -20 -20 -20 -20 -20 -20 -20 -20 -20 -20 -20 -20

GFSGL_prec_radar_126.txt.gz
Reflectivity
7 6 8 9 13 17 13 18 20 17 12 18 7 -10 -13 -20 -20 -20 -20 -20 -19 -9 14 -20 -20 13 16 35 29 18 26 -12 26 15 -20 -20 -20 -20 -18 -20 -20 -17 -13
-3 2 5 15 13 17 21 24 16 14 13 8 -17 -0 -2 -7 10 -6 -19 -17 3 15 21 23 13 19 29 40 32 34 21 4 12 -20 -20 -20 -20 -20 -20 -20 -8 26 6
-17 -13 -9 21 15 23 18 20 21 18 10 2 3 3 -5 -4 10 12 -18 -20 -20 11 14 7 -20 -17 40 36 38 21 24 29 11 -18 -20 -15 -20 -20 -20 -20 -15 17 5
2 -8 3 16 31 15 18 15 7 3 2 1 15 -0 22 17 17 -14 -20 -20 -20 -20 -15 -20 -20 -3 12 16 24 21 30 21 26 25 24 8 -20 1 -20 -20 -20 -19 11
5 15 19 18 20 27 17 14 12 18 20 23 22 12 18 18 23 17 13 7 -17 1 -3 -20 -5 24 29 27 26 9 29 29 18 24 23 20 -16 -20 -20 -15 -17 -17 7
7 -4 5 5 8 14 22 21 18 11 14 19 27 24 13 17 14 5 9 13 -2 18 9 11 10 10 3 22 28 33 28 -15 14 20 20 16 -20 -20 -20 -20 -20 -20 -20
-17 0 -20 -17 -8 -6 -8 3 8 7 13 21 22 23 26 22 24 14 10 -5 13 20 20 10 16 25 26 31 22 32 38 34 30 24 20 15 -17 -20 -20 -20 -16 9 -20
-20 -20 -18 -20 -20 -20 -11 2 -3 -2 5 -3 16 19 21 27 38 39 34 29 27 31 34 26 21 32 24 26 34 47 18 34 26 35 14 8 11 -1 -9 -8 13 15 -20
-20 -20 -20 -20 -20 -20 -20 -20 -19 -19 -20 -11 -14 -5 14 13 18 20 25 28 27 28 25 23 25 31 34 33 34 33 35 39 44 34 31 32 33 28 28 25 27 -9 -20
-20 -20 -20 -20 -20 -20 -20 -20 -20 -20 -20 -16 -15 -12 -18 -8 0 -6 6 18 16 18 18 24 24 26 27 23 22 22 29 36 28 35 37 35 30 23 28 23 16 21 -3
-20 -20 -20 -20 -20 -20 -20 -20 -20 -20 -20 -20 -20 -18 -11 -15 -16 -1 -11 -17 -6 1 5 4 7 17 22 15 24 20 14 16 27 22 20 25 27 33 15 14 20 27 11
-20 -20 -20 -20 -20 -20 -20 -20 -20 -20 -20 -20 -20 -20 -20 -20 -20 -20 -20 -20 -15 -8 -4 -3 2 3 -5 -2 2 11 13 16 15 15 16 13 16 15 -9 -7 -8 8 16
-20 -20 -20 -20 -20 -20 -20 -20 -20 -20 -20 -20 -20 -20 -20 -20 -13 -20 -20 -20 -20 -20 -19 -9 1 -0 3 4 2 4 -5 -15 2 10 9 1 8 8 -16 -20 -19 4 -11
-20 -20 -20 -20 -20 -20 -20 -20 -20 -20 -20 -20 -20 -20 -20 -20 -20 -20 -20 -20 -20 -20 -20 -20 -20 -20 -20 -20 -20 -20 -20 -18 -20 -19 -7 -2 -11 -20 -20 -20 -20 -20 -20
-20 -20 -20 -20 -20 -20 -8 -5 -20 -20 -20 -20 -20 -20 -20 -20 -20 -10 -20 -20 -20 -20 -20 -20 -20 -20 -20 -20 -20 -20 -20 -20 -20 -20 -20 -20 -14 -20 -20 -20 -20 -20 -20
-20 -20 -20 -20 -20 -20 -20 -20 -10 -3 -10 -20 -16 -16 -20 -8 -20 -20 -20 -20 -20 -20 -20 -20 -20 -20 -20 -20 -20 -20 -20 -20 -20 -20 -20 -20 -20 -20 -20 -20 -20 -20 -20
-20 -20 -20 -20 -20 -20 -20 -20 -20 -20 -20 -20 -20 -20 -6 -2 -13 -20 -20 -20 -20 -20 -20 -20 -20 -20 -20 -20 -20 -20 -20 -20 -20 -20 -20 -20 -20 -20 -20 -20 -20 -20 -20
-20 -20 -20 -20 -20 -20 -20 -20 -20 -20 -20 -20 -20 -20 -20 -20 -9 -20 -20 -20 -20 -20 -20 -20 -20 -20 -20 -20 -20 -20 -20 -20 -20 -20 -20 -20 -20 -20 -20 -20 -20 -20 -20
-20 -20 -20 -20 -20 -20 -20 -20 -20 -20 -20 -20 -20 -20 -20 -20 -20 -20 -20 -20 -20 -20 -20 -20 -20 -20 -20 -20 -20 -20 -20 -20 -20 -20 -20 -20 -20 -20 -20 -20 -20 -20 -20
-20 -20 -20 -20 -20 -20 -20 -20 -20 -20 -20 -20 -20 -20 -20 -20 -20 -20 -20 -20 -20 -20 -20 -20 -20 -20 -20 -20 -20 -20 -20 -20 -20 -20 -20 -20 -20 -20 -20 -20 -20 -20 -20
-20 -20 -20 -20 -20 -20 -20 -20 -20 -20 -20 -20 -20 -20 -20 -20 -20 -20 -20 -20 -20 -20 -20 -20 -20 -20 -20 -20 -20 -20 -20 -20 -20 -20 -20 -20 -20 -20 -20 -20 -20 -20 -20
-20 -20 -20 -20 -20 -20 -20 -20 -20 -20 -20 -20 -20 -20 -20 -20 -20 -20 -20 -20 -20 -20 -20 -20 -20 -20 -20 -20 -20 -20 -20 -20 -20 -20 -20 -20 -20 -20 -20 -20 -20 -20 -20
-20 -20 -20 -20 -20 -20 -20 -20 -20 -20 -20 -20 -20 -20 -20 -20 -20 -20 -20 -20 -20 -20 -20 -20 -20 -20 -20 -20 -20 -20 -20 -20 -20 -20 -20 -20 -20 -20 -20 -20 -20 -20 -20
-20 -20 -20 -20 -20 -20 -20 -20 -20 -20 -20 -20 -20 -20 -20 -20 -20 -20 -20 -20 -20 -20 -20 -12 -20 -20 -20 -20 -20 -20 -20 -20 -20 -20 -20 -20 -20 -20 -20 -20 -20 -20 -20
-20 -20 -20 -20 -20 -20 -20 -20 -20 -20 -20 -20 -20 -20 -20 -20 -20 -20 -20 -20 -20 -20 -20 -20 -20 -19 -20 -20 -20 -20 -20 -20 -20 -20 -20 -20 -20 -20 -20 -20 -20 -20 -20
-20 -20 -20 -20 -20 -20 -20 -20 -20 -20 -20 -20 -20 -20 -20 -20 -9 -20 -20 -20 -20 -20 -20 -20 -20 -20 -13 -20 -20 -20 -20 -20 -20 -20 -20 -20 -20 -20 -20 -20 -20 -20 -20